<?xml version="1.0" encoding="UTF-8" standalone="no" ?>
<gpx xmlns="http://www.topografix.com/GPX/1/1" xmlns:xsi="http://www.w3.org/2001/XMLSchema-instance" xsi:schemaLocation="http://www.topografix.com/GPX/1/1 http://www.topografix.com/GPX/1/1/gpx.xsd" version="1.1" creator="VisuGPX - https://www.visugpx.com">
  <metadata>
    <name>St Guilhem le Désert</name>
    <desc><![CDATA[Une des très belles randonnées à faire vers St Guilhem]]></desc>
  </metadata>
  <trk>
    <name><![CDATA[St Guilhem le Désert_1]]></name>
    <trkseg>
      <trkpt lat="43.7242" lon="3.55052">
        <ele>57.525356</ele>
        <time>2016-01-24T08:44:34Z</time>
      </trkpt>
      <trkpt lat="43.72421" lon="3.55051">
        <ele>58.290585</ele>
        <time>2016-01-24T08:44:35Z</time>
      </trkpt>
      <trkpt lat="43.72415" lon="3.55016">
        <ele>67</ele>
        <time>2016-01-24T08:45:00Z</time>
      </trkpt>
      <trkpt lat="43.72405" lon="3.55028">
        <ele>70</ele>
        <time>2016-01-24T08:46:07Z</time>
      </trkpt>
      <trkpt lat="43.72411" lon="3.55038">
        <ele>69.4</ele>
        <time>2016-01-24T08:49:24Z</time>
      </trkpt>
      <trkpt lat="43.72418" lon="3.55047">
        <ele>69.3</ele>
        <time>2016-01-24T08:49:41Z</time>
      </trkpt>
      <trkpt lat="43.72417" lon="3.55034">
        <ele>69.4</ele>
        <time>2016-01-24T08:50:34Z</time>
      </trkpt>
      <trkpt lat="43.72416" lon="3.55022">
        <ele>70.3</ele>
        <time>2016-01-24T08:50:47Z</time>
      </trkpt>
      <trkpt lat="43.72414" lon="3.55009">
        <ele>71.3</ele>
        <time>2016-01-24T08:50:57Z</time>
      </trkpt>
      <trkpt lat="43.72411" lon="3.54996">
        <ele>72.1</ele>
        <time>2016-01-24T08:51:06Z</time>
      </trkpt>
      <trkpt lat="43.72409" lon="3.54983">
        <ele>73</ele>
        <time>2016-01-24T08:51:15Z</time>
      </trkpt>
      <trkpt lat="43.72407" lon="3.5497">
        <ele>73.6</ele>
        <time>2016-01-24T08:51:23Z</time>
      </trkpt>
      <trkpt lat="43.72405" lon="3.54957">
        <ele>74.2</ele>
        <time>2016-01-24T08:51:33Z</time>
      </trkpt>
      <trkpt lat="43.72403" lon="3.54945">
        <ele>74.6</ele>
        <time>2016-01-24T08:51:45Z</time>
      </trkpt>
      <trkpt lat="43.72396" lon="3.54936">
        <ele>75.2</ele>
        <time>2016-01-24T08:52:00Z</time>
      </trkpt>
      <trkpt lat="43.72387" lon="3.54934">
        <ele>76.8</ele>
        <time>2016-01-24T08:52:16Z</time>
      </trkpt>
      <trkpt lat="43.72378" lon="3.54937">
        <ele>78.2</ele>
        <time>2016-01-24T08:52:28Z</time>
      </trkpt>
      <trkpt lat="43.72369" lon="3.54936">
        <ele>80.3</ele>
        <time>2016-01-24T08:52:41Z</time>
      </trkpt>
      <trkpt lat="43.7236" lon="3.54934">
        <ele>82.6</ele>
        <time>2016-01-24T08:52:56Z</time>
      </trkpt>
      <trkpt lat="43.72349" lon="3.54942">
        <ele>86.2</ele>
        <time>2016-01-24T08:53:18Z</time>
      </trkpt>
      <trkpt lat="43.7234" lon="3.54945">
        <ele>89.4</ele>
        <time>2016-01-24T08:53:39Z</time>
      </trkpt>
      <trkpt lat="43.72332" lon="3.54961">
        <ele>94.3</ele>
        <time>2016-01-24T08:54:11Z</time>
      </trkpt>
      <trkpt lat="43.72325" lon="3.5497">
        <ele>98.7</ele>
        <time>2016-01-24T08:54:40Z</time>
      </trkpt>
      <trkpt lat="43.72308" lon="3.54971">
        <ele>101.7</ele>
        <time>2016-01-24T08:55:00Z</time>
      </trkpt>
      <trkpt lat="43.72301" lon="3.54964">
        <ele>106</ele>
        <time>2016-01-24T08:55:28Z</time>
      </trkpt>
      <trkpt lat="43.72289" lon="3.54958">
        <ele>112.6</ele>
        <time>2016-01-24T08:56:08Z</time>
      </trkpt>
      <trkpt lat="43.7228" lon="3.54958">
        <ele>116</ele>
        <time>2016-01-24T08:56:30Z</time>
      </trkpt>
      <trkpt lat="43.72276" lon="3.54974">
        <ele>117.1</ele>
        <time>2016-01-24T08:56:37Z</time>
      </trkpt>
      <trkpt lat="43.7227" lon="3.54984">
        <ele>118.9</ele>
        <time>2016-01-24T08:56:48Z</time>
      </trkpt>
      <trkpt lat="43.72265" lon="3.54973">
        <ele>121.9</ele>
        <time>2016-01-24T08:57:07Z</time>
      </trkpt>
      <trkpt lat="43.72264" lon="3.54961">
        <ele>124.8</ele>
        <time>2016-01-24T08:57:26Z</time>
      </trkpt>
      <trkpt lat="43.72254" lon="3.5496">
        <ele>128.9</ele>
        <time>2016-01-24T08:57:52Z</time>
      </trkpt>
      <trkpt lat="43.72245" lon="3.54962">
        <ele>133.8</ele>
        <time>2016-01-24T08:58:23Z</time>
      </trkpt>
      <trkpt lat="43.72243" lon="3.5495">
        <ele>137.7</ele>
        <time>2016-01-24T08:58:55Z</time>
      </trkpt>
      <trkpt lat="43.72235" lon="3.54944">
        <ele>141.4</ele>
        <time>2016-01-24T08:59:23Z</time>
      </trkpt>
      <trkpt lat="43.7223" lon="3.54955">
        <ele>142.9</ele>
        <time>2016-01-24T08:59:34Z</time>
      </trkpt>
      <trkpt lat="43.72227" lon="3.54968">
        <ele>144.4</ele>
        <time>2016-01-24T08:59:44Z</time>
      </trkpt>
      <trkpt lat="43.72227" lon="3.54956">
        <ele>147.7</ele>
        <time>2016-01-24T09:00:10Z</time>
      </trkpt>
      <trkpt lat="43.72225" lon="3.54941">
        <ele>150.5</ele>
        <time>2016-01-24T09:00:31Z</time>
      </trkpt>
      <trkpt lat="43.72216" lon="3.5494">
        <ele>153.7</ele>
        <time>2016-01-24T09:00:52Z</time>
      </trkpt>
      <trkpt lat="43.72208" lon="3.54947">
        <ele>156.6</ele>
        <time>2016-01-24T09:01:14Z</time>
      </trkpt>
      <trkpt lat="43.72201" lon="3.54938">
        <ele>161.4</ele>
        <time>2016-01-24T09:01:52Z</time>
      </trkpt>
      <trkpt lat="43.72192" lon="3.54933">
        <ele>164.2</ele>
        <time>2016-01-24T09:02:13Z</time>
      </trkpt>
      <trkpt lat="43.72183" lon="3.54931">
        <ele>168.2</ele>
        <time>2016-01-24T09:02:41Z</time>
      </trkpt>
      <trkpt lat="43.72177" lon="3.54941">
        <ele>170.2</ele>
        <time>2016-01-24T09:02:55Z</time>
      </trkpt>
      <trkpt lat="43.72176" lon="3.54925">
        <ele>175.4</ele>
        <time>2016-01-24T09:03:31Z</time>
      </trkpt>
      <trkpt lat="43.72167" lon="3.54925">
        <ele>178.2</ele>
        <time>2016-01-24T09:03:51Z</time>
      </trkpt>
      <trkpt lat="43.72169" lon="3.54913">
        <ele>182.5</ele>
        <time>2016-01-24T09:04:21Z</time>
      </trkpt>
      <trkpt lat="43.72161" lon="3.54907">
        <ele>184.4</ele>
        <time>2016-01-24T09:04:33Z</time>
      </trkpt>
      <trkpt lat="43.72156" lon="3.54918">
        <ele>187.3</ele>
        <time>2016-01-24T09:04:53Z</time>
      </trkpt>
      <trkpt lat="43.72149" lon="3.54908">
        <ele>191</ele>
        <time>2016-01-24T09:05:21Z</time>
      </trkpt>
      <trkpt lat="43.72146" lon="3.54896">
        <ele>193.1</ele>
        <time>2016-01-24T09:05:37Z</time>
      </trkpt>
      <trkpt lat="43.72152" lon="3.54887">
        <ele>195.4</ele>
        <time>2016-01-24T09:05:53Z</time>
      </trkpt>
      <trkpt lat="43.72147" lon="3.54876">
        <ele>198.7</ele>
        <time>2016-01-24T09:06:16Z</time>
      </trkpt>
      <trkpt lat="43.72138" lon="3.54872">
        <ele>201.2</ele>
        <time>2016-01-24T09:06:34Z</time>
      </trkpt>
      <trkpt lat="43.72131" lon="3.54879">
        <ele>203.5</ele>
        <time>2016-01-24T09:06:51Z</time>
      </trkpt>
      <trkpt lat="43.72125" lon="3.54869">
        <ele>208.3</ele>
        <time>2016-01-24T09:07:24Z</time>
      </trkpt>
      <trkpt lat="43.72127" lon="3.54856">
        <ele>211.1</ele>
        <time>2016-01-24T09:07:44Z</time>
      </trkpt>
      <trkpt lat="43.72119" lon="3.54849">
        <ele>217</ele>
        <time>2016-01-24T09:08:27Z</time>
      </trkpt>
      <trkpt lat="43.72111" lon="3.54854">
        <ele>220.1</ele>
        <time>2016-01-24T09:08:48Z</time>
      </trkpt>
      <trkpt lat="43.72103" lon="3.54847">
        <ele>224.3</ele>
        <time>2016-01-24T09:09:16Z</time>
      </trkpt>
      <trkpt lat="43.72096" lon="3.54853">
        <ele>226.7</ele>
        <time>2016-01-24T09:09:36Z</time>
      </trkpt>
      <trkpt lat="43.7209" lon="3.54863">
        <ele>229.8</ele>
        <time>2016-01-24T09:09:57Z</time>
      </trkpt>
      <trkpt lat="43.72084" lon="3.54873">
        <ele>232.5</ele>
        <time>2016-01-24T09:10:19Z</time>
      </trkpt>
      <trkpt lat="43.72078" lon="3.54883">
        <ele>234.7</ele>
        <time>2016-01-24T09:10:35Z</time>
      </trkpt>
      <trkpt lat="43.72075" lon="3.54871">
        <ele>238.2</ele>
        <time>2016-01-24T09:11:05Z</time>
      </trkpt>
      <trkpt lat="43.72074" lon="3.54857">
        <ele>240.1</ele>
        <time>2016-01-24T09:11:20Z</time>
      </trkpt>
      <trkpt lat="43.72068" lon="3.54848">
        <ele>242.9</ele>
        <time>2016-01-24T09:11:41Z</time>
      </trkpt>
      <trkpt lat="43.7206" lon="3.54842">
        <ele>245.5</ele>
        <time>2016-01-24T09:11:59Z</time>
      </trkpt>
      <trkpt lat="43.72052" lon="3.54835">
        <ele>248.1</ele>
        <time>2016-01-24T09:12:17Z</time>
      </trkpt>
      <trkpt lat="43.72042" lon="3.54833">
        <ele>250.2</ele>
        <time>2016-01-24T09:12:31Z</time>
      </trkpt>
      <trkpt lat="43.72035" lon="3.54824">
        <ele>251.6</ele>
        <time>2016-01-24T09:12:47Z</time>
      </trkpt>
      <trkpt lat="43.72027" lon="3.54819">
        <ele>252.8</ele>
        <time>2016-01-24T09:12:59Z</time>
      </trkpt>
      <trkpt lat="43.72021" lon="3.5481">
        <ele>255.2</ele>
        <time>2016-01-24T09:13:18Z</time>
      </trkpt>
      <trkpt lat="43.72016" lon="3.54798">
        <ele>257.3</ele>
        <time>2016-01-24T09:13:35Z</time>
      </trkpt>
      <trkpt lat="43.72012" lon="3.54788">
        <ele>259.2</ele>
        <time>2016-01-24T09:13:49Z</time>
      </trkpt>
      <trkpt lat="43.72006" lon="3.54778">
        <ele>261.3</ele>
        <time>2016-01-24T09:14:08Z</time>
      </trkpt>
      <trkpt lat="43.72001" lon="3.54766">
        <ele>263</ele>
        <time>2016-01-24T09:14:23Z</time>
      </trkpt>
      <trkpt lat="43.71995" lon="3.54756">
        <ele>263.5</ele>
        <time>2016-01-24T09:14:34Z</time>
      </trkpt>
      <trkpt lat="43.72" lon="3.54746">
        <ele>264.8</ele>
        <time>2016-01-24T09:14:51Z</time>
      </trkpt>
      <trkpt lat="43.72005" lon="3.54735">
        <ele>271.4</ele>
        <time>2016-01-24T09:17:41Z</time>
      </trkpt>
      <trkpt lat="43.72006" lon="3.54722">
        <ele>274.5</ele>
        <time>2016-01-24T09:18:06Z</time>
      </trkpt>
      <trkpt lat="43.72005" lon="3.5471">
        <ele>277.2</ele>
        <time>2016-01-24T09:18:28Z</time>
      </trkpt>
      <trkpt lat="43.72014" lon="3.54707">
        <ele>279.5</ele>
        <time>2016-01-24T09:18:45Z</time>
      </trkpt>
      <trkpt lat="43.7202" lon="3.54697">
        <ele>281.9</ele>
        <time>2016-01-24T09:19:03Z</time>
      </trkpt>
      <trkpt lat="43.72029" lon="3.54694">
        <ele>284.5</ele>
        <time>2016-01-24T09:19:22Z</time>
      </trkpt>
      <trkpt lat="43.72038" lon="3.54689">
        <ele>287</ele>
        <time>2016-01-24T09:19:40Z</time>
      </trkpt>
      <trkpt lat="43.72047" lon="3.54685">
        <ele>289.3</ele>
        <time>2016-01-24T09:19:58Z</time>
      </trkpt>
      <trkpt lat="43.72056" lon="3.54686">
        <ele>290.5</ele>
        <time>2016-01-24T09:20:11Z</time>
      </trkpt>
      <trkpt lat="43.72065" lon="3.5469">
        <ele>291.3</ele>
        <time>2016-01-24T09:20:21Z</time>
      </trkpt>
      <trkpt lat="43.72074" lon="3.54691">
        <ele>292.1</ele>
        <time>2016-01-24T09:20:31Z</time>
      </trkpt>
      <trkpt lat="43.72083" lon="3.54686">
        <ele>293.1</ele>
        <time>2016-01-24T09:20:41Z</time>
      </trkpt>
      <trkpt lat="43.72092" lon="3.54686">
        <ele>293.9</ele>
        <time>2016-01-24T09:20:52Z</time>
      </trkpt>
      <trkpt lat="43.72101" lon="3.54682">
        <ele>294.6</ele>
        <time>2016-01-24T09:21:07Z</time>
      </trkpt>
      <trkpt lat="43.72109" lon="3.54677">
        <ele>295.7</ele>
        <time>2016-01-24T09:21:24Z</time>
      </trkpt>
      <trkpt lat="43.72118" lon="3.54672">
        <ele>296.9</ele>
        <time>2016-01-24T09:21:45Z</time>
      </trkpt>
      <trkpt lat="43.72125" lon="3.54664">
        <ele>298.3</ele>
        <time>2016-01-24T09:21:57Z</time>
      </trkpt>
      <trkpt lat="43.72131" lon="3.54655">
        <ele>300.5</ele>
        <time>2016-01-24T09:22:16Z</time>
      </trkpt>
      <trkpt lat="43.72137" lon="3.54644">
        <ele>302.1</ele>
        <time>2016-01-24T09:22:31Z</time>
      </trkpt>
      <trkpt lat="43.72139" lon="3.54632">
        <ele>304.1</ele>
        <time>2016-01-24T09:22:45Z</time>
      </trkpt>
      <trkpt lat="43.72138" lon="3.54619">
        <ele>306.3</ele>
        <time>2016-01-24T09:23:02Z</time>
      </trkpt>
      <trkpt lat="43.72137" lon="3.54606">
        <ele>309.1</ele>
        <time>2016-01-24T09:23:20Z</time>
      </trkpt>
      <trkpt lat="43.72137" lon="3.54593">
        <ele>311.4</ele>
        <time>2016-01-24T09:23:35Z</time>
      </trkpt>
      <trkpt lat="43.72139" lon="3.5458">
        <ele>312.8</ele>
        <time>2016-01-24T09:23:47Z</time>
      </trkpt>
      <trkpt lat="43.72135" lon="3.54568">
        <ele>313.9</ele>
        <time>2016-01-24T09:23:58Z</time>
      </trkpt>
      <trkpt lat="43.72126" lon="3.54565">
        <ele>315.8</ele>
        <time>2016-01-24T09:24:13Z</time>
      </trkpt>
      <trkpt lat="43.72119" lon="3.54557">
        <ele>317.3</ele>
        <time>2016-01-24T09:24:26Z</time>
      </trkpt>
      <trkpt lat="43.72114" lon="3.54546">
        <ele>317.7</ele>
        <time>2016-01-24T09:24:36Z</time>
      </trkpt>
      <trkpt lat="43.72107" lon="3.54538">
        <ele>318</ele>
        <time>2016-01-24T09:24:46Z</time>
      </trkpt>
      <trkpt lat="43.721" lon="3.54528">
        <ele>318.9</ele>
        <time>2016-01-24T09:25:00Z</time>
      </trkpt>
      <trkpt lat="43.72096" lon="3.54516">
        <ele>320.3</ele>
        <time>2016-01-24T09:25:14Z</time>
      </trkpt>
      <trkpt lat="43.72096" lon="3.54503">
        <ele>321.2</ele>
        <time>2016-01-24T09:25:24Z</time>
      </trkpt>
      <trkpt lat="43.72093" lon="3.54491">
        <ele>322</ele>
        <time>2016-01-24T09:25:34Z</time>
      </trkpt>
      <trkpt lat="43.72091" lon="3.54477">
        <ele>323.3</ele>
        <time>2016-01-24T09:25:49Z</time>
      </trkpt>
      <trkpt lat="43.72085" lon="3.54467">
        <ele>324.2</ele>
        <time>2016-01-24T09:25:58Z</time>
      </trkpt>
      <trkpt lat="43.72082" lon="3.54454">
        <ele>325.6</ele>
        <time>2016-01-24T09:26:10Z</time>
      </trkpt>
      <trkpt lat="43.72082" lon="3.54441">
        <ele>326.8</ele>
        <time>2016-01-24T09:26:20Z</time>
      </trkpt>
      <trkpt lat="43.72082" lon="3.54427">
        <ele>327.6</ele>
        <time>2016-01-24T09:26:31Z</time>
      </trkpt>
      <trkpt lat="43.72079" lon="3.54415">
        <ele>328.5</ele>
        <time>2016-01-24T09:26:42Z</time>
      </trkpt>
      <trkpt lat="43.72075" lon="3.54401">
        <ele>329.5</ele>
        <time>2016-01-24T09:26:52Z</time>
      </trkpt>
      <trkpt lat="43.72072" lon="3.54389">
        <ele>330.9</ele>
        <time>2016-01-24T09:27:04Z</time>
      </trkpt>
      <trkpt lat="43.72069" lon="3.54377">
        <ele>332.3</ele>
        <time>2016-01-24T09:27:16Z</time>
      </trkpt>
      <trkpt lat="43.72063" lon="3.54367">
        <ele>334</ele>
        <time>2016-01-24T09:27:28Z</time>
      </trkpt>
      <trkpt lat="43.72061" lon="3.54355">
        <ele>335.2</ele>
        <time>2016-01-24T09:27:38Z</time>
      </trkpt>
      <trkpt lat="43.72055" lon="3.54344">
        <ele>335.8</ele>
        <time>2016-01-24T09:27:44Z</time>
      </trkpt>
      <trkpt lat="43.72053" lon="3.54331">
        <ele>336.8</ele>
        <time>2016-01-24T09:27:54Z</time>
      </trkpt>
      <trkpt lat="43.7205" lon="3.54318">
        <ele>338.1</ele>
        <time>2016-01-24T09:28:06Z</time>
      </trkpt>
      <trkpt lat="43.72045" lon="3.54307">
        <ele>339.3</ele>
        <time>2016-01-24T09:28:18Z</time>
      </trkpt>
      <trkpt lat="43.72044" lon="3.54294">
        <ele>340.2</ele>
        <time>2016-01-24T09:28:28Z</time>
      </trkpt>
      <trkpt lat="43.72037" lon="3.54285">
        <ele>341.3</ele>
        <time>2016-01-24T09:28:41Z</time>
      </trkpt>
      <trkpt lat="43.72032" lon="3.54273">
        <ele>342.4</ele>
        <time>2016-01-24T09:28:52Z</time>
      </trkpt>
      <trkpt lat="43.72025" lon="3.54265">
        <ele>343.5</ele>
        <time>2016-01-24T09:29:03Z</time>
      </trkpt>
      <trkpt lat="43.72021" lon="3.54253">
        <ele>344</ele>
        <time>2016-01-24T09:29:13Z</time>
      </trkpt>
      <trkpt lat="43.72015" lon="3.54243">
        <ele>344.3</ele>
        <time>2016-01-24T09:29:23Z</time>
      </trkpt>
      <trkpt lat="43.72008" lon="3.54234">
        <ele>344.3</ele>
        <time>2016-01-24T09:29:32Z</time>
      </trkpt>
      <trkpt lat="43.72001" lon="3.54225">
        <ele>344.3</ele>
        <time>2016-01-24T09:29:41Z</time>
      </trkpt>
      <trkpt lat="43.71992" lon="3.54228">
        <ele>344.6</ele>
        <time>2016-01-24T09:29:52Z</time>
      </trkpt>
      <trkpt lat="43.71988" lon="3.54216">
        <ele>345</ele>
        <time>2016-01-24T09:31:07Z</time>
      </trkpt>
      <trkpt lat="43.7198" lon="3.54209">
        <ele>344.4</ele>
        <time>2016-01-24T09:31:20Z</time>
      </trkpt>
      <trkpt lat="43.71974" lon="3.542">
        <ele>342</ele>
        <time>2016-01-24T09:32:48Z</time>
      </trkpt>
      <trkpt lat="43.71969" lon="3.54188">
        <ele>341.6</ele>
        <time>2016-01-24T09:32:58Z</time>
      </trkpt>
      <trkpt lat="43.71966" lon="3.54174">
        <ele>341.2</ele>
        <time>2016-01-24T09:33:08Z</time>
      </trkpt>
      <trkpt lat="43.71965" lon="3.54162">
        <ele>341.2</ele>
        <time>2016-01-24T09:33:18Z</time>
      </trkpt>
      <trkpt lat="43.71968" lon="3.5415">
        <ele>342.4</ele>
        <time>2016-01-24T09:33:34Z</time>
      </trkpt>
      <trkpt lat="43.71972" lon="3.54138">
        <ele>344.2</ele>
        <time>2016-01-24T09:34:13Z</time>
      </trkpt>
      <trkpt lat="43.71976" lon="3.54127">
        <ele>344.7</ele>
        <time>2016-01-24T09:34:28Z</time>
      </trkpt>
      <trkpt lat="43.71982" lon="3.54116">
        <ele>345.9</ele>
        <time>2016-01-24T09:34:43Z</time>
      </trkpt>
      <trkpt lat="43.71987" lon="3.54106">
        <ele>346.7</ele>
        <time>2016-01-24T09:34:54Z</time>
      </trkpt>
      <trkpt lat="43.7199" lon="3.54094">
        <ele>347.6</ele>
        <time>2016-01-24T09:35:06Z</time>
      </trkpt>
      <trkpt lat="43.71997" lon="3.54085">
        <ele>348.3</ele>
        <time>2016-01-24T09:35:17Z</time>
      </trkpt>
      <trkpt lat="43.72003" lon="3.54074">
        <ele>348.8</ele>
        <time>2016-01-24T09:35:26Z</time>
      </trkpt>
      <trkpt lat="43.72008" lon="3.54062">
        <ele>349.2</ele>
        <time>2016-01-24T09:35:35Z</time>
      </trkpt>
      <trkpt lat="43.72013" lon="3.54051">
        <ele>349.8</ele>
        <time>2016-01-24T09:35:44Z</time>
      </trkpt>
      <trkpt lat="43.72022" lon="3.54045">
        <ele>350.7</ele>
        <time>2016-01-24T09:35:54Z</time>
      </trkpt>
      <trkpt lat="43.7203" lon="3.54038">
        <ele>351.3</ele>
        <time>2016-01-24T09:36:04Z</time>
      </trkpt>
      <trkpt lat="43.72037" lon="3.54031">
        <ele>351.8</ele>
        <time>2016-01-24T09:36:15Z</time>
      </trkpt>
      <trkpt lat="43.72046" lon="3.54025">
        <ele>352.7</ele>
        <time>2016-01-24T09:36:27Z</time>
      </trkpt>
      <trkpt lat="43.72053" lon="3.54016">
        <ele>353.7</ele>
        <time>2016-01-24T09:36:39Z</time>
      </trkpt>
      <trkpt lat="43.72061" lon="3.54008">
        <ele>354.6</ele>
        <time>2016-01-24T09:36:49Z</time>
      </trkpt>
      <trkpt lat="43.7207" lon="3.54003">
        <ele>355.4</ele>
        <time>2016-01-24T09:37:01Z</time>
      </trkpt>
      <trkpt lat="43.7208" lon="3.54002">
        <ele>355.9</ele>
        <time>2016-01-24T09:37:12Z</time>
      </trkpt>
      <trkpt lat="43.72088" lon="3.53996">
        <ele>356.4</ele>
        <time>2016-01-24T09:37:22Z</time>
      </trkpt>
      <trkpt lat="43.72096" lon="3.53991">
        <ele>357.1</ele>
        <time>2016-01-24T09:37:35Z</time>
      </trkpt>
      <trkpt lat="43.72106" lon="3.5399">
        <ele>357.6</ele>
        <time>2016-01-24T09:37:45Z</time>
      </trkpt>
      <trkpt lat="43.72114" lon="3.53985">
        <ele>357.9</ele>
        <time>2016-01-24T09:37:54Z</time>
      </trkpt>
      <trkpt lat="43.72122" lon="3.53978">
        <ele>358.5</ele>
        <time>2016-01-24T09:38:05Z</time>
      </trkpt>
      <trkpt lat="43.7213" lon="3.53972">
        <ele>359.5</ele>
        <time>2016-01-24T09:38:17Z</time>
      </trkpt>
      <trkpt lat="43.72138" lon="3.53966">
        <ele>360.3</ele>
        <time>2016-01-24T09:38:36Z</time>
      </trkpt>
      <trkpt lat="43.72148" lon="3.53969">
        <ele>360.6</ele>
        <time>2016-01-24T09:38:48Z</time>
      </trkpt>
      <trkpt lat="43.72157" lon="3.53967">
        <ele>360.5</ele>
        <time>2016-01-24T09:39:03Z</time>
      </trkpt>
      <trkpt lat="43.72164" lon="3.53976">
        <ele>360</ele>
        <time>2016-01-24T09:39:13Z</time>
      </trkpt>
      <trkpt lat="43.72169" lon="3.53988">
        <ele>359.3</ele>
        <time>2016-01-24T09:39:21Z</time>
      </trkpt>
      <trkpt lat="43.72177" lon="3.53995">
        <ele>358.2</ele>
        <time>2016-01-24T09:39:31Z</time>
      </trkpt>
      <trkpt lat="43.72186" lon="3.53998">
        <ele>357.1</ele>
        <time>2016-01-24T09:39:40Z</time>
      </trkpt>
      <trkpt lat="43.72195" lon="3.53996">
        <ele>356.3</ele>
        <time>2016-01-24T09:39:54Z</time>
      </trkpt>
      <trkpt lat="43.72192" lon="3.53984">
        <ele>356</ele>
        <time>2016-01-24T09:45:49Z</time>
      </trkpt>
      <trkpt lat="43.72186" lon="3.53974">
        <ele>356.7</ele>
        <time>2016-01-24T09:46:00Z</time>
      </trkpt>
      <trkpt lat="43.72179" lon="3.53964">
        <ele>357.7</ele>
        <time>2016-01-24T09:46:12Z</time>
      </trkpt>
      <trkpt lat="43.72171" lon="3.53957">
        <ele>358.5</ele>
        <time>2016-01-24T09:46:23Z</time>
      </trkpt>
      <trkpt lat="43.72164" lon="3.53949">
        <ele>359.4</ele>
        <time>2016-01-24T09:46:35Z</time>
      </trkpt>
      <trkpt lat="43.72161" lon="3.53936">
        <ele>360.3</ele>
        <time>2016-01-24T09:46:47Z</time>
      </trkpt>
      <trkpt lat="43.72161" lon="3.53923">
        <ele>361.4</ele>
        <time>2016-01-24T09:47:04Z</time>
      </trkpt>
      <trkpt lat="43.72162" lon="3.5391">
        <ele>362.1</ele>
        <time>2016-01-24T09:47:14Z</time>
      </trkpt>
      <trkpt lat="43.72162" lon="3.53897">
        <ele>362.5</ele>
        <time>2016-01-24T09:47:24Z</time>
      </trkpt>
      <trkpt lat="43.72163" lon="3.53883">
        <ele>362.8</ele>
        <time>2016-01-24T09:47:34Z</time>
      </trkpt>
      <trkpt lat="43.72159" lon="3.53871">
        <ele>363.1</ele>
        <time>2016-01-24T09:47:43Z</time>
      </trkpt>
      <trkpt lat="43.72156" lon="3.53859">
        <ele>363.4</ele>
        <time>2016-01-24T09:47:52Z</time>
      </trkpt>
      <trkpt lat="43.72153" lon="3.53847">
        <ele>363.6</ele>
        <time>2016-01-24T09:48:01Z</time>
      </trkpt>
      <trkpt lat="43.72149" lon="3.53834">
        <ele>363.7</ele>
        <time>2016-01-24T09:48:11Z</time>
      </trkpt>
      <trkpt lat="43.72147" lon="3.53821">
        <ele>363.6</ele>
        <time>2016-01-24T09:48:21Z</time>
      </trkpt>
      <trkpt lat="43.72144" lon="3.53809">
        <ele>363.2</ele>
        <time>2016-01-24T09:48:30Z</time>
      </trkpt>
      <trkpt lat="43.72147" lon="3.53797">
        <ele>362.6</ele>
        <time>2016-01-24T09:48:40Z</time>
      </trkpt>
      <trkpt lat="43.72145" lon="3.53784">
        <ele>361.5</ele>
        <time>2016-01-24T09:48:51Z</time>
      </trkpt>
      <trkpt lat="43.72146" lon="3.53771">
        <ele>360.4</ele>
        <time>2016-01-24T09:49:01Z</time>
      </trkpt>
      <trkpt lat="43.72148" lon="3.53758">
        <ele>358.4</ele>
        <time>2016-01-24T09:49:16Z</time>
      </trkpt>
      <trkpt lat="43.72151" lon="3.53746">
        <ele>356.9</ele>
        <time>2016-01-24T09:49:26Z</time>
      </trkpt>
      <trkpt lat="43.72155" lon="3.53734">
        <ele>355.4</ele>
        <time>2016-01-24T09:49:36Z</time>
      </trkpt>
      <trkpt lat="43.72162" lon="3.53726">
        <ele>354.2</ele>
        <time>2016-01-24T09:49:45Z</time>
      </trkpt>
      <trkpt lat="43.7217" lon="3.5372">
        <ele>353.2</ele>
        <time>2016-01-24T09:49:54Z</time>
      </trkpt>
      <trkpt lat="43.72178" lon="3.53714">
        <ele>352.2</ele>
        <time>2016-01-24T09:50:02Z</time>
      </trkpt>
      <trkpt lat="43.72182" lon="3.53703">
        <ele>351.5</ele>
        <time>2016-01-24T09:50:13Z</time>
      </trkpt>
      <trkpt lat="43.72188" lon="3.53693">
        <ele>351.1</ele>
        <time>2016-01-24T09:50:24Z</time>
      </trkpt>
      <trkpt lat="43.72191" lon="3.53681">
        <ele>351.2</ele>
        <time>2016-01-24T09:50:33Z</time>
      </trkpt>
      <trkpt lat="43.72194" lon="3.53669">
        <ele>351.9</ele>
        <time>2016-01-24T09:50:43Z</time>
      </trkpt>
      <trkpt lat="43.72198" lon="3.53658">
        <ele>353.1</ele>
        <time>2016-01-24T09:50:57Z</time>
      </trkpt>
      <trkpt lat="43.72202" lon="3.53646">
        <ele>354</ele>
        <time>2016-01-24T09:51:08Z</time>
      </trkpt>
      <trkpt lat="43.72198" lon="3.53635">
        <ele>354.9</ele>
        <time>2016-01-24T09:51:24Z</time>
      </trkpt>
      <trkpt lat="43.72189" lon="3.53627">
        <ele>355.3</ele>
        <time>2016-01-24T09:51:36Z</time>
      </trkpt>
      <trkpt lat="43.7219" lon="3.53613">
        <ele>355.4</ele>
        <time>2016-01-24T09:51:50Z</time>
      </trkpt>
      <trkpt lat="43.72191" lon="3.536">
        <ele>355.6</ele>
        <time>2016-01-24T09:52:17Z</time>
      </trkpt>
      <trkpt lat="43.72189" lon="3.53587">
        <ele>355.8</ele>
        <time>2016-01-24T09:52:27Z</time>
      </trkpt>
      <trkpt lat="43.72191" lon="3.53574">
        <ele>357.1</ele>
        <time>2016-01-24T09:53:28Z</time>
      </trkpt>
      <trkpt lat="43.72199" lon="3.53569">
        <ele>357.3</ele>
        <time>2016-01-24T09:53:44Z</time>
      </trkpt>
      <trkpt lat="43.72208" lon="3.53575">
        <ele>357.5</ele>
        <time>2016-01-24T09:53:56Z</time>
      </trkpt>
      <trkpt lat="43.72202" lon="3.53565">
        <ele>357.6</ele>
        <time>2016-01-24T09:55:13Z</time>
      </trkpt>
      <trkpt lat="43.72197" lon="3.53555">
        <ele>357.7</ele>
        <time>2016-01-24T09:55:26Z</time>
      </trkpt>
      <trkpt lat="43.7219" lon="3.53546">
        <ele>357.9</ele>
        <time>2016-01-24T09:55:37Z</time>
      </trkpt>
      <trkpt lat="43.72182" lon="3.5354">
        <ele>358</ele>
        <time>2016-01-24T09:55:51Z</time>
      </trkpt>
      <trkpt lat="43.72172" lon="3.53542">
        <ele>358</ele>
        <time>2016-01-24T09:56:03Z</time>
      </trkpt>
      <trkpt lat="43.72165" lon="3.53549">
        <ele>357.8</ele>
        <time>2016-01-24T09:56:13Z</time>
      </trkpt>
      <trkpt lat="43.72168" lon="3.53536">
        <ele>357</ele>
        <time>2016-01-24T09:56:44Z</time>
      </trkpt>
      <trkpt lat="43.72174" lon="3.53526">
        <ele>356.8</ele>
        <time>2016-01-24T09:56:56Z</time>
      </trkpt>
      <trkpt lat="43.72182" lon="3.5352">
        <ele>357.1</ele>
        <time>2016-01-24T09:57:09Z</time>
      </trkpt>
      <trkpt lat="43.72189" lon="3.53513">
        <ele>357.4</ele>
        <time>2016-01-24T09:57:16Z</time>
      </trkpt>
      <trkpt lat="43.72196" lon="3.53503">
        <ele>357.9</ele>
        <time>2016-01-24T09:57:26Z</time>
      </trkpt>
      <trkpt lat="43.72202" lon="3.53494">
        <ele>358.7</ele>
        <time>2016-01-24T09:57:34Z</time>
      </trkpt>
      <trkpt lat="43.72207" lon="3.53483">
        <ele>359.7</ele>
        <time>2016-01-24T09:57:43Z</time>
      </trkpt>
      <trkpt lat="43.72213" lon="3.53474">
        <ele>360.7</ele>
        <time>2016-01-24T09:57:51Z</time>
      </trkpt>
      <trkpt lat="43.72221" lon="3.53466">
        <ele>361.7</ele>
        <time>2016-01-24T09:58:00Z</time>
      </trkpt>
      <trkpt lat="43.72227" lon="3.53455">
        <ele>362.5</ele>
        <time>2016-01-24T09:58:10Z</time>
      </trkpt>
      <trkpt lat="43.72233" lon="3.53444">
        <ele>363.4</ele>
        <time>2016-01-24T09:58:20Z</time>
      </trkpt>
      <trkpt lat="43.72235" lon="3.53431">
        <ele>364.3</ele>
        <time>2016-01-24T09:58:30Z</time>
      </trkpt>
      <trkpt lat="43.72234" lon="3.53418">
        <ele>365.2</ele>
        <time>2016-01-24T09:58:41Z</time>
      </trkpt>
      <trkpt lat="43.72232" lon="3.53406">
        <ele>365.9</ele>
        <time>2016-01-24T09:58:52Z</time>
      </trkpt>
      <trkpt lat="43.72229" lon="3.53393">
        <ele>366.5</ele>
        <time>2016-01-24T09:59:00Z</time>
      </trkpt>
      <trkpt lat="43.72228" lon="3.53381">
        <ele>367.1</ele>
        <time>2016-01-24T09:59:09Z</time>
      </trkpt>
      <trkpt lat="43.72226" lon="3.53368">
        <ele>368.1</ele>
        <time>2016-01-24T09:59:19Z</time>
      </trkpt>
      <trkpt lat="43.72223" lon="3.53355">
        <ele>368.7</ele>
        <time>2016-01-24T09:59:28Z</time>
      </trkpt>
      <trkpt lat="43.72222" lon="3.53341">
        <ele>369.5</ele>
        <time>2016-01-24T09:59:37Z</time>
      </trkpt>
      <trkpt lat="43.72222" lon="3.53328">
        <ele>370.1</ele>
        <time>2016-01-24T09:59:46Z</time>
      </trkpt>
      <trkpt lat="43.72223" lon="3.53314">
        <ele>371.9</ele>
        <time>2016-01-24T10:00:35Z</time>
      </trkpt>
      <trkpt lat="43.72231" lon="3.53308">
        <ele>373.7</ele>
        <time>2016-01-24T10:02:34Z</time>
      </trkpt>
      <trkpt lat="43.72241" lon="3.53306">
        <ele>374.2</ele>
        <time>2016-01-24T10:02:58Z</time>
      </trkpt>
      <trkpt lat="43.7225" lon="3.53306">
        <ele>375.4</ele>
        <time>2016-01-24T10:03:11Z</time>
      </trkpt>
      <trkpt lat="43.72259" lon="3.53302">
        <ele>377.2</ele>
        <time>2016-01-24T10:03:28Z</time>
      </trkpt>
      <trkpt lat="43.72267" lon="3.53297">
        <ele>379.1</ele>
        <time>2016-01-24T10:03:45Z</time>
      </trkpt>
      <trkpt lat="43.72274" lon="3.53289">
        <ele>380.9</ele>
        <time>2016-01-24T10:03:59Z</time>
      </trkpt>
      <trkpt lat="43.72282" lon="3.53296">
        <ele>381.8</ele>
        <time>2016-01-24T10:04:09Z</time>
      </trkpt>
      <trkpt lat="43.72289" lon="3.53305">
        <ele>382.3</ele>
        <time>2016-01-24T10:04:16Z</time>
      </trkpt>
      <trkpt lat="43.72296" lon="3.53315">
        <ele>383.1</ele>
        <time>2016-01-24T10:04:25Z</time>
      </trkpt>
      <trkpt lat="43.72305" lon="3.53322">
        <ele>384</ele>
        <time>2016-01-24T10:04:33Z</time>
      </trkpt>
      <trkpt lat="43.72314" lon="3.53325">
        <ele>384.7</ele>
        <time>2016-01-24T10:04:41Z</time>
      </trkpt>
      <trkpt lat="43.72323" lon="3.53326">
        <ele>385.2</ele>
        <time>2016-01-24T10:04:48Z</time>
      </trkpt>
      <trkpt lat="43.72332" lon="3.53324">
        <ele>386.1</ele>
        <time>2016-01-24T10:04:57Z</time>
      </trkpt>
      <trkpt lat="43.72342" lon="3.53317">
        <ele>387</ele>
        <time>2016-01-24T10:05:05Z</time>
      </trkpt>
      <trkpt lat="43.7235" lon="3.53313">
        <ele>387.7</ele>
        <time>2016-01-24T10:05:15Z</time>
      </trkpt>
      <trkpt lat="43.72356" lon="3.53304">
        <ele>389.4</ele>
        <time>2016-01-24T10:05:30Z</time>
      </trkpt>
      <trkpt lat="43.72361" lon="3.53293">
        <ele>391.3</ele>
        <time>2016-01-24T10:05:41Z</time>
      </trkpt>
      <trkpt lat="43.72359" lon="3.53279">
        <ele>393.5</ele>
        <time>2016-01-24T10:05:54Z</time>
      </trkpt>
      <trkpt lat="43.72353" lon="3.53269">
        <ele>394.6</ele>
        <time>2016-01-24T10:06:03Z</time>
      </trkpt>
      <trkpt lat="43.72349" lon="3.53257">
        <ele>395.5</ele>
        <time>2016-01-24T10:06:11Z</time>
      </trkpt>
      <trkpt lat="43.72346" lon="3.53245">
        <ele>396.2</ele>
        <time>2016-01-24T10:06:19Z</time>
      </trkpt>
      <trkpt lat="43.7234" lon="3.53234">
        <ele>396.9</ele>
        <time>2016-01-24T10:06:27Z</time>
      </trkpt>
      <trkpt lat="43.72337" lon="3.53222">
        <ele>397.4</ele>
        <time>2016-01-24T10:06:34Z</time>
      </trkpt>
      <trkpt lat="43.72334" lon="3.53209">
        <ele>398.1</ele>
        <time>2016-01-24T10:06:42Z</time>
      </trkpt>
      <trkpt lat="43.72333" lon="3.53196">
        <ele>398.7</ele>
        <time>2016-01-24T10:06:51Z</time>
      </trkpt>
      <trkpt lat="43.72336" lon="3.53184">
        <ele>400.2</ele>
        <time>2016-01-24T10:07:04Z</time>
      </trkpt>
      <trkpt lat="43.72343" lon="3.53175">
        <ele>402.4</ele>
        <time>2016-01-24T10:07:19Z</time>
      </trkpt>
      <trkpt lat="43.72353" lon="3.53174">
        <ele>404.5</ele>
        <time>2016-01-24T10:07:36Z</time>
      </trkpt>
      <trkpt lat="43.72361" lon="3.53168">
        <ele>406.4</ele>
        <time>2016-01-24T10:07:49Z</time>
      </trkpt>
      <trkpt lat="43.72369" lon="3.53161">
        <ele>408.4</ele>
        <time>2016-01-24T10:08:11Z</time>
      </trkpt>
      <trkpt lat="43.72375" lon="3.53151">
        <ele>410.2</ele>
        <time>2016-01-24T10:08:25Z</time>
      </trkpt>
      <trkpt lat="43.72379" lon="3.5314">
        <ele>411.7</ele>
        <time>2016-01-24T10:08:37Z</time>
      </trkpt>
      <trkpt lat="43.72381" lon="3.53128">
        <ele>413.6</ele>
        <time>2016-01-24T10:08:54Z</time>
      </trkpt>
      <trkpt lat="43.72386" lon="3.53116">
        <ele>415.5</ele>
        <time>2016-01-24T10:09:09Z</time>
      </trkpt>
      <trkpt lat="43.72391" lon="3.53105">
        <ele>417</ele>
        <time>2016-01-24T10:09:24Z</time>
      </trkpt>
      <trkpt lat="43.72396" lon="3.53095">
        <ele>418.8</ele>
        <time>2016-01-24T10:09:40Z</time>
      </trkpt>
      <trkpt lat="43.72405" lon="3.53091">
        <ele>420.4</ele>
        <time>2016-01-24T10:09:54Z</time>
      </trkpt>
      <trkpt lat="43.72408" lon="3.53078">
        <ele>422.7</ele>
        <time>2016-01-24T10:10:15Z</time>
      </trkpt>
      <trkpt lat="43.72418" lon="3.53076">
        <ele>424.3</ele>
        <time>2016-01-24T10:10:29Z</time>
      </trkpt>
      <trkpt lat="43.72424" lon="3.53067">
        <ele>426.3</ele>
        <time>2016-01-24T10:10:45Z</time>
      </trkpt>
      <trkpt lat="43.72431" lon="3.53059">
        <ele>428</ele>
        <time>2016-01-24T10:10:59Z</time>
      </trkpt>
      <trkpt lat="43.72435" lon="3.53046">
        <ele>429.2</ele>
        <time>2016-01-24T10:11:08Z</time>
      </trkpt>
      <trkpt lat="43.72436" lon="3.53034">
        <ele>430.1</ele>
        <time>2016-01-24T10:11:16Z</time>
      </trkpt>
      <trkpt lat="43.72438" lon="3.53021">
        <ele>430.9</ele>
        <time>2016-01-24T10:11:25Z</time>
      </trkpt>
      <trkpt lat="43.72441" lon="3.53009">
        <ele>431.9</ele>
        <time>2016-01-24T10:11:35Z</time>
      </trkpt>
      <trkpt lat="43.72448" lon="3.53">
        <ele>432.8</ele>
        <time>2016-01-24T10:11:45Z</time>
      </trkpt>
      <trkpt lat="43.72457" lon="3.52996">
        <ele>435.4</ele>
        <time>2016-01-24T10:12:19Z</time>
      </trkpt>
      <trkpt lat="43.72466" lon="3.52997">
        <ele>436.7</ele>
        <time>2016-01-24T10:12:31Z</time>
      </trkpt>
      <trkpt lat="43.72474" lon="3.5299">
        <ele>438.8</ele>
        <time>2016-01-24T10:12:46Z</time>
      </trkpt>
      <trkpt lat="43.72481" lon="3.52982">
        <ele>440.7</ele>
        <time>2016-01-24T10:13:04Z</time>
      </trkpt>
      <trkpt lat="43.7249" lon="3.52976">
        <ele>443.6</ele>
        <time>2016-01-24T10:13:49Z</time>
      </trkpt>
      <trkpt lat="43.72495" lon="3.52965">
        <ele>444.7</ele>
        <time>2016-01-24T10:13:57Z</time>
      </trkpt>
      <trkpt lat="43.72497" lon="3.52952">
        <ele>445.5</ele>
        <time>2016-01-24T10:14:07Z</time>
      </trkpt>
      <trkpt lat="43.725" lon="3.52938">
        <ele>446.3</ele>
        <time>2016-01-24T10:14:16Z</time>
      </trkpt>
      <trkpt lat="43.72504" lon="3.52926">
        <ele>447.5</ele>
        <time>2016-01-24T10:14:32Z</time>
      </trkpt>
      <trkpt lat="43.72506" lon="3.52912">
        <ele>448.2</ele>
        <time>2016-01-24T10:14:42Z</time>
      </trkpt>
      <trkpt lat="43.72508" lon="3.52899">
        <ele>448.8</ele>
        <time>2016-01-24T10:14:51Z</time>
      </trkpt>
      <trkpt lat="43.72509" lon="3.52886">
        <ele>449.6</ele>
        <time>2016-01-24T10:15:00Z</time>
      </trkpt>
      <trkpt lat="43.72511" lon="3.52873">
        <ele>450.5</ele>
        <time>2016-01-24T10:15:09Z</time>
      </trkpt>
      <trkpt lat="43.72512" lon="3.5286">
        <ele>451.4</ele>
        <time>2016-01-24T10:15:17Z</time>
      </trkpt>
      <trkpt lat="43.72514" lon="3.52847">
        <ele>452.3</ele>
        <time>2016-01-24T10:15:26Z</time>
      </trkpt>
      <trkpt lat="43.72515" lon="3.52834">
        <ele>453.1</ele>
        <time>2016-01-24T10:15:35Z</time>
      </trkpt>
      <trkpt lat="43.72517" lon="3.52821">
        <ele>453.8</ele>
        <time>2016-01-24T10:15:44Z</time>
      </trkpt>
      <trkpt lat="43.72519" lon="3.52809">
        <ele>454.5</ele>
        <time>2016-01-24T10:15:53Z</time>
      </trkpt>
      <trkpt lat="43.72522" lon="3.52796">
        <ele>455.3</ele>
        <time>2016-01-24T10:16:02Z</time>
      </trkpt>
      <trkpt lat="43.72528" lon="3.52785">
        <ele>456.1</ele>
        <time>2016-01-24T10:16:11Z</time>
      </trkpt>
      <trkpt lat="43.72532" lon="3.52773">
        <ele>456.9</ele>
        <time>2016-01-24T10:16:20Z</time>
      </trkpt>
      <trkpt lat="43.72537" lon="3.52762">
        <ele>457.8</ele>
        <time>2016-01-24T10:16:30Z</time>
      </trkpt>
      <trkpt lat="43.72542" lon="3.52752">
        <ele>459.6</ele>
        <time>2016-01-24T10:16:45Z</time>
      </trkpt>
      <trkpt lat="43.72549" lon="3.52744">
        <ele>462.3</ele>
        <time>2016-01-24T10:17:00Z</time>
      </trkpt>
      <trkpt lat="43.72558" lon="3.52742">
        <ele>464.9</ele>
        <time>2016-01-24T10:17:15Z</time>
      </trkpt>
      <trkpt lat="43.72566" lon="3.52735">
        <ele>468</ele>
        <time>2016-01-24T10:17:31Z</time>
      </trkpt>
      <trkpt lat="43.72572" lon="3.52725">
        <ele>470.6</ele>
        <time>2016-01-24T10:17:45Z</time>
      </trkpt>
      <trkpt lat="43.72578" lon="3.52715">
        <ele>473.4</ele>
        <time>2016-01-24T10:18:03Z</time>
      </trkpt>
      <trkpt lat="43.72587" lon="3.52709">
        <ele>477</ele>
        <time>2016-01-24T10:18:26Z</time>
      </trkpt>
      <trkpt lat="43.72589" lon="3.52697">
        <ele>480.3</ele>
        <time>2016-01-24T10:18:49Z</time>
      </trkpt>
      <trkpt lat="43.72588" lon="3.52684">
        <ele>481.5</ele>
        <time>2016-01-24T10:18:59Z</time>
      </trkpt>
      <trkpt lat="43.72592" lon="3.52672">
        <ele>483.1</ele>
        <time>2016-01-24T10:19:11Z</time>
      </trkpt>
      <trkpt lat="43.72595" lon="3.52659">
        <ele>484.7</ele>
        <time>2016-01-24T10:19:24Z</time>
      </trkpt>
      <trkpt lat="43.72602" lon="3.52652">
        <ele>486.6</ele>
        <time>2016-01-24T10:19:38Z</time>
      </trkpt>
      <trkpt lat="43.72607" lon="3.52641">
        <ele>488.2</ele>
        <time>2016-01-24T10:19:51Z</time>
      </trkpt>
      <trkpt lat="43.72612" lon="3.5263">
        <ele>490.1</ele>
        <time>2016-01-24T10:20:08Z</time>
      </trkpt>
      <trkpt lat="43.72617" lon="3.52619">
        <ele>492.1</ele>
        <time>2016-01-24T10:20:26Z</time>
      </trkpt>
      <trkpt lat="43.72626" lon="3.52623">
        <ele>493.9</ele>
        <time>2016-01-24T10:20:41Z</time>
      </trkpt>
      <trkpt lat="43.72636" lon="3.52624">
        <ele>495.7</ele>
        <time>2016-01-24T10:20:54Z</time>
      </trkpt>
      <trkpt lat="43.72645" lon="3.52622">
        <ele>497.8</ele>
        <time>2016-01-24T10:21:08Z</time>
      </trkpt>
      <trkpt lat="43.72654" lon="3.52622">
        <ele>499.7</ele>
        <time>2016-01-24T10:21:20Z</time>
      </trkpt>
      <trkpt lat="43.72663" lon="3.52619">
        <ele>501.4</ele>
        <time>2016-01-24T10:21:31Z</time>
      </trkpt>
      <trkpt lat="43.7267" lon="3.52609">
        <ele>503.3</ele>
        <time>2016-01-24T10:21:42Z</time>
      </trkpt>
      <trkpt lat="43.72674" lon="3.52597">
        <ele>506</ele>
        <time>2016-01-24T10:22:11Z</time>
      </trkpt>
      <trkpt lat="43.7268" lon="3.52587">
        <ele>506.2</ele>
        <time>2016-01-24T10:22:18Z</time>
      </trkpt>
      <trkpt lat="43.72684" lon="3.52576">
        <ele>506.3</ele>
        <time>2016-01-24T10:22:27Z</time>
      </trkpt>
      <trkpt lat="43.72691" lon="3.52567">
        <ele>506.8</ele>
        <time>2016-01-24T10:22:39Z</time>
      </trkpt>
      <trkpt lat="43.72696" lon="3.52557">
        <ele>507.5</ele>
        <time>2016-01-24T10:22:51Z</time>
      </trkpt>
      <trkpt lat="43.727" lon="3.52545">
        <ele>508.4</ele>
        <time>2016-01-24T10:23:03Z</time>
      </trkpt>
      <trkpt lat="43.727" lon="3.52532">
        <ele>509</ele>
        <time>2016-01-24T10:23:13Z</time>
      </trkpt>
      <trkpt lat="43.72705" lon="3.52521">
        <ele>509.3</ele>
        <time>2016-01-24T10:23:23Z</time>
      </trkpt>
      <trkpt lat="43.72713" lon="3.52512">
        <ele>509.5</ele>
        <time>2016-01-24T10:23:33Z</time>
      </trkpt>
      <trkpt lat="43.7272" lon="3.52505">
        <ele>509.4</ele>
        <time>2016-01-24T10:23:41Z</time>
      </trkpt>
      <trkpt lat="43.72726" lon="3.52495">
        <ele>509.1</ele>
        <time>2016-01-24T10:23:52Z</time>
      </trkpt>
      <trkpt lat="43.72733" lon="3.52485">
        <ele>508.4</ele>
        <time>2016-01-24T10:24:04Z</time>
      </trkpt>
      <trkpt lat="43.72738" lon="3.52475">
        <ele>507.8</ele>
        <time>2016-01-24T10:24:13Z</time>
      </trkpt>
      <trkpt lat="43.72744" lon="3.52464">
        <ele>507.4</ele>
        <time>2016-01-24T10:24:25Z</time>
      </trkpt>
      <trkpt lat="43.72751" lon="3.52455">
        <ele>506.8</ele>
        <time>2016-01-24T10:24:39Z</time>
      </trkpt>
      <trkpt lat="43.72757" lon="3.52446">
        <ele>505.8</ele>
        <time>2016-01-24T10:24:55Z</time>
      </trkpt>
      <trkpt lat="43.72763" lon="3.52436">
        <ele>504.5</ele>
        <time>2016-01-24T10:25:28Z</time>
      </trkpt>
      <trkpt lat="43.72767" lon="3.52425">
        <ele>504.1</ele>
        <time>2016-01-24T10:25:37Z</time>
      </trkpt>
      <trkpt lat="43.72772" lon="3.52414">
        <ele>503.1</ele>
        <time>2016-01-24T10:25:48Z</time>
      </trkpt>
      <trkpt lat="43.72774" lon="3.52402">
        <ele>501.3</ele>
        <time>2016-01-24T10:26:04Z</time>
      </trkpt>
      <trkpt lat="43.72778" lon="3.52389">
        <ele>498.2</ele>
        <time>2016-01-24T10:26:29Z</time>
      </trkpt>
      <trkpt lat="43.72781" lon="3.52378">
        <ele>497.1</ele>
        <time>2016-01-24T10:26:41Z</time>
      </trkpt>
      <trkpt lat="43.72787" lon="3.52367">
        <ele>495.9</ele>
        <time>2016-01-24T10:26:53Z</time>
      </trkpt>
      <trkpt lat="43.72788" lon="3.52354">
        <ele>494.7</ele>
        <time>2016-01-24T10:27:02Z</time>
      </trkpt>
      <trkpt lat="43.7279" lon="3.52341">
        <ele>493.9</ele>
        <time>2016-01-24T10:27:11Z</time>
      </trkpt>
      <trkpt lat="43.72794" lon="3.52328">
        <ele>493.5</ele>
        <time>2016-01-24T10:27:21Z</time>
      </trkpt>
      <trkpt lat="43.72799" lon="3.52318">
        <ele>493.4</ele>
        <time>2016-01-24T10:27:44Z</time>
      </trkpt>
      <trkpt lat="43.72807" lon="3.52312">
        <ele>491.7</ele>
        <time>2016-01-24T10:32:07Z</time>
      </trkpt>
      <trkpt lat="43.72813" lon="3.52302">
        <ele>491.7</ele>
        <time>2016-01-24T10:32:51Z</time>
      </trkpt>
      <trkpt lat="43.72819" lon="3.52294">
        <ele>491.9</ele>
        <time>2016-01-24T10:33:01Z</time>
      </trkpt>
      <trkpt lat="43.72826" lon="3.52284">
        <ele>492.1</ele>
        <time>2016-01-24T10:33:10Z</time>
      </trkpt>
      <trkpt lat="43.72834" lon="3.52276">
        <ele>492.2</ele>
        <time>2016-01-24T10:33:20Z</time>
      </trkpt>
      <trkpt lat="43.72842" lon="3.52267">
        <ele>492</ele>
        <time>2016-01-24T10:33:29Z</time>
      </trkpt>
      <trkpt lat="43.7285" lon="3.5226">
        <ele>491.9</ele>
        <time>2016-01-24T10:33:39Z</time>
      </trkpt>
      <trkpt lat="43.72858" lon="3.52254">
        <ele>491.9</ele>
        <time>2016-01-24T10:33:48Z</time>
      </trkpt>
      <trkpt lat="43.72866" lon="3.52246">
        <ele>491.8</ele>
        <time>2016-01-24T10:33:56Z</time>
      </trkpt>
      <trkpt lat="43.72874" lon="3.5224">
        <ele>491.7</ele>
        <time>2016-01-24T10:34:05Z</time>
      </trkpt>
      <trkpt lat="43.72884" lon="3.52237">
        <ele>491.6</ele>
        <time>2016-01-24T10:34:14Z</time>
      </trkpt>
      <trkpt lat="43.72893" lon="3.52233">
        <ele>491.3</ele>
        <time>2016-01-24T10:34:22Z</time>
      </trkpt>
      <trkpt lat="43.72902" lon="3.52233">
        <ele>490.8</ele>
        <time>2016-01-24T10:34:30Z</time>
      </trkpt>
      <trkpt lat="43.7291" lon="3.52238">
        <ele>490.3</ele>
        <time>2016-01-24T10:34:40Z</time>
      </trkpt>
      <trkpt lat="43.72906" lon="3.52249">
        <ele>489.8</ele>
        <time>2016-01-24T10:34:52Z</time>
      </trkpt>
      <trkpt lat="43.72901" lon="3.52261">
        <ele>489.7</ele>
        <time>2016-01-24T10:35:01Z</time>
      </trkpt>
      <trkpt lat="43.72898" lon="3.52274">
        <ele>489.7</ele>
        <time>2016-01-24T10:35:10Z</time>
      </trkpt>
      <trkpt lat="43.72895" lon="3.52287">
        <ele>489.7</ele>
        <time>2016-01-24T10:35:18Z</time>
      </trkpt>
      <trkpt lat="43.72892" lon="3.52299">
        <ele>489.8</ele>
        <time>2016-01-24T10:35:26Z</time>
      </trkpt>
      <trkpt lat="43.72889" lon="3.52311">
        <ele>490</ele>
        <time>2016-01-24T10:35:33Z</time>
      </trkpt>
      <trkpt lat="43.72884" lon="3.52322">
        <ele>490.2</ele>
        <time>2016-01-24T10:35:41Z</time>
      </trkpt>
      <trkpt lat="43.7288" lon="3.52334">
        <ele>490.7</ele>
        <time>2016-01-24T10:35:49Z</time>
      </trkpt>
      <trkpt lat="43.7288" lon="3.52348">
        <ele>491.1</ele>
        <time>2016-01-24T10:35:58Z</time>
      </trkpt>
      <trkpt lat="43.72881" lon="3.52361">
        <ele>491.3</ele>
        <time>2016-01-24T10:36:05Z</time>
      </trkpt>
      <trkpt lat="43.72883" lon="3.52374">
        <ele>491.7</ele>
        <time>2016-01-24T10:36:13Z</time>
      </trkpt>
      <trkpt lat="43.72891" lon="3.52381">
        <ele>492.4</ele>
        <time>2016-01-24T10:36:23Z</time>
      </trkpt>
      <trkpt lat="43.729" lon="3.5238">
        <ele>493</ele>
        <time>2016-01-24T10:36:31Z</time>
      </trkpt>
      <trkpt lat="43.7291" lon="3.52379">
        <ele>493.6</ele>
        <time>2016-01-24T10:36:39Z</time>
      </trkpt>
      <trkpt lat="43.72919" lon="3.52376">
        <ele>494.4</ele>
        <time>2016-01-24T10:36:48Z</time>
      </trkpt>
      <trkpt lat="43.72928" lon="3.52376">
        <ele>494.9</ele>
        <time>2016-01-24T10:36:57Z</time>
      </trkpt>
      <trkpt lat="43.72937" lon="3.52382">
        <ele>495.2</ele>
        <time>2016-01-24T10:37:06Z</time>
      </trkpt>
      <trkpt lat="43.72946" lon="3.52384">
        <ele>495.6</ele>
        <time>2016-01-24T10:37:16Z</time>
      </trkpt>
      <trkpt lat="43.72956" lon="3.52385">
        <ele>496</ele>
        <time>2016-01-24T10:37:25Z</time>
      </trkpt>
      <trkpt lat="43.72967" lon="3.52386">
        <ele>496.4</ele>
        <time>2016-01-24T10:37:35Z</time>
      </trkpt>
      <trkpt lat="43.72975" lon="3.52392">
        <ele>496.6</ele>
        <time>2016-01-24T10:37:43Z</time>
      </trkpt>
      <trkpt lat="43.72976" lon="3.52405">
        <ele>496.8</ele>
        <time>2016-01-24T10:37:55Z</time>
      </trkpt>
      <trkpt lat="43.72968" lon="3.52413">
        <ele>497.1</ele>
        <time>2016-01-24T10:38:03Z</time>
      </trkpt>
      <trkpt lat="43.72962" lon="3.52422">
        <ele>497.3</ele>
        <time>2016-01-24T10:38:10Z</time>
      </trkpt>
      <trkpt lat="43.72954" lon="3.5243">
        <ele>497.4</ele>
        <time>2016-01-24T10:38:17Z</time>
      </trkpt>
      <trkpt lat="43.72948" lon="3.5244">
        <ele>497.5</ele>
        <time>2016-01-24T10:38:25Z</time>
      </trkpt>
      <trkpt lat="43.72943" lon="3.52451">
        <ele>497.8</ele>
        <time>2016-01-24T10:38:34Z</time>
      </trkpt>
      <trkpt lat="43.72943" lon="3.52464">
        <ele>498.2</ele>
        <time>2016-01-24T10:38:43Z</time>
      </trkpt>
      <trkpt lat="43.72944" lon="3.52477">
        <ele>498.8</ele>
        <time>2016-01-24T10:38:52Z</time>
      </trkpt>
      <trkpt lat="43.72942" lon="3.52489">
        <ele>499.4</ele>
        <time>2016-01-24T10:39:00Z</time>
      </trkpt>
      <trkpt lat="43.72942" lon="3.52503">
        <ele>500.1</ele>
        <time>2016-01-24T10:39:10Z</time>
      </trkpt>
      <trkpt lat="43.72941" lon="3.52515">
        <ele>501.2</ele>
        <time>2016-01-24T10:39:20Z</time>
      </trkpt>
      <trkpt lat="43.72939" lon="3.52528">
        <ele>502.1</ele>
        <time>2016-01-24T10:39:29Z</time>
      </trkpt>
      <trkpt lat="43.72937" lon="3.52541">
        <ele>502.8</ele>
        <time>2016-01-24T10:39:39Z</time>
      </trkpt>
      <trkpt lat="43.72935" lon="3.52553">
        <ele>503.7</ele>
        <time>2016-01-24T10:39:48Z</time>
      </trkpt>
      <trkpt lat="43.72938" lon="3.52565">
        <ele>504.8</ele>
        <time>2016-01-24T10:39:59Z</time>
      </trkpt>
      <trkpt lat="43.72943" lon="3.52576">
        <ele>506.2</ele>
        <time>2016-01-24T10:40:11Z</time>
      </trkpt>
      <trkpt lat="43.72951" lon="3.52584">
        <ele>507.6</ele>
        <time>2016-01-24T10:40:22Z</time>
      </trkpt>
      <trkpt lat="43.72959" lon="3.52588">
        <ele>508.5</ele>
        <time>2016-01-24T10:40:31Z</time>
      </trkpt>
      <trkpt lat="43.72969" lon="3.52589">
        <ele>509.2</ele>
        <time>2016-01-24T10:40:41Z</time>
      </trkpt>
      <trkpt lat="43.72978" lon="3.52585">
        <ele>509.9</ele>
        <time>2016-01-24T10:40:50Z</time>
      </trkpt>
      <trkpt lat="43.72987" lon="3.52586">
        <ele>510.4</ele>
        <time>2016-01-24T10:40:58Z</time>
      </trkpt>
      <trkpt lat="43.72997" lon="3.52586">
        <ele>511.3</ele>
        <time>2016-01-24T10:41:09Z</time>
      </trkpt>
      <trkpt lat="43.73007" lon="3.52583">
        <ele>512.1</ele>
        <time>2016-01-24T10:41:18Z</time>
      </trkpt>
      <trkpt lat="43.73017" lon="3.52581">
        <ele>512.8</ele>
        <time>2016-01-24T10:41:27Z</time>
      </trkpt>
      <trkpt lat="43.73026" lon="3.5258">
        <ele>513.6</ele>
        <time>2016-01-24T10:41:38Z</time>
      </trkpt>
      <trkpt lat="43.73035" lon="3.5258">
        <ele>514.3</ele>
        <time>2016-01-24T10:41:47Z</time>
      </trkpt>
      <trkpt lat="43.73044" lon="3.52582">
        <ele>515.2</ele>
        <time>2016-01-24T10:41:56Z</time>
      </trkpt>
      <trkpt lat="43.73054" lon="3.52584">
        <ele>516.5</ele>
        <time>2016-01-24T10:42:08Z</time>
      </trkpt>
      <trkpt lat="43.73063" lon="3.52588">
        <ele>517.6</ele>
        <time>2016-01-24T10:42:18Z</time>
      </trkpt>
      <trkpt lat="43.73072" lon="3.5259">
        <ele>518.5</ele>
        <time>2016-01-24T10:42:29Z</time>
      </trkpt>
      <trkpt lat="43.7308" lon="3.52595">
        <ele>519.4</ele>
        <time>2016-01-24T10:42:39Z</time>
      </trkpt>
      <trkpt lat="43.73088" lon="3.52603">
        <ele>520.2</ele>
        <time>2016-01-24T10:42:49Z</time>
      </trkpt>
      <trkpt lat="43.73095" lon="3.52613">
        <ele>520.7</ele>
        <time>2016-01-24T10:42:57Z</time>
      </trkpt>
      <trkpt lat="43.73101" lon="3.52624">
        <ele>522</ele>
        <time>2016-01-24T10:43:08Z</time>
      </trkpt>
      <trkpt lat="43.73107" lon="3.52634">
        <ele>523.1</ele>
        <time>2016-01-24T10:43:18Z</time>
      </trkpt>
      <trkpt lat="43.73116" lon="3.5264">
        <ele>524.1</ele>
        <time>2016-01-24T10:43:29Z</time>
      </trkpt>
      <trkpt lat="43.73124" lon="3.52647">
        <ele>524.9</ele>
        <time>2016-01-24T10:43:40Z</time>
      </trkpt>
      <trkpt lat="43.73132" lon="3.52653">
        <ele>526.1</ele>
        <time>2016-01-24T10:43:50Z</time>
      </trkpt>
      <trkpt lat="43.7314" lon="3.5266">
        <ele>527</ele>
        <time>2016-01-24T10:43:59Z</time>
      </trkpt>
      <trkpt lat="43.73149" lon="3.52664">
        <ele>528</ele>
        <time>2016-01-24T10:44:09Z</time>
      </trkpt>
      <trkpt lat="43.73158" lon="3.52667">
        <ele>528.8</ele>
        <time>2016-01-24T10:44:20Z</time>
      </trkpt>
      <trkpt lat="43.73167" lon="3.52672">
        <ele>529.7</ele>
        <time>2016-01-24T10:44:31Z</time>
      </trkpt>
      <trkpt lat="43.73176" lon="3.52678">
        <ele>530.7</ele>
        <time>2016-01-24T10:44:40Z</time>
      </trkpt>
      <trkpt lat="43.73185" lon="3.52683">
        <ele>531.4</ele>
        <time>2016-01-24T10:44:49Z</time>
      </trkpt>
      <trkpt lat="43.73194" lon="3.52688">
        <ele>532.3</ele>
        <time>2016-01-24T10:44:59Z</time>
      </trkpt>
      <trkpt lat="43.73202" lon="3.52693">
        <ele>533.2</ele>
        <time>2016-01-24T10:45:08Z</time>
      </trkpt>
      <trkpt lat="43.7321" lon="3.52699">
        <ele>534</ele>
        <time>2016-01-24T10:45:17Z</time>
      </trkpt>
      <trkpt lat="43.73219" lon="3.52706">
        <ele>534.8</ele>
        <time>2016-01-24T10:45:28Z</time>
      </trkpt>
      <trkpt lat="43.73227" lon="3.52711">
        <ele>535.5</ele>
        <time>2016-01-24T10:45:37Z</time>
      </trkpt>
      <trkpt lat="43.73235" lon="3.52716">
        <ele>536.5</ele>
        <time>2016-01-24T10:45:47Z</time>
      </trkpt>
      <trkpt lat="43.73243" lon="3.52723">
        <ele>537.4</ele>
        <time>2016-01-24T10:45:59Z</time>
      </trkpt>
      <trkpt lat="43.73254" lon="3.52727">
        <ele>538.6</ele>
        <time>2016-01-24T10:46:46Z</time>
      </trkpt>
      <trkpt lat="43.73263" lon="3.52724">
        <ele>538.7</ele>
        <time>2016-01-24T10:46:55Z</time>
      </trkpt>
      <trkpt lat="43.73272" lon="3.5273">
        <ele>538.7</ele>
        <time>2016-01-24T10:47:05Z</time>
      </trkpt>
      <trkpt lat="43.73282" lon="3.52731">
        <ele>538.6</ele>
        <time>2016-01-24T10:47:16Z</time>
      </trkpt>
      <trkpt lat="43.73291" lon="3.52728">
        <ele>538.3</ele>
        <time>2016-01-24T10:47:28Z</time>
      </trkpt>
      <trkpt lat="43.733" lon="3.52728">
        <ele>537.8</ele>
        <time>2016-01-24T10:47:37Z</time>
      </trkpt>
      <trkpt lat="43.7331" lon="3.52733">
        <ele>536.9</ele>
        <time>2016-01-24T10:47:47Z</time>
      </trkpt>
      <trkpt lat="43.73319" lon="3.52738">
        <ele>535.9</ele>
        <time>2016-01-24T10:47:57Z</time>
      </trkpt>
      <trkpt lat="43.73329" lon="3.52742">
        <ele>534.9</ele>
        <time>2016-01-24T10:48:07Z</time>
      </trkpt>
      <trkpt lat="43.73338" lon="3.52745">
        <ele>534.2</ele>
        <time>2016-01-24T10:48:16Z</time>
      </trkpt>
      <trkpt lat="43.73347" lon="3.52749">
        <ele>533.5</ele>
        <time>2016-01-24T10:48:25Z</time>
      </trkpt>
      <trkpt lat="43.73355" lon="3.52754">
        <ele>533</ele>
        <time>2016-01-24T10:48:34Z</time>
      </trkpt>
      <trkpt lat="43.73364" lon="3.52759">
        <ele>532.8</ele>
        <time>2016-01-24T10:48:43Z</time>
      </trkpt>
      <trkpt lat="43.73374" lon="3.52763">
        <ele>532.5</ele>
        <time>2016-01-24T10:48:53Z</time>
      </trkpt>
      <trkpt lat="43.73382" lon="3.52768">
        <ele>532.5</ele>
        <time>2016-01-24T10:49:02Z</time>
      </trkpt>
      <trkpt lat="43.73391" lon="3.52771">
        <ele>532.6</ele>
        <time>2016-01-24T10:49:10Z</time>
      </trkpt>
      <trkpt lat="43.73401" lon="3.52774">
        <ele>532.9</ele>
        <time>2016-01-24T10:49:19Z</time>
      </trkpt>
      <trkpt lat="43.7341" lon="3.52775">
        <ele>533.2</ele>
        <time>2016-01-24T10:49:27Z</time>
      </trkpt>
      <trkpt lat="43.73419" lon="3.52778">
        <ele>533.5</ele>
        <time>2016-01-24T10:49:35Z</time>
      </trkpt>
      <trkpt lat="43.73428" lon="3.52783">
        <ele>533.9</ele>
        <time>2016-01-24T10:49:43Z</time>
      </trkpt>
      <trkpt lat="43.73437" lon="3.52788">
        <ele>534.5</ele>
        <time>2016-01-24T10:49:54Z</time>
      </trkpt>
      <trkpt lat="43.73446" lon="3.52791">
        <ele>534.8</ele>
        <time>2016-01-24T10:50:03Z</time>
      </trkpt>
      <trkpt lat="43.73455" lon="3.52796">
        <ele>535.3</ele>
        <time>2016-01-24T10:50:13Z</time>
      </trkpt>
      <trkpt lat="43.73464" lon="3.52798">
        <ele>535.7</ele>
        <time>2016-01-24T10:50:22Z</time>
      </trkpt>
      <trkpt lat="43.73473" lon="3.528">
        <ele>536.1</ele>
        <time>2016-01-24T10:50:31Z</time>
      </trkpt>
      <trkpt lat="43.73482" lon="3.52802">
        <ele>536.4</ele>
        <time>2016-01-24T10:50:39Z</time>
      </trkpt>
      <trkpt lat="43.73492" lon="3.52806">
        <ele>536.7</ele>
        <time>2016-01-24T10:50:48Z</time>
      </trkpt>
      <trkpt lat="43.73501" lon="3.5281">
        <ele>536.7</ele>
        <time>2016-01-24T10:50:57Z</time>
      </trkpt>
      <trkpt lat="43.7351" lon="3.52814">
        <ele>536.7</ele>
        <time>2016-01-24T10:51:07Z</time>
      </trkpt>
      <trkpt lat="43.73515" lon="3.52825">
        <ele>536.5</ele>
        <time>2016-01-24T10:51:20Z</time>
      </trkpt>
      <trkpt lat="43.73517" lon="3.52838">
        <ele>535.8</ele>
        <time>2016-01-24T10:51:31Z</time>
      </trkpt>
      <trkpt lat="43.73514" lon="3.5285">
        <ele>534.8</ele>
        <time>2016-01-24T10:51:44Z</time>
      </trkpt>
      <trkpt lat="43.73514" lon="3.52863">
        <ele>533.2</ele>
        <time>2016-01-24T10:51:55Z</time>
      </trkpt>
      <trkpt lat="43.73514" lon="3.52876">
        <ele>530.7</ele>
        <time>2016-01-24T10:52:11Z</time>
      </trkpt>
      <trkpt lat="43.73506" lon="3.52882">
        <ele>526.5</ele>
        <time>2016-01-24T10:54:49Z</time>
      </trkpt>
      <trkpt lat="43.73496" lon="3.52885">
        <ele>526.3</ele>
        <time>2016-01-24T10:55:01Z</time>
      </trkpt>
      <trkpt lat="43.73487" lon="3.52889">
        <ele>526</ele>
        <time>2016-01-24T10:55:09Z</time>
      </trkpt>
      <trkpt lat="43.73479" lon="3.52895">
        <ele>525.6</ele>
        <time>2016-01-24T10:55:17Z</time>
      </trkpt>
      <trkpt lat="43.73473" lon="3.52905">
        <ele>524.9</ele>
        <time>2016-01-24T10:55:26Z</time>
      </trkpt>
      <trkpt lat="43.73466" lon="3.52913">
        <ele>523.8</ele>
        <time>2016-01-24T10:55:35Z</time>
      </trkpt>
      <trkpt lat="43.73459" lon="3.52923">
        <ele>522.4</ele>
        <time>2016-01-24T10:55:46Z</time>
      </trkpt>
      <trkpt lat="43.73454" lon="3.52932">
        <ele>521.3</ele>
        <time>2016-01-24T10:55:54Z</time>
      </trkpt>
      <trkpt lat="43.73446" lon="3.52939">
        <ele>520.1</ele>
        <time>2016-01-24T10:56:03Z</time>
      </trkpt>
      <trkpt lat="43.73439" lon="3.52948">
        <ele>518.6</ele>
        <time>2016-01-24T10:56:17Z</time>
      </trkpt>
      <trkpt lat="43.73431" lon="3.52955">
        <ele>517.9</ele>
        <time>2016-01-24T10:56:27Z</time>
      </trkpt>
      <trkpt lat="43.73426" lon="3.52966">
        <ele>516.1</ele>
        <time>2016-01-24T10:56:42Z</time>
      </trkpt>
      <trkpt lat="43.73426" lon="3.5298">
        <ele>514.4</ele>
        <time>2016-01-24T10:56:54Z</time>
      </trkpt>
      <trkpt lat="43.73425" lon="3.52994">
        <ele>512.8</ele>
        <time>2016-01-24T10:57:04Z</time>
      </trkpt>
      <trkpt lat="43.73429" lon="3.53006">
        <ele>511.5</ele>
        <time>2016-01-24T10:57:14Z</time>
      </trkpt>
      <trkpt lat="43.73436" lon="3.53015">
        <ele>511.2</ele>
        <time>2016-01-24T10:57:33Z</time>
      </trkpt>
      <trkpt lat="43.73431" lon="3.53004">
        <ele>514</ele>
        <time>2016-01-24T11:57:43Z</time>
      </trkpt>
      <trkpt lat="43.73434" lon="3.52991">
        <ele>514</ele>
        <time>2016-01-24T11:57:52Z</time>
      </trkpt>
      <trkpt lat="43.73433" lon="3.52977">
        <ele>514.4</ele>
        <time>2016-01-24T11:58:00Z</time>
      </trkpt>
      <trkpt lat="43.73433" lon="3.52965">
        <ele>515.3</ele>
        <time>2016-01-24T11:58:09Z</time>
      </trkpt>
      <trkpt lat="43.73436" lon="3.52952">
        <ele>516.6</ele>
        <time>2016-01-24T11:58:18Z</time>
      </trkpt>
      <trkpt lat="43.73442" lon="3.52942">
        <ele>519.5</ele>
        <time>2016-01-24T11:58:42Z</time>
      </trkpt>
      <trkpt lat="43.7345" lon="3.52936">
        <ele>520.3</ele>
        <time>2016-01-24T11:58:51Z</time>
      </trkpt>
      <trkpt lat="43.73457" lon="3.52928">
        <ele>520.8</ele>
        <time>2016-01-24T11:59:01Z</time>
      </trkpt>
      <trkpt lat="43.73463" lon="3.52919">
        <ele>521.6</ele>
        <time>2016-01-24T11:59:11Z</time>
      </trkpt>
      <trkpt lat="43.73469" lon="3.52909">
        <ele>523</ele>
        <time>2016-01-24T11:59:24Z</time>
      </trkpt>
      <trkpt lat="43.73475" lon="3.529">
        <ele>524.1</ele>
        <time>2016-01-24T11:59:34Z</time>
      </trkpt>
      <trkpt lat="43.73484" lon="3.52892">
        <ele>525.3</ele>
        <time>2016-01-24T11:59:43Z</time>
      </trkpt>
      <trkpt lat="43.73492" lon="3.52886">
        <ele>526.4</ele>
        <time>2016-01-24T11:59:54Z</time>
      </trkpt>
      <trkpt lat="43.73501" lon="3.52882">
        <ele>527.4</ele>
        <time>2016-01-24T12:00:06Z</time>
      </trkpt>
      <trkpt lat="43.7351" lon="3.52884">
        <ele>528.4</ele>
        <time>2016-01-24T12:00:19Z</time>
      </trkpt>
      <trkpt lat="43.73518" lon="3.52877">
        <ele>530.1</ele>
        <time>2016-01-24T12:01:27Z</time>
      </trkpt>
      <trkpt lat="43.73516" lon="3.52858">
        <ele>532.7</ele>
        <time>2016-01-24T12:01:50Z</time>
      </trkpt>
      <trkpt lat="43.73514" lon="3.52845">
        <ele>534.7</ele>
        <time>2016-01-24T12:02:03Z</time>
      </trkpt>
      <trkpt lat="43.73513" lon="3.52832">
        <ele>536.6</ele>
        <time>2016-01-24T12:02:16Z</time>
      </trkpt>
      <trkpt lat="43.73512" lon="3.52819">
        <ele>537.6</ele>
        <time>2016-01-24T12:02:25Z</time>
      </trkpt>
      <trkpt lat="43.73506" lon="3.5281">
        <ele>538.7</ele>
        <time>2016-01-24T12:02:36Z</time>
      </trkpt>
      <trkpt lat="43.73497" lon="3.52808">
        <ele>539.3</ele>
        <time>2016-01-24T12:02:44Z</time>
      </trkpt>
      <trkpt lat="43.73488" lon="3.52806">
        <ele>539.9</ele>
        <time>2016-01-24T12:02:52Z</time>
      </trkpt>
      <trkpt lat="43.73479" lon="3.528">
        <ele>540.4</ele>
        <time>2016-01-24T12:03:01Z</time>
      </trkpt>
      <trkpt lat="43.7347" lon="3.52793">
        <ele>540.7</ele>
        <time>2016-01-24T12:03:11Z</time>
      </trkpt>
      <trkpt lat="43.7346" lon="3.52792">
        <ele>540.9</ele>
        <time>2016-01-24T12:03:20Z</time>
      </trkpt>
      <trkpt lat="43.73451" lon="3.52789">
        <ele>541</ele>
        <time>2016-01-24T12:03:28Z</time>
      </trkpt>
      <trkpt lat="43.73441" lon="3.52785">
        <ele>540.9</ele>
        <time>2016-01-24T12:03:37Z</time>
      </trkpt>
      <trkpt lat="43.73431" lon="3.52781">
        <ele>540.6</ele>
        <time>2016-01-24T12:03:46Z</time>
      </trkpt>
      <trkpt lat="43.73423" lon="3.52777">
        <ele>540.2</ele>
        <time>2016-01-24T12:03:54Z</time>
      </trkpt>
      <trkpt lat="43.73414" lon="3.52773">
        <ele>539.8</ele>
        <time>2016-01-24T12:04:02Z</time>
      </trkpt>
      <trkpt lat="43.73405" lon="3.52772">
        <ele>539.2</ele>
        <time>2016-01-24T12:04:11Z</time>
      </trkpt>
      <trkpt lat="43.73396" lon="3.5277">
        <ele>538.9</ele>
        <time>2016-01-24T12:04:19Z</time>
      </trkpt>
      <trkpt lat="43.73386" lon="3.52767">
        <ele>538.4</ele>
        <time>2016-01-24T12:04:27Z</time>
      </trkpt>
      <trkpt lat="43.73377" lon="3.52763">
        <ele>538.2</ele>
        <time>2016-01-24T12:04:35Z</time>
      </trkpt>
      <trkpt lat="43.73369" lon="3.52759">
        <ele>538</ele>
        <time>2016-01-24T12:04:44Z</time>
      </trkpt>
      <trkpt lat="43.7336" lon="3.52753">
        <ele>537.5</ele>
        <time>2016-01-24T12:04:53Z</time>
      </trkpt>
      <trkpt lat="43.73351" lon="3.52751">
        <ele>537</ele>
        <time>2016-01-24T12:05:02Z</time>
      </trkpt>
      <trkpt lat="43.73341" lon="3.52747">
        <ele>536.5</ele>
        <time>2016-01-24T12:05:10Z</time>
      </trkpt>
      <trkpt lat="43.73333" lon="3.52743">
        <ele>536.2</ele>
        <time>2016-01-24T12:05:17Z</time>
      </trkpt>
      <trkpt lat="43.73324" lon="3.52738">
        <ele>536</ele>
        <time>2016-01-24T12:05:26Z</time>
      </trkpt>
      <trkpt lat="43.73316" lon="3.52734">
        <ele>536.3</ele>
        <time>2016-01-24T12:05:35Z</time>
      </trkpt>
      <trkpt lat="43.73307" lon="3.5273">
        <ele>536.9</ele>
        <time>2016-01-24T12:05:45Z</time>
      </trkpt>
      <trkpt lat="43.73298" lon="3.52726">
        <ele>537.6</ele>
        <time>2016-01-24T12:05:56Z</time>
      </trkpt>
      <trkpt lat="43.73288" lon="3.52725">
        <ele>538.4</ele>
        <time>2016-01-24T12:06:05Z</time>
      </trkpt>
      <trkpt lat="43.7328" lon="3.5273">
        <ele>539.2</ele>
        <time>2016-01-24T12:06:13Z</time>
      </trkpt>
      <trkpt lat="43.73271" lon="3.5273">
        <ele>539.8</ele>
        <time>2016-01-24T12:06:21Z</time>
      </trkpt>
      <trkpt lat="43.73271" lon="3.52716">
        <ele>540.7</ele>
        <time>2016-01-24T12:06:36Z</time>
      </trkpt>
      <trkpt lat="43.7327" lon="3.52704">
        <ele>541.5</ele>
        <time>2016-01-24T12:06:47Z</time>
      </trkpt>
      <trkpt lat="43.73269" lon="3.52691">
        <ele>542.5</ele>
        <time>2016-01-24T12:07:02Z</time>
      </trkpt>
      <trkpt lat="43.73272" lon="3.52679">
        <ele>542.9</ele>
        <time>2016-01-24T12:07:10Z</time>
      </trkpt>
      <trkpt lat="43.73276" lon="3.52667">
        <ele>543.6</ele>
        <time>2016-01-24T12:07:19Z</time>
      </trkpt>
      <trkpt lat="43.73281" lon="3.52656">
        <ele>544.4</ele>
        <time>2016-01-24T12:07:28Z</time>
      </trkpt>
      <trkpt lat="43.73284" lon="3.52644">
        <ele>545.3</ele>
        <time>2016-01-24T12:07:38Z</time>
      </trkpt>
      <trkpt lat="43.73287" lon="3.52631">
        <ele>545.9</ele>
        <time>2016-01-24T12:07:46Z</time>
      </trkpt>
      <trkpt lat="43.7329" lon="3.52618">
        <ele>546.7</ele>
        <time>2016-01-24T12:07:55Z</time>
      </trkpt>
      <trkpt lat="43.73294" lon="3.52607">
        <ele>547.3</ele>
        <time>2016-01-24T12:08:04Z</time>
      </trkpt>
      <trkpt lat="43.73297" lon="3.52595">
        <ele>547.8</ele>
        <time>2016-01-24T12:08:12Z</time>
      </trkpt>
      <trkpt lat="43.73301" lon="3.52583">
        <ele>548.4</ele>
        <time>2016-01-24T12:08:20Z</time>
      </trkpt>
      <trkpt lat="43.73305" lon="3.52571">
        <ele>548.9</ele>
        <time>2016-01-24T12:08:29Z</time>
      </trkpt>
      <trkpt lat="43.73308" lon="3.52558">
        <ele>549.2</ele>
        <time>2016-01-24T12:08:35Z</time>
      </trkpt>
      <trkpt lat="43.73311" lon="3.52546">
        <ele>549.7</ele>
        <time>2016-01-24T12:08:44Z</time>
      </trkpt>
      <trkpt lat="43.73316" lon="3.52534">
        <ele>550.3</ele>
        <time>2016-01-24T12:08:53Z</time>
      </trkpt>
      <trkpt lat="43.73321" lon="3.52522">
        <ele>550.9</ele>
        <time>2016-01-24T12:09:01Z</time>
      </trkpt>
      <trkpt lat="43.73326" lon="3.52512">
        <ele>551.5</ele>
        <time>2016-01-24T12:09:09Z</time>
      </trkpt>
      <trkpt lat="43.73333" lon="3.52501">
        <ele>552.3</ele>
        <time>2016-01-24T12:09:18Z</time>
      </trkpt>
      <trkpt lat="43.7334" lon="3.52491">
        <ele>553</ele>
        <time>2016-01-24T12:09:26Z</time>
      </trkpt>
      <trkpt lat="43.73346" lon="3.52479">
        <ele>553.7</ele>
        <time>2016-01-24T12:09:33Z</time>
      </trkpt>
      <trkpt lat="43.73353" lon="3.5247">
        <ele>554.2</ele>
        <time>2016-01-24T12:09:41Z</time>
      </trkpt>
      <trkpt lat="43.73359" lon="3.52459">
        <ele>554.8</ele>
        <time>2016-01-24T12:09:49Z</time>
      </trkpt>
      <trkpt lat="43.73366" lon="3.5245">
        <ele>555.2</ele>
        <time>2016-01-24T12:09:57Z</time>
      </trkpt>
      <trkpt lat="43.73373" lon="3.5244">
        <ele>555.6</ele>
        <time>2016-01-24T12:10:05Z</time>
      </trkpt>
      <trkpt lat="43.7338" lon="3.5243">
        <ele>556</ele>
        <time>2016-01-24T12:10:14Z</time>
      </trkpt>
      <trkpt lat="43.73386" lon="3.52421">
        <ele>556.5</ele>
        <time>2016-01-24T12:10:22Z</time>
      </trkpt>
      <trkpt lat="43.73393" lon="3.52412">
        <ele>557.2</ele>
        <time>2016-01-24T12:10:30Z</time>
      </trkpt>
      <trkpt lat="43.734" lon="3.52402">
        <ele>557.9</ele>
        <time>2016-01-24T12:10:38Z</time>
      </trkpt>
      <trkpt lat="43.73407" lon="3.52394">
        <ele>558.5</ele>
        <time>2016-01-24T12:10:46Z</time>
      </trkpt>
      <trkpt lat="43.73416" lon="3.52388">
        <ele>559</ele>
        <time>2016-01-24T12:10:54Z</time>
      </trkpt>
      <trkpt lat="43.73424" lon="3.5238">
        <ele>559.3</ele>
        <time>2016-01-24T12:11:02Z</time>
      </trkpt>
      <trkpt lat="43.7343" lon="3.52371">
        <ele>559.2</ele>
        <time>2016-01-24T12:11:10Z</time>
      </trkpt>
      <trkpt lat="43.73438" lon="3.52363">
        <ele>558.8</ele>
        <time>2016-01-24T12:11:19Z</time>
      </trkpt>
      <trkpt lat="43.73444" lon="3.52354">
        <ele>558.3</ele>
        <time>2016-01-24T12:11:27Z</time>
      </trkpt>
      <trkpt lat="43.73451" lon="3.52345">
        <ele>557.7</ele>
        <time>2016-01-24T12:11:34Z</time>
      </trkpt>
      <trkpt lat="43.73457" lon="3.52335">
        <ele>557.1</ele>
        <time>2016-01-24T12:11:41Z</time>
      </trkpt>
      <trkpt lat="43.73463" lon="3.52324">
        <ele>556.5</ele>
        <time>2016-01-24T12:11:49Z</time>
      </trkpt>
      <trkpt lat="43.73469" lon="3.52313">
        <ele>554.2</ele>
        <time>2016-01-24T12:13:17Z</time>
      </trkpt>
      <trkpt lat="43.73473" lon="3.52301">
        <ele>553.9</ele>
        <time>2016-01-24T12:13:27Z</time>
      </trkpt>
      <trkpt lat="43.7348" lon="3.52291">
        <ele>553.4</ele>
        <time>2016-01-24T12:13:36Z</time>
      </trkpt>
      <trkpt lat="43.73486" lon="3.5228">
        <ele>552.6</ele>
        <time>2016-01-24T12:13:44Z</time>
      </trkpt>
      <trkpt lat="43.73491" lon="3.5227">
        <ele>551.7</ele>
        <time>2016-01-24T12:13:53Z</time>
      </trkpt>
      <trkpt lat="43.73496" lon="3.52259">
        <ele>550.7</ele>
        <time>2016-01-24T12:14:03Z</time>
      </trkpt>
      <trkpt lat="43.73501" lon="3.52246">
        <ele>549.4</ele>
        <time>2016-01-24T12:14:12Z</time>
      </trkpt>
      <trkpt lat="43.73503" lon="3.52233">
        <ele>547.9</ele>
        <time>2016-01-24T12:14:21Z</time>
      </trkpt>
      <trkpt lat="43.73507" lon="3.5222">
        <ele>546.5</ele>
        <time>2016-01-24T12:14:31Z</time>
      </trkpt>
      <trkpt lat="43.73513" lon="3.52211">
        <ele>545.7</ele>
        <time>2016-01-24T12:14:39Z</time>
      </trkpt>
      <trkpt lat="43.7352" lon="3.52202">
        <ele>545</ele>
        <time>2016-01-24T12:14:48Z</time>
      </trkpt>
      <trkpt lat="43.73528" lon="3.52194">
        <ele>544.4</ele>
        <time>2016-01-24T12:14:57Z</time>
      </trkpt>
      <trkpt lat="43.73537" lon="3.52188">
        <ele>543.7</ele>
        <time>2016-01-24T12:15:05Z</time>
      </trkpt>
      <trkpt lat="43.73545" lon="3.52181">
        <ele>542.7</ele>
        <time>2016-01-24T12:15:15Z</time>
      </trkpt>
      <trkpt lat="43.7355" lon="3.52169">
        <ele>541.8</ele>
        <time>2016-01-24T12:15:24Z</time>
      </trkpt>
      <trkpt lat="43.73546" lon="3.52157">
        <ele>540.7</ele>
        <time>2016-01-24T12:15:32Z</time>
      </trkpt>
      <trkpt lat="43.73539" lon="3.52148">
        <ele>539.8</ele>
        <time>2016-01-24T12:15:42Z</time>
      </trkpt>
      <trkpt lat="43.73531" lon="3.5214">
        <ele>539</ele>
        <time>2016-01-24T12:15:51Z</time>
      </trkpt>
      <trkpt lat="43.73525" lon="3.52129">
        <ele>538.2</ele>
        <time>2016-01-24T12:16:00Z</time>
      </trkpt>
      <trkpt lat="43.73521" lon="3.52117">
        <ele>536.3</ele>
        <time>2016-01-24T12:16:22Z</time>
      </trkpt>
      <trkpt lat="43.73519" lon="3.52105">
        <ele>535.2</ele>
        <time>2016-01-24T12:16:34Z</time>
      </trkpt>
      <trkpt lat="43.73516" lon="3.52092">
        <ele>534.7</ele>
        <time>2016-01-24T12:16:43Z</time>
      </trkpt>
      <trkpt lat="43.73514" lon="3.52078">
        <ele>534.2</ele>
        <time>2016-01-24T12:16:51Z</time>
      </trkpt>
      <trkpt lat="43.73513" lon="3.52065">
        <ele>533.4</ele>
        <time>2016-01-24T12:16:59Z</time>
      </trkpt>
      <trkpt lat="43.73514" lon="3.52052">
        <ele>532.4</ele>
        <time>2016-01-24T12:17:07Z</time>
      </trkpt>
      <trkpt lat="43.73522" lon="3.52044">
        <ele>531.4</ele>
        <time>2016-01-24T12:17:17Z</time>
      </trkpt>
      <trkpt lat="43.73531" lon="3.5204">
        <ele>527.3</ele>
        <time>2016-01-24T12:19:35Z</time>
      </trkpt>
      <trkpt lat="43.73536" lon="3.52029">
        <ele>526.2</ele>
        <time>2016-01-24T12:19:44Z</time>
      </trkpt>
      <trkpt lat="43.73539" lon="3.52018">
        <ele>524.9</ele>
        <time>2016-01-24T12:19:53Z</time>
      </trkpt>
      <trkpt lat="43.73541" lon="3.52002">
        <ele>523.6</ele>
        <time>2016-01-24T12:20:02Z</time>
      </trkpt>
      <trkpt lat="43.73544" lon="3.51989">
        <ele>522.3</ele>
        <time>2016-01-24T12:20:13Z</time>
      </trkpt>
      <trkpt lat="43.7355" lon="3.5198">
        <ele>520.6</ele>
        <time>2016-01-24T12:20:24Z</time>
      </trkpt>
      <trkpt lat="43.73553" lon="3.51967">
        <ele>519.2</ele>
        <time>2016-01-24T12:20:34Z</time>
      </trkpt>
      <trkpt lat="43.73558" lon="3.51955">
        <ele>517.7</ele>
        <time>2016-01-24T12:20:45Z</time>
      </trkpt>
      <trkpt lat="43.73561" lon="3.51943">
        <ele>516.6</ele>
        <time>2016-01-24T12:20:56Z</time>
      </trkpt>
      <trkpt lat="43.73563" lon="3.51929">
        <ele>515.6</ele>
        <time>2016-01-24T12:21:05Z</time>
      </trkpt>
      <trkpt lat="43.73567" lon="3.51916">
        <ele>514</ele>
        <time>2016-01-24T12:21:17Z</time>
      </trkpt>
      <trkpt lat="43.73571" lon="3.51905">
        <ele>512.5</ele>
        <time>2016-01-24T12:21:27Z</time>
      </trkpt>
      <trkpt lat="43.73577" lon="3.51894">
        <ele>510.8</ele>
        <time>2016-01-24T12:21:38Z</time>
      </trkpt>
      <trkpt lat="43.73585" lon="3.51885">
        <ele>509.2</ele>
        <time>2016-01-24T12:21:49Z</time>
      </trkpt>
      <trkpt lat="43.73588" lon="3.51872">
        <ele>507</ele>
        <time>2016-01-24T12:22:00Z</time>
      </trkpt>
      <trkpt lat="43.73589" lon="3.51859">
        <ele>505.5</ele>
        <time>2016-01-24T12:22:11Z</time>
      </trkpt>
      <trkpt lat="43.7359" lon="3.51846">
        <ele>503.6</ele>
        <time>2016-01-24T12:22:25Z</time>
      </trkpt>
      <trkpt lat="43.73594" lon="3.51834">
        <ele>501.6</ele>
        <time>2016-01-24T12:22:37Z</time>
      </trkpt>
      <trkpt lat="43.73598" lon="3.51823">
        <ele>499.9</ele>
        <time>2016-01-24T12:22:50Z</time>
      </trkpt>
      <trkpt lat="43.73604" lon="3.51813">
        <ele>498.1</ele>
        <time>2016-01-24T12:23:02Z</time>
      </trkpt>
      <trkpt lat="43.73606" lon="3.51801">
        <ele>496.3</ele>
        <time>2016-01-24T12:23:15Z</time>
      </trkpt>
      <trkpt lat="43.73613" lon="3.51791">
        <ele>495.4</ele>
        <time>2016-01-24T12:23:23Z</time>
      </trkpt>
      <trkpt lat="43.73619" lon="3.51781">
        <ele>494.7</ele>
        <time>2016-01-24T12:23:29Z</time>
      </trkpt>
      <trkpt lat="43.73625" lon="3.51772">
        <ele>493.7</ele>
        <time>2016-01-24T12:23:37Z</time>
      </trkpt>
      <trkpt lat="43.73634" lon="3.51767">
        <ele>492.6</ele>
        <time>2016-01-24T12:23:47Z</time>
      </trkpt>
      <trkpt lat="43.73643" lon="3.51762">
        <ele>491.5</ele>
        <time>2016-01-24T12:23:57Z</time>
      </trkpt>
      <trkpt lat="43.73652" lon="3.51759">
        <ele>489</ele>
        <time>2016-01-24T12:24:15Z</time>
      </trkpt>
      <trkpt lat="43.73662" lon="3.51754">
        <ele>487.1</ele>
        <time>2016-01-24T12:24:30Z</time>
      </trkpt>
      <trkpt lat="43.73671" lon="3.51751">
        <ele>483.9</ele>
        <time>2016-01-24T12:24:55Z</time>
      </trkpt>
      <trkpt lat="43.73679" lon="3.51744">
        <ele>482.1</ele>
        <time>2016-01-24T12:25:06Z</time>
      </trkpt>
      <trkpt lat="43.73687" lon="3.51738">
        <ele>480.3</ele>
        <time>2016-01-24T12:25:16Z</time>
      </trkpt>
      <trkpt lat="43.73697" lon="3.51735">
        <ele>476.1</ele>
        <time>2016-01-24T12:26:24Z</time>
      </trkpt>
      <trkpt lat="43.73704" lon="3.51726">
        <ele>474.5</ele>
        <time>2016-01-24T12:26:34Z</time>
      </trkpt>
      <trkpt lat="43.73712" lon="3.51721">
        <ele>472.1</ele>
        <time>2016-01-24T12:26:45Z</time>
      </trkpt>
      <trkpt lat="43.7372" lon="3.51716">
        <ele>469.8</ele>
        <time>2016-01-24T12:26:55Z</time>
      </trkpt>
      <trkpt lat="43.73724" lon="3.51703">
        <ele>468.7</ele>
        <time>2016-01-24T12:27:02Z</time>
      </trkpt>
      <trkpt lat="43.73728" lon="3.51691">
        <ele>467.8</ele>
        <time>2016-01-24T12:27:11Z</time>
      </trkpt>
      <trkpt lat="43.73734" lon="3.5168">
        <ele>466.7</ele>
        <time>2016-01-24T12:27:19Z</time>
      </trkpt>
      <trkpt lat="43.7374" lon="3.51672">
        <ele>465.8</ele>
        <time>2016-01-24T12:27:27Z</time>
      </trkpt>
      <trkpt lat="43.73749" lon="3.51664">
        <ele>464.8</ele>
        <time>2016-01-24T12:27:37Z</time>
      </trkpt>
      <trkpt lat="43.73752" lon="3.51652">
        <ele>463.5</ele>
        <time>2016-01-24T12:27:47Z</time>
      </trkpt>
      <trkpt lat="43.73755" lon="3.5164">
        <ele>461.4</ele>
        <time>2016-01-24T12:27:59Z</time>
      </trkpt>
      <trkpt lat="43.73757" lon="3.51627">
        <ele>458.7</ele>
        <time>2016-01-24T12:28:18Z</time>
      </trkpt>
      <trkpt lat="43.73767" lon="3.51624">
        <ele>456.3</ele>
        <time>2016-01-24T12:28:37Z</time>
      </trkpt>
      <trkpt lat="43.73768" lon="3.51611">
        <ele>452.9</ele>
        <time>2016-01-24T12:29:04Z</time>
      </trkpt>
      <trkpt lat="43.73777" lon="3.51611">
        <ele>451.4</ele>
        <time>2016-01-24T12:29:16Z</time>
      </trkpt>
      <trkpt lat="43.73784" lon="3.5162">
        <ele>449.5</ele>
        <time>2016-01-24T12:29:31Z</time>
      </trkpt>
      <trkpt lat="43.73789" lon="3.51632">
        <ele>446.8</ele>
        <time>2016-01-24T12:30:00Z</time>
      </trkpt>
      <trkpt lat="43.73795" lon="3.51642">
        <ele>445.5</ele>
        <time>2016-01-24T12:30:14Z</time>
      </trkpt>
      <trkpt lat="43.73799" lon="3.51653">
        <ele>444.2</ele>
        <time>2016-01-24T12:30:27Z</time>
      </trkpt>
      <trkpt lat="43.738" lon="3.51666">
        <ele>442.4</ele>
        <time>2016-01-24T12:30:41Z</time>
      </trkpt>
      <trkpt lat="43.73795" lon="3.51678">
        <ele>440.2</ele>
        <time>2016-01-24T12:30:57Z</time>
      </trkpt>
      <trkpt lat="43.73786" lon="3.51685">
        <ele>439.1</ele>
        <time>2016-01-24T12:31:07Z</time>
      </trkpt>
      <trkpt lat="43.73778" lon="3.51692">
        <ele>438.1</ele>
        <time>2016-01-24T12:31:14Z</time>
      </trkpt>
      <trkpt lat="43.73772" lon="3.51702">
        <ele>437</ele>
        <time>2016-01-24T12:31:22Z</time>
      </trkpt>
      <trkpt lat="43.73768" lon="3.51714">
        <ele>436</ele>
        <time>2016-01-24T12:31:32Z</time>
      </trkpt>
      <trkpt lat="43.73765" lon="3.51727">
        <ele>435.2</ele>
        <time>2016-01-24T12:31:42Z</time>
      </trkpt>
      <trkpt lat="43.73764" lon="3.5174">
        <ele>433.8</ele>
        <time>2016-01-24T12:31:54Z</time>
      </trkpt>
      <trkpt lat="43.73759" lon="3.51751">
        <ele>432.3</ele>
        <time>2016-01-24T12:32:04Z</time>
      </trkpt>
      <trkpt lat="43.73752" lon="3.5176">
        <ele>430.7</ele>
        <time>2016-01-24T12:32:17Z</time>
      </trkpt>
      <trkpt lat="43.73761" lon="3.51762">
        <ele>427.7</ele>
        <time>2016-01-24T12:32:40Z</time>
      </trkpt>
      <trkpt lat="43.73768" lon="3.51752">
        <ele>426.5</ele>
        <time>2016-01-24T12:32:49Z</time>
      </trkpt>
      <trkpt lat="43.73774" lon="3.51741">
        <ele>425.5</ele>
        <time>2016-01-24T12:32:58Z</time>
      </trkpt>
      <trkpt lat="43.73781" lon="3.51731">
        <ele>424.7</ele>
        <time>2016-01-24T12:33:07Z</time>
      </trkpt>
      <trkpt lat="43.73787" lon="3.5172">
        <ele>423.6</ele>
        <time>2016-01-24T12:33:17Z</time>
      </trkpt>
      <trkpt lat="43.73785" lon="3.51734">
        <ele>422.2</ele>
        <time>2016-01-24T12:33:29Z</time>
      </trkpt>
      <trkpt lat="43.73782" lon="3.51747">
        <ele>421.2</ele>
        <time>2016-01-24T12:33:37Z</time>
      </trkpt>
      <trkpt lat="43.73777" lon="3.51759">
        <ele>419.8</ele>
        <time>2016-01-24T12:33:47Z</time>
      </trkpt>
      <trkpt lat="43.73771" lon="3.51769">
        <ele>418.8</ele>
        <time>2016-01-24T12:33:54Z</time>
      </trkpt>
      <trkpt lat="43.73771" lon="3.51782">
        <ele>417.1</ele>
        <time>2016-01-24T12:34:06Z</time>
      </trkpt>
      <trkpt lat="43.73765" lon="3.51792">
        <ele>414.4</ele>
        <time>2016-01-24T12:34:25Z</time>
      </trkpt>
      <trkpt lat="43.73759" lon="3.51803">
        <ele>412.6</ele>
        <time>2016-01-24T12:34:40Z</time>
      </trkpt>
      <trkpt lat="43.73757" lon="3.51815">
        <ele>410.5</ele>
        <time>2016-01-24T12:34:54Z</time>
      </trkpt>
      <trkpt lat="43.73753" lon="3.51828">
        <ele>408.7</ele>
        <time>2016-01-24T12:35:05Z</time>
      </trkpt>
      <trkpt lat="43.73747" lon="3.51837">
        <ele>407.6</ele>
        <time>2016-01-24T12:35:12Z</time>
      </trkpt>
      <trkpt lat="43.73744" lon="3.51849">
        <ele>406</ele>
        <time>2016-01-24T12:35:24Z</time>
      </trkpt>
      <trkpt lat="43.73739" lon="3.5186">
        <ele>404.6</ele>
        <time>2016-01-24T12:35:34Z</time>
      </trkpt>
      <trkpt lat="43.73734" lon="3.51872">
        <ele>403.2</ele>
        <time>2016-01-24T12:35:42Z</time>
      </trkpt>
      <trkpt lat="43.73733" lon="3.51885">
        <ele>402.1</ele>
        <time>2016-01-24T12:35:51Z</time>
      </trkpt>
      <trkpt lat="43.73739" lon="3.51895">
        <ele>401</ele>
        <time>2016-01-24T12:36:02Z</time>
      </trkpt>
      <trkpt lat="43.73739" lon="3.51908">
        <ele>399.4</ele>
        <time>2016-01-24T12:36:15Z</time>
      </trkpt>
      <trkpt lat="43.73737" lon="3.51922">
        <ele>398.2</ele>
        <time>2016-01-24T12:36:24Z</time>
      </trkpt>
      <trkpt lat="43.73737" lon="3.51935">
        <ele>396.9</ele>
        <time>2016-01-24T12:36:33Z</time>
      </trkpt>
      <trkpt lat="43.73746" lon="3.51938">
        <ele>396.1</ele>
        <time>2016-01-24T12:36:40Z</time>
      </trkpt>
      <trkpt lat="43.73755" lon="3.51939">
        <ele>394.5</ele>
        <time>2016-01-24T12:36:54Z</time>
      </trkpt>
      <trkpt lat="43.73764" lon="3.51935">
        <ele>393</ele>
        <time>2016-01-24T12:37:06Z</time>
      </trkpt>
      <trkpt lat="43.7377" lon="3.51925">
        <ele>390.7</ele>
        <time>2016-01-24T12:37:19Z</time>
      </trkpt>
      <trkpt lat="43.73777" lon="3.51918">
        <ele>387.3</ele>
        <time>2016-01-24T12:37:40Z</time>
      </trkpt>
      <trkpt lat="43.73784" lon="3.51907">
        <ele>385.6</ele>
        <time>2016-01-24T12:37:51Z</time>
      </trkpt>
      <trkpt lat="43.7379" lon="3.51897">
        <ele>384.5</ele>
        <time>2016-01-24T12:38:00Z</time>
      </trkpt>
      <trkpt lat="43.73799" lon="3.519">
        <ele>382.3</ele>
        <time>2016-01-24T12:38:20Z</time>
      </trkpt>
      <trkpt lat="43.73806" lon="3.51908">
        <ele>381.2</ele>
        <time>2016-01-24T12:38:29Z</time>
      </trkpt>
      <trkpt lat="43.73815" lon="3.51905">
        <ele>379.3</ele>
        <time>2016-01-24T12:38:40Z</time>
      </trkpt>
      <trkpt lat="43.73821" lon="3.51893">
        <ele>378.2</ele>
        <time>2016-01-24T12:38:48Z</time>
      </trkpt>
      <trkpt lat="43.7383" lon="3.51892">
        <ele>377.1</ele>
        <time>2016-01-24T12:38:55Z</time>
      </trkpt>
      <trkpt lat="43.73835" lon="3.51902">
        <ele>375.1</ele>
        <time>2016-01-24T12:39:13Z</time>
      </trkpt>
      <trkpt lat="43.73843" lon="3.51908">
        <ele>374.4</ele>
        <time>2016-01-24T12:39:20Z</time>
      </trkpt>
      <trkpt lat="43.73853" lon="3.51909">
        <ele>373.5</ele>
        <time>2016-01-24T12:39:27Z</time>
      </trkpt>
      <trkpt lat="43.73862" lon="3.51905">
        <ele>372.3</ele>
        <time>2016-01-24T12:39:36Z</time>
      </trkpt>
      <trkpt lat="43.7387" lon="3.51899">
        <ele>370.8</ele>
        <time>2016-01-24T12:39:47Z</time>
      </trkpt>
      <trkpt lat="43.73879" lon="3.51899">
        <ele>368.9</ele>
        <time>2016-01-24T12:39:59Z</time>
      </trkpt>
      <trkpt lat="43.73888" lon="3.51901">
        <ele>367.4</ele>
        <time>2016-01-24T12:40:07Z</time>
      </trkpt>
      <trkpt lat="43.73897" lon="3.51901">
        <ele>365.8</ele>
        <time>2016-01-24T12:40:16Z</time>
      </trkpt>
      <trkpt lat="43.73907" lon="3.51903">
        <ele>364.1</ele>
        <time>2016-01-24T12:40:26Z</time>
      </trkpt>
      <trkpt lat="43.73916" lon="3.51906">
        <ele>362.8</ele>
        <time>2016-01-24T12:40:34Z</time>
      </trkpt>
      <trkpt lat="43.73924" lon="3.51912">
        <ele>361.3</ele>
        <time>2016-01-24T12:40:43Z</time>
      </trkpt>
      <trkpt lat="43.73932" lon="3.51919">
        <ele>359.6</ele>
        <time>2016-01-24T12:40:54Z</time>
      </trkpt>
      <trkpt lat="43.73939" lon="3.51929">
        <ele>357.9</ele>
        <time>2016-01-24T12:41:04Z</time>
      </trkpt>
      <trkpt lat="43.73947" lon="3.51934">
        <ele>356.3</ele>
        <time>2016-01-24T12:41:14Z</time>
      </trkpt>
      <trkpt lat="43.73954" lon="3.51943">
        <ele>354.9</ele>
        <time>2016-01-24T12:41:22Z</time>
      </trkpt>
      <trkpt lat="43.73961" lon="3.51952">
        <ele>352.8</ele>
        <time>2016-01-24T12:41:33Z</time>
      </trkpt>
      <trkpt lat="43.73965" lon="3.51965">
        <ele>351.4</ele>
        <time>2016-01-24T12:41:40Z</time>
      </trkpt>
      <trkpt lat="43.73964" lon="3.51978">
        <ele>350</ele>
        <time>2016-01-24T12:41:48Z</time>
      </trkpt>
      <trkpt lat="43.73962" lon="3.51991">
        <ele>347.8</ele>
        <time>2016-01-24T12:42:03Z</time>
      </trkpt>
      <trkpt lat="43.73957" lon="3.52003">
        <ele>346.2</ele>
        <time>2016-01-24T12:42:15Z</time>
      </trkpt>
      <trkpt lat="43.73951" lon="3.52015">
        <ele>345.1</ele>
        <time>2016-01-24T12:42:23Z</time>
      </trkpt>
      <trkpt lat="43.73948" lon="3.52027">
        <ele>343.3</ele>
        <time>2016-01-24T12:42:35Z</time>
      </trkpt>
      <trkpt lat="43.73947" lon="3.5204">
        <ele>342</ele>
        <time>2016-01-24T12:42:44Z</time>
      </trkpt>
      <trkpt lat="43.73942" lon="3.52051">
        <ele>340.8</ele>
        <time>2016-01-24T12:42:51Z</time>
      </trkpt>
      <trkpt lat="43.73939" lon="3.52063">
        <ele>339.8</ele>
        <time>2016-01-24T12:42:59Z</time>
      </trkpt>
      <trkpt lat="43.73935" lon="3.52075">
        <ele>338.9</ele>
        <time>2016-01-24T12:43:08Z</time>
      </trkpt>
      <trkpt lat="43.73934" lon="3.52088">
        <ele>337.7</ele>
        <time>2016-01-24T12:43:19Z</time>
      </trkpt>
      <trkpt lat="43.7393" lon="3.521">
        <ele>336.8</ele>
        <time>2016-01-24T12:43:27Z</time>
      </trkpt>
      <trkpt lat="43.73931" lon="3.52113">
        <ele>335.7</ele>
        <time>2016-01-24T12:43:38Z</time>
      </trkpt>
      <trkpt lat="43.73933" lon="3.52126">
        <ele>334.2</ele>
        <time>2016-01-24T12:43:49Z</time>
      </trkpt>
      <trkpt lat="43.73933" lon="3.5214">
        <ele>333.1</ele>
        <time>2016-01-24T12:43:58Z</time>
      </trkpt>
      <trkpt lat="43.73937" lon="3.52152">
        <ele>331.9</ele>
        <time>2016-01-24T12:44:08Z</time>
      </trkpt>
      <trkpt lat="43.73941" lon="3.52163">
        <ele>330.7</ele>
        <time>2016-01-24T12:44:18Z</time>
      </trkpt>
      <trkpt lat="43.73945" lon="3.52175">
        <ele>328.6</ele>
        <time>2016-01-24T12:44:33Z</time>
      </trkpt>
      <trkpt lat="43.73947" lon="3.52188">
        <ele>326.3</ele>
        <time>2016-01-24T12:44:48Z</time>
      </trkpt>
      <trkpt lat="43.73945" lon="3.52201">
        <ele>323.8</ele>
        <time>2016-01-24T12:45:00Z</time>
      </trkpt>
      <trkpt lat="43.73939" lon="3.52212">
        <ele>322.5</ele>
        <time>2016-01-24T12:45:09Z</time>
      </trkpt>
      <trkpt lat="43.73935" lon="3.52224">
        <ele>321.2</ele>
        <time>2016-01-24T12:45:19Z</time>
      </trkpt>
      <trkpt lat="43.73931" lon="3.52235">
        <ele>319.2</ele>
        <time>2016-01-24T12:45:34Z</time>
      </trkpt>
      <trkpt lat="43.7393" lon="3.52249">
        <ele>317.4</ele>
        <time>2016-01-24T12:45:47Z</time>
      </trkpt>
      <trkpt lat="43.7393" lon="3.52261">
        <ele>316</ele>
        <time>2016-01-24T12:45:59Z</time>
      </trkpt>
      <trkpt lat="43.73929" lon="3.52274">
        <ele>314.3</ele>
        <time>2016-01-24T12:46:12Z</time>
      </trkpt>
      <trkpt lat="43.73924" lon="3.52286">
        <ele>312.5</ele>
        <time>2016-01-24T12:46:24Z</time>
      </trkpt>
      <trkpt lat="43.73919" lon="3.52297">
        <ele>310.7</ele>
        <time>2016-01-24T12:46:36Z</time>
      </trkpt>
      <trkpt lat="43.73922" lon="3.52309">
        <ele>309</ele>
        <time>2016-01-24T12:46:47Z</time>
      </trkpt>
      <trkpt lat="43.7392" lon="3.52322">
        <ele>307.3</ele>
        <time>2016-01-24T12:47:00Z</time>
      </trkpt>
      <trkpt lat="43.73918" lon="3.52334">
        <ele>305.7</ele>
        <time>2016-01-24T12:47:12Z</time>
      </trkpt>
      <trkpt lat="43.73927" lon="3.52335">
        <ele>303.2</ele>
        <time>2016-01-24T12:48:19Z</time>
      </trkpt>
      <trkpt lat="43.73929" lon="3.52323">
        <ele>302</ele>
        <time>2016-01-24T12:49:26Z</time>
      </trkpt>
      <trkpt lat="43.73934" lon="3.52312">
        <ele>301.7</ele>
        <time>2016-01-24T12:49:38Z</time>
      </trkpt>
      <trkpt lat="43.73939" lon="3.52301">
        <ele>301.2</ele>
        <time>2016-01-24T12:49:50Z</time>
      </trkpt>
      <trkpt lat="43.73946" lon="3.52291">
        <ele>300.1</ele>
        <time>2016-01-24T12:50:04Z</time>
      </trkpt>
      <trkpt lat="43.73951" lon="3.5228">
        <ele>299.6</ele>
        <time>2016-01-24T12:50:13Z</time>
      </trkpt>
      <trkpt lat="43.73961" lon="3.52272">
        <ele>299.1</ele>
        <time>2016-01-24T12:50:21Z</time>
      </trkpt>
      <trkpt lat="43.73964" lon="3.5226">
        <ele>298.5</ele>
        <time>2016-01-24T12:50:41Z</time>
      </trkpt>
      <trkpt lat="43.73972" lon="3.52252">
        <ele>298.3</ele>
        <time>2016-01-24T12:50:50Z</time>
      </trkpt>
      <trkpt lat="43.73981" lon="3.52246">
        <ele>298.1</ele>
        <time>2016-01-24T12:50:55Z</time>
      </trkpt>
      <trkpt lat="43.73989" lon="3.52239">
        <ele>297.8</ele>
        <time>2016-01-24T12:51:02Z</time>
      </trkpt>
      <trkpt lat="43.73994" lon="3.52251">
        <ele>297.1</ele>
        <time>2016-01-24T12:51:15Z</time>
      </trkpt>
      <trkpt lat="43.73993" lon="3.52264">
        <ele>297</ele>
        <time>2016-01-24T12:51:24Z</time>
      </trkpt>
      <trkpt lat="43.73987" lon="3.52275">
        <ele>297.1</ele>
        <time>2016-01-24T12:51:34Z</time>
      </trkpt>
      <trkpt lat="43.73984" lon="3.52288">
        <ele>297.3</ele>
        <time>2016-01-24T12:51:48Z</time>
      </trkpt>
      <trkpt lat="43.73983" lon="3.52301">
        <ele>298.1</ele>
        <time>2016-01-24T12:52:01Z</time>
      </trkpt>
      <trkpt lat="43.73985" lon="3.52313">
        <ele>298.8</ele>
        <time>2016-01-24T12:52:11Z</time>
      </trkpt>
      <trkpt lat="43.73983" lon="3.52326">
        <ele>299.7</ele>
        <time>2016-01-24T12:52:22Z</time>
      </trkpt>
      <trkpt lat="43.73981" lon="3.52338">
        <ele>300.8</ele>
        <time>2016-01-24T12:52:35Z</time>
      </trkpt>
      <trkpt lat="43.73981" lon="3.52352">
        <ele>302</ele>
        <time>2016-01-24T12:52:47Z</time>
      </trkpt>
      <trkpt lat="43.73981" lon="3.52365">
        <ele>302.8</ele>
        <time>2016-01-24T12:52:56Z</time>
      </trkpt>
      <trkpt lat="43.73977" lon="3.52378">
        <ele>303.2</ele>
        <time>2016-01-24T12:53:02Z</time>
      </trkpt>
      <trkpt lat="43.7398" lon="3.52391">
        <ele>303.8</ele>
        <time>2016-01-24T12:53:10Z</time>
      </trkpt>
      <trkpt lat="43.73989" lon="3.52385">
        <ele>304.7</ele>
        <time>2016-01-24T12:53:17Z</time>
      </trkpt>
      <trkpt lat="43.73998" lon="3.52387">
        <ele>306.4</ele>
        <time>2016-01-24T12:53:31Z</time>
      </trkpt>
      <trkpt lat="43.74006" lon="3.52394">
        <ele>307.3</ele>
        <time>2016-01-24T12:53:42Z</time>
      </trkpt>
      <trkpt lat="43.74014" lon="3.524">
        <ele>308.2</ele>
        <time>2016-01-24T12:53:55Z</time>
      </trkpt>
      <trkpt lat="43.74016" lon="3.52413">
        <ele>309.6</ele>
        <time>2016-01-24T12:55:18Z</time>
      </trkpt>
      <trkpt lat="43.7402" lon="3.52424">
        <ele>310.8</ele>
        <time>2016-01-24T12:55:32Z</time>
      </trkpt>
      <trkpt lat="43.74027" lon="3.52434">
        <ele>312.3</ele>
        <time>2016-01-24T12:55:46Z</time>
      </trkpt>
      <trkpt lat="43.74034" lon="3.52443">
        <ele>313.7</ele>
        <time>2016-01-24T12:56:02Z</time>
      </trkpt>
      <trkpt lat="43.74038" lon="3.52454">
        <ele>315.8</ele>
        <time>2016-01-24T12:56:16Z</time>
      </trkpt>
      <trkpt lat="43.74043" lon="3.52465">
        <ele>317.4</ele>
        <time>2016-01-24T12:56:29Z</time>
      </trkpt>
      <trkpt lat="43.74043" lon="3.52478">
        <ele>318.4</ele>
        <time>2016-01-24T12:56:39Z</time>
      </trkpt>
      <trkpt lat="43.74048" lon="3.52488">
        <ele>319.8</ele>
        <time>2016-01-24T12:56:52Z</time>
      </trkpt>
      <trkpt lat="43.74059" lon="3.52494">
        <ele>320.6</ele>
        <time>2016-01-24T12:57:01Z</time>
      </trkpt>
      <trkpt lat="43.74067" lon="3.525">
        <ele>321.7</ele>
        <time>2016-01-24T12:57:12Z</time>
      </trkpt>
      <trkpt lat="43.74073" lon="3.52511">
        <ele>323.6</ele>
        <time>2016-01-24T12:57:26Z</time>
      </trkpt>
      <trkpt lat="43.74078" lon="3.52522">
        <ele>325.9</ele>
        <time>2016-01-24T12:57:42Z</time>
      </trkpt>
      <trkpt lat="43.74087" lon="3.52525">
        <ele>327.1</ele>
        <time>2016-01-24T12:57:53Z</time>
      </trkpt>
      <trkpt lat="43.74096" lon="3.52523">
        <ele>327.9</ele>
        <time>2016-01-24T12:58:02Z</time>
      </trkpt>
      <trkpt lat="43.74105" lon="3.5252">
        <ele>328.9</ele>
        <time>2016-01-24T12:58:13Z</time>
      </trkpt>
      <trkpt lat="43.74115" lon="3.52518">
        <ele>330.8</ele>
        <time>2016-01-24T12:58:29Z</time>
      </trkpt>
      <trkpt lat="43.74123" lon="3.52514">
        <ele>332.4</ele>
        <time>2016-01-24T12:58:42Z</time>
      </trkpt>
      <trkpt lat="43.74131" lon="3.52508">
        <ele>333.4</ele>
        <time>2016-01-24T12:58:51Z</time>
      </trkpt>
      <trkpt lat="43.74139" lon="3.52502">
        <ele>334.1</ele>
        <time>2016-01-24T12:59:01Z</time>
      </trkpt>
      <trkpt lat="43.74147" lon="3.52495">
        <ele>334.6</ele>
        <time>2016-01-24T12:59:11Z</time>
      </trkpt>
      <trkpt lat="43.74153" lon="3.52485">
        <ele>334.9</ele>
        <time>2016-01-24T12:59:20Z</time>
      </trkpt>
      <trkpt lat="43.74162" lon="3.52479">
        <ele>335.3</ele>
        <time>2016-01-24T12:59:30Z</time>
      </trkpt>
      <trkpt lat="43.74169" lon="3.52488">
        <ele>336.3</ele>
        <time>2016-01-24T12:59:45Z</time>
      </trkpt>
      <trkpt lat="43.74174" lon="3.52499">
        <ele>336.9</ele>
        <time>2016-01-24T12:59:54Z</time>
      </trkpt>
      <trkpt lat="43.74179" lon="3.5251">
        <ele>337.6</ele>
        <time>2016-01-24T13:00:04Z</time>
      </trkpt>
      <trkpt lat="43.74181" lon="3.52522">
        <ele>338.3</ele>
        <time>2016-01-24T13:00:16Z</time>
      </trkpt>
      <trkpt lat="43.74184" lon="3.52534">
        <ele>338.9</ele>
        <time>2016-01-24T13:00:27Z</time>
      </trkpt>
      <trkpt lat="43.74188" lon="3.52546">
        <ele>339.6</ele>
        <time>2016-01-24T13:00:38Z</time>
      </trkpt>
      <trkpt lat="43.74193" lon="3.52556">
        <ele>341.2</ele>
        <time>2016-01-24T13:00:51Z</time>
      </trkpt>
      <trkpt lat="43.74198" lon="3.52568">
        <ele>342.8</ele>
        <time>2016-01-24T13:01:04Z</time>
      </trkpt>
      <trkpt lat="43.74203" lon="3.52578">
        <ele>344</ele>
        <time>2016-01-24T13:01:15Z</time>
      </trkpt>
      <trkpt lat="43.74206" lon="3.5259">
        <ele>344.9</ele>
        <time>2016-01-24T13:01:27Z</time>
      </trkpt>
      <trkpt lat="43.74208" lon="3.52603">
        <ele>346.3</ele>
        <time>2016-01-24T13:01:45Z</time>
      </trkpt>
      <trkpt lat="43.74209" lon="3.52616">
        <ele>347</ele>
        <time>2016-01-24T13:01:55Z</time>
      </trkpt>
      <trkpt lat="43.7421" lon="3.5263">
        <ele>348.3</ele>
        <time>2016-01-24T13:02:07Z</time>
      </trkpt>
      <trkpt lat="43.74213" lon="3.52642">
        <ele>349.7</ele>
        <time>2016-01-24T13:02:23Z</time>
      </trkpt>
      <trkpt lat="43.74218" lon="3.52654">
        <ele>350.5</ele>
        <time>2016-01-24T13:02:34Z</time>
      </trkpt>
      <trkpt lat="43.74224" lon="3.52664">
        <ele>351.6</ele>
        <time>2016-01-24T13:02:46Z</time>
      </trkpt>
      <trkpt lat="43.74226" lon="3.52676">
        <ele>352.8</ele>
        <time>2016-01-24T13:02:58Z</time>
      </trkpt>
      <trkpt lat="43.74229" lon="3.52688">
        <ele>354.1</ele>
        <time>2016-01-24T13:03:09Z</time>
      </trkpt>
      <trkpt lat="43.7423" lon="3.52701">
        <ele>355.7</ele>
        <time>2016-01-24T13:03:23Z</time>
      </trkpt>
      <trkpt lat="43.74238" lon="3.52707">
        <ele>356.9</ele>
        <time>2016-01-24T13:04:12Z</time>
      </trkpt>
      <trkpt lat="43.74246" lon="3.52715">
        <ele>357.8</ele>
        <time>2016-01-24T13:04:23Z</time>
      </trkpt>
      <trkpt lat="43.74255" lon="3.52718">
        <ele>359.2</ele>
        <time>2016-01-24T13:04:36Z</time>
      </trkpt>
      <trkpt lat="43.74264" lon="3.52724">
        <ele>360.1</ele>
        <time>2016-01-24T13:04:49Z</time>
      </trkpt>
      <trkpt lat="43.74273" lon="3.52728">
        <ele>361.4</ele>
        <time>2016-01-24T13:05:19Z</time>
      </trkpt>
      <trkpt lat="43.7428" lon="3.52737">
        <ele>362.2</ele>
        <time>2016-01-24T13:05:31Z</time>
      </trkpt>
      <trkpt lat="43.74286" lon="3.52747">
        <ele>363.6</ele>
        <time>2016-01-24T13:05:45Z</time>
      </trkpt>
      <trkpt lat="43.74288" lon="3.52734">
        <ele>365.1</ele>
        <time>2016-01-24T13:05:57Z</time>
      </trkpt>
      <trkpt lat="43.74294" lon="3.52743">
        <ele>369.9</ele>
        <time>2016-01-24T13:06:36Z</time>
      </trkpt>
      <trkpt lat="43.74299" lon="3.52756">
        <ele>371.6</ele>
        <time>2016-01-24T13:06:51Z</time>
      </trkpt>
      <trkpt lat="43.74305" lon="3.52766">
        <ele>373</ele>
        <time>2016-01-24T13:07:03Z</time>
      </trkpt>
      <trkpt lat="43.74313" lon="3.52773">
        <ele>374.6</ele>
        <time>2016-01-24T13:07:14Z</time>
      </trkpt>
      <trkpt lat="43.74321" lon="3.5278">
        <ele>376.4</ele>
        <time>2016-01-24T13:07:28Z</time>
      </trkpt>
      <trkpt lat="43.7433" lon="3.52783">
        <ele>377.7</ele>
        <time>2016-01-24T13:07:39Z</time>
      </trkpt>
      <trkpt lat="43.74339" lon="3.52788">
        <ele>379.6</ele>
        <time>2016-01-24T13:07:56Z</time>
      </trkpt>
      <trkpt lat="43.74347" lon="3.52792">
        <ele>380.8</ele>
        <time>2016-01-24T13:08:08Z</time>
      </trkpt>
      <trkpt lat="43.74355" lon="3.52798">
        <ele>382.7</ele>
        <time>2016-01-24T13:08:24Z</time>
      </trkpt>
      <trkpt lat="43.74361" lon="3.52809">
        <ele>384.4</ele>
        <time>2016-01-24T13:08:37Z</time>
      </trkpt>
      <trkpt lat="43.74367" lon="3.52818">
        <ele>387.3</ele>
        <time>2016-01-24T13:09:10Z</time>
      </trkpt>
      <trkpt lat="43.74373" lon="3.52808">
        <ele>389.6</ele>
        <time>2016-01-24T13:09:30Z</time>
      </trkpt>
      <trkpt lat="43.74374" lon="3.52796">
        <ele>391.3</ele>
        <time>2016-01-24T13:09:44Z</time>
      </trkpt>
      <trkpt lat="43.74372" lon="3.52783">
        <ele>392.8</ele>
        <time>2016-01-24T13:09:58Z</time>
      </trkpt>
      <trkpt lat="43.74367" lon="3.52771">
        <ele>393.9</ele>
        <time>2016-01-24T13:10:08Z</time>
      </trkpt>
      <trkpt lat="43.74362" lon="3.5276">
        <ele>395.2</ele>
        <time>2016-01-24T13:10:20Z</time>
      </trkpt>
      <trkpt lat="43.74356" lon="3.52749">
        <ele>397.3</ele>
        <time>2016-01-24T13:10:35Z</time>
      </trkpt>
      <trkpt lat="43.74354" lon="3.52737">
        <ele>399.3</ele>
        <time>2016-01-24T13:10:49Z</time>
      </trkpt>
      <trkpt lat="43.74349" lon="3.52726">
        <ele>400.9</ele>
        <time>2016-01-24T13:11:02Z</time>
      </trkpt>
      <trkpt lat="43.74347" lon="3.52713">
        <ele>402</ele>
        <time>2016-01-24T13:11:14Z</time>
      </trkpt>
      <trkpt lat="43.74344" lon="3.52701">
        <ele>402.6</ele>
        <time>2016-01-24T13:11:23Z</time>
      </trkpt>
      <trkpt lat="43.74343" lon="3.52688">
        <ele>403.2</ele>
        <time>2016-01-24T13:11:34Z</time>
      </trkpt>
      <trkpt lat="43.74343" lon="3.52675">
        <ele>403.3</ele>
        <time>2016-01-24T13:11:44Z</time>
      </trkpt>
      <trkpt lat="43.74342" lon="3.52663">
        <ele>403.7</ele>
        <time>2016-01-24T13:11:54Z</time>
      </trkpt>
      <trkpt lat="43.74335" lon="3.52654">
        <ele>404.5</ele>
        <time>2016-01-24T13:12:07Z</time>
      </trkpt>
      <trkpt lat="43.74329" lon="3.52645">
        <ele>405.7</ele>
        <time>2016-01-24T13:12:18Z</time>
      </trkpt>
      <trkpt lat="43.74322" lon="3.52635">
        <ele>407.2</ele>
        <time>2016-01-24T13:12:32Z</time>
      </trkpt>
      <trkpt lat="43.74321" lon="3.52621">
        <ele>408.9</ele>
        <time>2016-01-24T13:12:50Z</time>
      </trkpt>
      <trkpt lat="43.74323" lon="3.52609">
        <ele>409.9</ele>
        <time>2016-01-24T13:13:01Z</time>
      </trkpt>
      <trkpt lat="43.74325" lon="3.52596">
        <ele>410.8</ele>
        <time>2016-01-24T13:13:11Z</time>
      </trkpt>
      <trkpt lat="43.74331" lon="3.52587">
        <ele>412</ele>
        <time>2016-01-24T13:13:23Z</time>
      </trkpt>
      <trkpt lat="43.74333" lon="3.52573">
        <ele>413.1</ele>
        <time>2016-01-24T13:13:35Z</time>
      </trkpt>
      <trkpt lat="43.74333" lon="3.5256">
        <ele>414.4</ele>
        <time>2016-01-24T13:13:47Z</time>
      </trkpt>
      <trkpt lat="43.74339" lon="3.52571">
        <ele>416.4</ele>
        <time>2016-01-24T13:14:04Z</time>
      </trkpt>
      <trkpt lat="43.74339" lon="3.52584">
        <ele>417.5</ele>
        <time>2016-01-24T13:14:15Z</time>
      </trkpt>
      <trkpt lat="43.74336" lon="3.52596">
        <ele>418.7</ele>
        <time>2016-01-24T13:14:26Z</time>
      </trkpt>
      <trkpt lat="43.74338" lon="3.52609">
        <ele>420.3</ele>
        <time>2016-01-24T13:14:39Z</time>
      </trkpt>
      <trkpt lat="43.74345" lon="3.52599">
        <ele>421.7</ele>
        <time>2016-01-24T13:14:50Z</time>
      </trkpt>
      <trkpt lat="43.7435" lon="3.52589">
        <ele>423.2</ele>
        <time>2016-01-24T13:15:01Z</time>
      </trkpt>
      <trkpt lat="43.74353" lon="3.52577">
        <ele>423.9</ele>
        <time>2016-01-24T13:15:10Z</time>
      </trkpt>
      <trkpt lat="43.74351" lon="3.52564">
        <ele>424.6</ele>
        <time>2016-01-24T13:15:20Z</time>
      </trkpt>
      <trkpt lat="43.74351" lon="3.52551">
        <ele>425.4</ele>
        <time>2016-01-24T13:15:32Z</time>
      </trkpt>
      <trkpt lat="43.74347" lon="3.52539">
        <ele>426.4</ele>
        <time>2016-01-24T13:15:44Z</time>
      </trkpt>
      <trkpt lat="43.74342" lon="3.52527">
        <ele>427.7</ele>
        <time>2016-01-24T13:15:55Z</time>
      </trkpt>
      <trkpt lat="43.74336" lon="3.52517">
        <ele>429.6</ele>
        <time>2016-01-24T13:16:09Z</time>
      </trkpt>
      <trkpt lat="43.74333" lon="3.52504">
        <ele>430.7</ele>
        <time>2016-01-24T13:16:20Z</time>
      </trkpt>
      <trkpt lat="43.7433" lon="3.52491">
        <ele>432</ele>
        <time>2016-01-24T13:16:30Z</time>
      </trkpt>
      <trkpt lat="43.74334" lon="3.52503">
        <ele>435.3</ele>
        <time>2016-01-24T13:16:58Z</time>
      </trkpt>
      <trkpt lat="43.74339" lon="3.52514">
        <ele>436.5</ele>
        <time>2016-01-24T13:17:11Z</time>
      </trkpt>
      <trkpt lat="43.74346" lon="3.52522">
        <ele>437.7</ele>
        <time>2016-01-24T13:17:22Z</time>
      </trkpt>
      <trkpt lat="43.74355" lon="3.52518">
        <ele>438.8</ele>
        <time>2016-01-24T13:17:32Z</time>
      </trkpt>
      <trkpt lat="43.74353" lon="3.52504">
        <ele>440.6</ele>
        <time>2016-01-24T13:17:45Z</time>
      </trkpt>
      <trkpt lat="43.7435" lon="3.52492">
        <ele>442.4</ele>
        <time>2016-01-24T13:17:59Z</time>
      </trkpt>
      <trkpt lat="43.74347" lon="3.5248">
        <ele>444.1</ele>
        <time>2016-01-24T13:18:12Z</time>
      </trkpt>
      <trkpt lat="43.74344" lon="3.52468">
        <ele>445.9</ele>
        <time>2016-01-24T13:18:28Z</time>
      </trkpt>
      <trkpt lat="43.7435" lon="3.52478">
        <ele>449.6</ele>
        <time>2016-01-24T13:18:59Z</time>
      </trkpt>
      <trkpt lat="43.74354" lon="3.5249">
        <ele>452.4</ele>
        <time>2016-01-24T13:19:28Z</time>
      </trkpt>
      <trkpt lat="43.7436" lon="3.52481">
        <ele>453.8</ele>
        <time>2016-01-24T13:19:43Z</time>
      </trkpt>
      <trkpt lat="43.7436" lon="3.52467">
        <ele>455.9</ele>
        <time>2016-01-24T13:19:58Z</time>
      </trkpt>
      <trkpt lat="43.74358" lon="3.52454">
        <ele>457.8</ele>
        <time>2016-01-24T13:20:11Z</time>
      </trkpt>
      <trkpt lat="43.74355" lon="3.52442">
        <ele>459.3</ele>
        <time>2016-01-24T13:20:23Z</time>
      </trkpt>
      <trkpt lat="43.74349" lon="3.52432">
        <ele>460.8</ele>
        <time>2016-01-24T13:20:32Z</time>
      </trkpt>
      <trkpt lat="43.74353" lon="3.5242">
        <ele>462.9</ele>
        <time>2016-01-24T13:20:48Z</time>
      </trkpt>
      <trkpt lat="43.7436" lon="3.52411">
        <ele>464.5</ele>
        <time>2016-01-24T13:21:01Z</time>
      </trkpt>
      <trkpt lat="43.74366" lon="3.52402">
        <ele>466.1</ele>
        <time>2016-01-24T13:21:16Z</time>
      </trkpt>
      <trkpt lat="43.74373" lon="3.52392">
        <ele>467.3</ele>
        <time>2016-01-24T13:21:26Z</time>
      </trkpt>
      <trkpt lat="43.74375" lon="3.52379">
        <ele>468.2</ele>
        <time>2016-01-24T13:21:36Z</time>
      </trkpt>
      <trkpt lat="43.74374" lon="3.52367">
        <ele>469.1</ele>
        <time>2016-01-24T13:21:46Z</time>
      </trkpt>
      <trkpt lat="43.74374" lon="3.52353">
        <ele>470.3</ele>
        <time>2016-01-24T13:21:57Z</time>
      </trkpt>
      <trkpt lat="43.74374" lon="3.5234">
        <ele>471.6</ele>
        <time>2016-01-24T13:22:08Z</time>
      </trkpt>
      <trkpt lat="43.74374" lon="3.52326">
        <ele>472.8</ele>
        <time>2016-01-24T13:22:18Z</time>
      </trkpt>
      <trkpt lat="43.74373" lon="3.52313">
        <ele>474.1</ele>
        <time>2016-01-24T13:22:30Z</time>
      </trkpt>
      <trkpt lat="43.74372" lon="3.52299">
        <ele>475.6</ele>
        <time>2016-01-24T13:22:44Z</time>
      </trkpt>
      <trkpt lat="43.74372" lon="3.52286">
        <ele>477</ele>
        <time>2016-01-24T13:22:56Z</time>
      </trkpt>
      <trkpt lat="43.7438" lon="3.52279">
        <ele>480.1</ele>
        <time>2016-01-24T13:30:51Z</time>
      </trkpt>
      <trkpt lat="43.7439" lon="3.52275">
        <ele>480.1</ele>
        <time>2016-01-24T13:32:03Z</time>
      </trkpt>
      <trkpt lat="43.74399" lon="3.52276">
        <ele>479.9</ele>
        <time>2016-01-24T13:32:09Z</time>
      </trkpt>
      <trkpt lat="43.74408" lon="3.52271">
        <ele>479.5</ele>
        <time>2016-01-24T13:32:18Z</time>
      </trkpt>
      <trkpt lat="43.74416" lon="3.52264">
        <ele>479.2</ele>
        <time>2016-01-24T13:32:27Z</time>
      </trkpt>
      <trkpt lat="43.74421" lon="3.52252">
        <ele>478.9</ele>
        <time>2016-01-24T13:32:35Z</time>
      </trkpt>
      <trkpt lat="43.74426" lon="3.5224">
        <ele>478.7</ele>
        <time>2016-01-24T13:32:44Z</time>
      </trkpt>
      <trkpt lat="43.74432" lon="3.52229">
        <ele>478.5</ele>
        <time>2016-01-24T13:32:52Z</time>
      </trkpt>
      <trkpt lat="43.74439" lon="3.5222">
        <ele>478.5</ele>
        <time>2016-01-24T13:33:01Z</time>
      </trkpt>
      <trkpt lat="43.74448" lon="3.52214">
        <ele>478.3</ele>
        <time>2016-01-24T13:33:10Z</time>
      </trkpt>
      <trkpt lat="43.74457" lon="3.52209">
        <ele>478.1</ele>
        <time>2016-01-24T13:33:18Z</time>
      </trkpt>
      <trkpt lat="43.74466" lon="3.52208">
        <ele>478</ele>
        <time>2016-01-24T13:33:26Z</time>
      </trkpt>
      <trkpt lat="43.74476" lon="3.52208">
        <ele>477.9</ele>
        <time>2016-01-24T13:33:34Z</time>
      </trkpt>
      <trkpt lat="43.74485" lon="3.52206">
        <ele>477.8</ele>
        <time>2016-01-24T13:33:40Z</time>
      </trkpt>
      <trkpt lat="43.74494" lon="3.52207">
        <ele>477.7</ele>
        <time>2016-01-24T13:33:49Z</time>
      </trkpt>
      <trkpt lat="43.74504" lon="3.52207">
        <ele>477.4</ele>
        <time>2016-01-24T13:33:57Z</time>
      </trkpt>
      <trkpt lat="43.74514" lon="3.52204">
        <ele>477.3</ele>
        <time>2016-01-24T13:34:05Z</time>
      </trkpt>
      <trkpt lat="43.74522" lon="3.52198">
        <ele>477</ele>
        <time>2016-01-24T13:34:11Z</time>
      </trkpt>
      <trkpt lat="43.74531" lon="3.52191">
        <ele>476.8</ele>
        <time>2016-01-24T13:34:19Z</time>
      </trkpt>
      <trkpt lat="43.7454" lon="3.52187">
        <ele>476.6</ele>
        <time>2016-01-24T13:34:27Z</time>
      </trkpt>
      <trkpt lat="43.74549" lon="3.5219">
        <ele>476.4</ele>
        <time>2016-01-24T13:34:34Z</time>
      </trkpt>
      <trkpt lat="43.74557" lon="3.52199">
        <ele>476.3</ele>
        <time>2016-01-24T13:34:41Z</time>
      </trkpt>
      <trkpt lat="43.74562" lon="3.5221">
        <ele>476.3</ele>
        <time>2016-01-24T13:34:48Z</time>
      </trkpt>
      <trkpt lat="43.74562" lon="3.52223">
        <ele>476.5</ele>
        <time>2016-01-24T13:34:57Z</time>
      </trkpt>
      <trkpt lat="43.7457" lon="3.52227">
        <ele>476.6</ele>
        <time>2016-01-24T13:35:34Z</time>
      </trkpt>
      <trkpt lat="43.74573" lon="3.52239">
        <ele>476.9</ele>
        <time>2016-01-24T13:36:00Z</time>
      </trkpt>
      <trkpt lat="43.74573" lon="3.52252">
        <ele>476.8</ele>
        <time>2016-01-24T13:36:08Z</time>
      </trkpt>
      <trkpt lat="43.74568" lon="3.52264">
        <ele>476.7</ele>
        <time>2016-01-24T13:36:16Z</time>
      </trkpt>
      <trkpt lat="43.74569" lon="3.52278">
        <ele>476.6</ele>
        <time>2016-01-24T13:36:27Z</time>
      </trkpt>
      <trkpt lat="43.7457" lon="3.5229">
        <ele>476.4</ele>
        <time>2016-01-24T13:36:35Z</time>
      </trkpt>
      <trkpt lat="43.74571" lon="3.52303">
        <ele>476</ele>
        <time>2016-01-24T13:36:43Z</time>
      </trkpt>
      <trkpt lat="43.74571" lon="3.52316">
        <ele>475.5</ele>
        <time>2016-01-24T13:36:52Z</time>
      </trkpt>
      <trkpt lat="43.74568" lon="3.52328">
        <ele>475.1</ele>
        <time>2016-01-24T13:37:01Z</time>
      </trkpt>
      <trkpt lat="43.74562" lon="3.5234">
        <ele>474.7</ele>
        <time>2016-01-24T13:37:08Z</time>
      </trkpt>
      <trkpt lat="43.74557" lon="3.52352">
        <ele>474.3</ele>
        <time>2016-01-24T13:37:15Z</time>
      </trkpt>
      <trkpt lat="43.74561" lon="3.52363">
        <ele>473.8</ele>
        <time>2016-01-24T13:37:23Z</time>
      </trkpt>
      <trkpt lat="43.74568" lon="3.52373">
        <ele>473.2</ele>
        <time>2016-01-24T13:37:30Z</time>
      </trkpt>
      <trkpt lat="43.74575" lon="3.5238">
        <ele>472.2</ele>
        <time>2016-01-24T13:37:39Z</time>
      </trkpt>
      <trkpt lat="43.74584" lon="3.52385">
        <ele>471.3</ele>
        <time>2016-01-24T13:37:48Z</time>
      </trkpt>
      <trkpt lat="43.74593" lon="3.52392">
        <ele>469.6</ele>
        <time>2016-01-24T13:38:00Z</time>
      </trkpt>
      <trkpt lat="43.74601" lon="3.52398">
        <ele>468.6</ele>
        <time>2016-01-24T13:38:07Z</time>
      </trkpt>
      <trkpt lat="43.74608" lon="3.52406">
        <ele>467.9</ele>
        <time>2016-01-24T13:38:14Z</time>
      </trkpt>
      <trkpt lat="43.7461" lon="3.52418">
        <ele>467.4</ele>
        <time>2016-01-24T13:38:22Z</time>
      </trkpt>
      <trkpt lat="43.74605" lon="3.52428">
        <ele>466.9</ele>
        <time>2016-01-24T13:38:30Z</time>
      </trkpt>
      <trkpt lat="43.74605" lon="3.52442">
        <ele>466.1</ele>
        <time>2016-01-24T13:38:42Z</time>
      </trkpt>
      <trkpt lat="43.746" lon="3.52454">
        <ele>465.5</ele>
        <time>2016-01-24T13:38:51Z</time>
      </trkpt>
      <trkpt lat="43.74601" lon="3.52467">
        <ele>464.4</ele>
        <time>2016-01-24T13:39:00Z</time>
      </trkpt>
      <trkpt lat="43.74594" lon="3.52475">
        <ele>462.6</ele>
        <time>2016-01-24T13:39:27Z</time>
      </trkpt>
      <trkpt lat="43.74587" lon="3.52484">
        <ele>461.9</ele>
        <time>2016-01-24T13:39:59Z</time>
      </trkpt>
      <trkpt lat="43.74579" lon="3.52492">
        <ele>461.3</ele>
        <time>2016-01-24T13:40:04Z</time>
      </trkpt>
      <trkpt lat="43.74578" lon="3.52506">
        <ele>460.5</ele>
        <time>2016-01-24T13:40:12Z</time>
      </trkpt>
      <trkpt lat="43.74576" lon="3.52519">
        <ele>459.8</ele>
        <time>2016-01-24T13:40:20Z</time>
      </trkpt>
      <trkpt lat="43.74575" lon="3.52532">
        <ele>459.2</ele>
        <time>2016-01-24T13:40:28Z</time>
      </trkpt>
      <trkpt lat="43.74574" lon="3.52546">
        <ele>458.8</ele>
        <time>2016-01-24T13:40:35Z</time>
      </trkpt>
      <trkpt lat="43.74576" lon="3.5256">
        <ele>458.1</ele>
        <time>2016-01-24T13:40:43Z</time>
      </trkpt>
      <trkpt lat="43.74578" lon="3.52573">
        <ele>457.7</ele>
        <time>2016-01-24T13:40:50Z</time>
      </trkpt>
      <trkpt lat="43.74581" lon="3.52587">
        <ele>457.4</ele>
        <time>2016-01-24T13:40:58Z</time>
      </trkpt>
      <trkpt lat="43.74581" lon="3.526">
        <ele>457.3</ele>
        <time>2016-01-24T13:41:05Z</time>
      </trkpt>
      <trkpt lat="43.74586" lon="3.52612">
        <ele>457.2</ele>
        <time>2016-01-24T13:41:13Z</time>
      </trkpt>
      <trkpt lat="43.74589" lon="3.52624">
        <ele>457.2</ele>
        <time>2016-01-24T13:41:20Z</time>
      </trkpt>
      <trkpt lat="43.7459" lon="3.52637">
        <ele>457.3</ele>
        <time>2016-01-24T13:41:28Z</time>
      </trkpt>
      <trkpt lat="43.74589" lon="3.5265">
        <ele>457.5</ele>
        <time>2016-01-24T13:41:35Z</time>
      </trkpt>
      <trkpt lat="43.74589" lon="3.52663">
        <ele>457.7</ele>
        <time>2016-01-24T13:41:42Z</time>
      </trkpt>
      <trkpt lat="43.7459" lon="3.52675">
        <ele>457.7</ele>
        <time>2016-01-24T13:41:50Z</time>
      </trkpt>
      <trkpt lat="43.74593" lon="3.52687">
        <ele>457.7</ele>
        <time>2016-01-24T13:41:57Z</time>
      </trkpt>
      <trkpt lat="43.74596" lon="3.527">
        <ele>457.9</ele>
        <time>2016-01-24T13:42:06Z</time>
      </trkpt>
      <trkpt lat="43.74604" lon="3.52708">
        <ele>458.1</ele>
        <time>2016-01-24T13:42:16Z</time>
      </trkpt>
      <trkpt lat="43.74613" lon="3.52715">
        <ele>458.2</ele>
        <time>2016-01-24T13:42:25Z</time>
      </trkpt>
      <trkpt lat="43.7462" lon="3.52723">
        <ele>458.4</ele>
        <time>2016-01-24T13:42:33Z</time>
      </trkpt>
      <trkpt lat="43.74627" lon="3.52732">
        <ele>458.6</ele>
        <time>2016-01-24T13:42:40Z</time>
      </trkpt>
      <trkpt lat="43.74635" lon="3.5274">
        <ele>458.9</ele>
        <time>2016-01-24T13:42:47Z</time>
      </trkpt>
      <trkpt lat="43.74642" lon="3.52747">
        <ele>459.1</ele>
        <time>2016-01-24T13:42:54Z</time>
      </trkpt>
      <trkpt lat="43.74651" lon="3.52751">
        <ele>459.4</ele>
        <time>2016-01-24T13:43:01Z</time>
      </trkpt>
      <trkpt lat="43.7466" lon="3.52755">
        <ele>459.6</ele>
        <time>2016-01-24T13:43:09Z</time>
      </trkpt>
      <trkpt lat="43.7467" lon="3.52754">
        <ele>459.7</ele>
        <time>2016-01-24T13:43:17Z</time>
      </trkpt>
      <trkpt lat="43.74679" lon="3.52756">
        <ele>459.8</ele>
        <time>2016-01-24T13:43:24Z</time>
      </trkpt>
      <trkpt lat="43.74689" lon="3.5276">
        <ele>459.9</ele>
        <time>2016-01-24T13:43:32Z</time>
      </trkpt>
      <trkpt lat="43.74698" lon="3.52764">
        <ele>460</ele>
        <time>2016-01-24T13:43:39Z</time>
      </trkpt>
      <trkpt lat="43.74707" lon="3.5277">
        <ele>460.2</ele>
        <time>2016-01-24T13:43:46Z</time>
      </trkpt>
      <trkpt lat="43.74714" lon="3.52777">
        <ele>460.4</ele>
        <time>2016-01-24T13:43:53Z</time>
      </trkpt>
      <trkpt lat="43.74721" lon="3.52786">
        <ele>460.6</ele>
        <time>2016-01-24T13:44:00Z</time>
      </trkpt>
      <trkpt lat="43.74728" lon="3.52794">
        <ele>460.8</ele>
        <time>2016-01-24T13:44:08Z</time>
      </trkpt>
      <trkpt lat="43.74737" lon="3.52801">
        <ele>460.9</ele>
        <time>2016-01-24T13:44:15Z</time>
      </trkpt>
      <trkpt lat="43.74744" lon="3.52811">
        <ele>461</ele>
        <time>2016-01-24T13:44:22Z</time>
      </trkpt>
      <trkpt lat="43.74753" lon="3.52818">
        <ele>460.9</ele>
        <time>2016-01-24T13:44:30Z</time>
      </trkpt>
      <trkpt lat="43.74762" lon="3.52824">
        <ele>460.7</ele>
        <time>2016-01-24T13:44:38Z</time>
      </trkpt>
      <trkpt lat="43.74772" lon="3.52825">
        <ele>460.7</ele>
        <time>2016-01-24T13:44:46Z</time>
      </trkpt>
      <trkpt lat="43.74782" lon="3.52824">
        <ele>460.7</ele>
        <time>2016-01-24T13:44:54Z</time>
      </trkpt>
      <trkpt lat="43.74791" lon="3.52822">
        <ele>460.7</ele>
        <time>2016-01-24T13:45:01Z</time>
      </trkpt>
      <trkpt lat="43.748" lon="3.52826">
        <ele>460.7</ele>
        <time>2016-01-24T13:45:09Z</time>
      </trkpt>
      <trkpt lat="43.74807" lon="3.52833">
        <ele>460.7</ele>
        <time>2016-01-24T13:45:14Z</time>
      </trkpt>
      <trkpt lat="43.74814" lon="3.52841">
        <ele>460.8</ele>
        <time>2016-01-24T13:45:21Z</time>
      </trkpt>
      <trkpt lat="43.74818" lon="3.52853">
        <ele>460.8</ele>
        <time>2016-01-24T13:45:28Z</time>
      </trkpt>
      <trkpt lat="43.74823" lon="3.52863">
        <ele>460.8</ele>
        <time>2016-01-24T13:45:34Z</time>
      </trkpt>
      <trkpt lat="43.74825" lon="3.52876">
        <ele>460.9</ele>
        <time>2016-01-24T13:45:41Z</time>
      </trkpt>
      <trkpt lat="43.74826" lon="3.52889">
        <ele>460.9</ele>
        <time>2016-01-24T13:45:48Z</time>
      </trkpt>
      <trkpt lat="43.74825" lon="3.52901">
        <ele>460.8</ele>
        <time>2016-01-24T13:45:55Z</time>
      </trkpt>
      <trkpt lat="43.74825" lon="3.52914">
        <ele>460.7</ele>
        <time>2016-01-24T13:46:02Z</time>
      </trkpt>
      <trkpt lat="43.74823" lon="3.52926">
        <ele>460.5</ele>
        <time>2016-01-24T13:46:09Z</time>
      </trkpt>
      <trkpt lat="43.74825" lon="3.52939">
        <ele>460.3</ele>
        <time>2016-01-24T13:46:18Z</time>
      </trkpt>
      <trkpt lat="43.74824" lon="3.52953">
        <ele>460.3</ele>
        <time>2016-01-24T13:46:27Z</time>
      </trkpt>
      <trkpt lat="43.74816" lon="3.5296">
        <ele>460.5</ele>
        <time>2016-01-24T13:46:35Z</time>
      </trkpt>
      <trkpt lat="43.74807" lon="3.52965">
        <ele>460.8</ele>
        <time>2016-01-24T13:46:42Z</time>
      </trkpt>
      <trkpt lat="43.74798" lon="3.52968">
        <ele>461.7</ele>
        <time>2016-01-24T13:46:51Z</time>
      </trkpt>
      <trkpt lat="43.74788" lon="3.52967">
        <ele>462.3</ele>
        <time>2016-01-24T13:46:58Z</time>
      </trkpt>
      <trkpt lat="43.74779" lon="3.52964">
        <ele>462.8</ele>
        <time>2016-01-24T13:47:06Z</time>
      </trkpt>
      <trkpt lat="43.74769" lon="3.52966">
        <ele>463.4</ele>
        <time>2016-01-24T13:47:13Z</time>
      </trkpt>
      <trkpt lat="43.7476" lon="3.52964">
        <ele>463.9</ele>
        <time>2016-01-24T13:47:19Z</time>
      </trkpt>
      <trkpt lat="43.7475" lon="3.52965">
        <ele>464.4</ele>
        <time>2016-01-24T13:47:26Z</time>
      </trkpt>
      <trkpt lat="43.74741" lon="3.52967">
        <ele>464.9</ele>
        <time>2016-01-24T13:47:33Z</time>
      </trkpt>
      <trkpt lat="43.74732" lon="3.52972">
        <ele>465.4</ele>
        <time>2016-01-24T13:47:43Z</time>
      </trkpt>
      <trkpt lat="43.74724" lon="3.5298">
        <ele>465.7</ele>
        <time>2016-01-24T13:47:56Z</time>
      </trkpt>
      <trkpt lat="43.74718" lon="3.52989">
        <ele>465.7</ele>
        <time>2016-01-24T13:48:04Z</time>
      </trkpt>
      <trkpt lat="43.74709" lon="3.52997">
        <ele>465.5</ele>
        <time>2016-01-24T13:48:13Z</time>
      </trkpt>
      <trkpt lat="43.747" lon="3.52996">
        <ele>465.1</ele>
        <time>2016-01-24T13:48:19Z</time>
      </trkpt>
      <trkpt lat="43.7469" lon="3.52995">
        <ele>464.6</ele>
        <time>2016-01-24T13:48:27Z</time>
      </trkpt>
      <trkpt lat="43.74683" lon="3.52986">
        <ele>464.4</ele>
        <time>2016-01-24T13:48:36Z</time>
      </trkpt>
      <trkpt lat="43.74675" lon="3.52979">
        <ele>464.2</ele>
        <time>2016-01-24T13:48:44Z</time>
      </trkpt>
      <trkpt lat="43.74666" lon="3.52975">
        <ele>463.8</ele>
        <time>2016-01-24T13:48:52Z</time>
      </trkpt>
      <trkpt lat="43.74656" lon="3.52976">
        <ele>463.1</ele>
        <time>2016-01-24T13:49:01Z</time>
      </trkpt>
      <trkpt lat="43.74647" lon="3.5298">
        <ele>462.4</ele>
        <time>2016-01-24T13:49:10Z</time>
      </trkpt>
      <trkpt lat="43.74638" lon="3.52983">
        <ele>461.5</ele>
        <time>2016-01-24T13:49:20Z</time>
      </trkpt>
      <trkpt lat="43.74632" lon="3.52994">
        <ele>460.5</ele>
        <time>2016-01-24T13:49:32Z</time>
      </trkpt>
      <trkpt lat="43.74633" lon="3.53007">
        <ele>459.9</ele>
        <time>2016-01-24T13:49:40Z</time>
      </trkpt>
      <trkpt lat="43.74641" lon="3.53016">
        <ele>459.2</ele>
        <time>2016-01-24T13:49:45Z</time>
      </trkpt>
      <trkpt lat="43.74642" lon="3.53028">
        <ele>458.2</ele>
        <time>2016-01-24T13:49:55Z</time>
      </trkpt>
      <trkpt lat="43.74642" lon="3.53041">
        <ele>457.6</ele>
        <time>2016-01-24T13:50:02Z</time>
      </trkpt>
      <trkpt lat="43.74645" lon="3.53054">
        <ele>457.2</ele>
        <time>2016-01-24T13:50:10Z</time>
      </trkpt>
      <trkpt lat="43.7465" lon="3.53065">
        <ele>456.9</ele>
        <time>2016-01-24T13:50:19Z</time>
      </trkpt>
      <trkpt lat="43.74653" lon="3.53077">
        <ele>456.8</ele>
        <time>2016-01-24T13:50:26Z</time>
      </trkpt>
      <trkpt lat="43.74654" lon="3.53091">
        <ele>456.8</ele>
        <time>2016-01-24T13:50:34Z</time>
      </trkpt>
      <trkpt lat="43.74653" lon="3.53104">
        <ele>457</ele>
        <time>2016-01-24T13:50:42Z</time>
      </trkpt>
      <trkpt lat="43.74654" lon="3.53117">
        <ele>457.4</ele>
        <time>2016-01-24T13:50:50Z</time>
      </trkpt>
      <trkpt lat="43.74654" lon="3.5313">
        <ele>458.4</ele>
        <time>2016-01-24T13:50:59Z</time>
      </trkpt>
      <trkpt lat="43.74653" lon="3.53143">
        <ele>459.3</ele>
        <time>2016-01-24T13:51:08Z</time>
      </trkpt>
      <trkpt lat="43.74651" lon="3.53155">
        <ele>460.3</ele>
        <time>2016-01-24T13:51:17Z</time>
      </trkpt>
      <trkpt lat="43.74646" lon="3.53167">
        <ele>461.2</ele>
        <time>2016-01-24T13:51:25Z</time>
      </trkpt>
      <trkpt lat="43.74643" lon="3.53179">
        <ele>462.2</ele>
        <time>2016-01-24T13:51:34Z</time>
      </trkpt>
      <trkpt lat="43.74642" lon="3.53192">
        <ele>463.4</ele>
        <time>2016-01-24T13:51:45Z</time>
      </trkpt>
      <trkpt lat="43.74648" lon="3.53202">
        <ele>465.6</ele>
        <time>2016-01-24T13:52:00Z</time>
      </trkpt>
      <trkpt lat="43.74651" lon="3.53214">
        <ele>466.8</ele>
        <time>2016-01-24T13:52:08Z</time>
      </trkpt>
      <trkpt lat="43.74653" lon="3.53228">
        <ele>468.3</ele>
        <time>2016-01-24T13:52:18Z</time>
      </trkpt>
      <trkpt lat="43.74653" lon="3.53241">
        <ele>470.1</ele>
        <time>2016-01-24T13:52:32Z</time>
      </trkpt>
      <trkpt lat="43.74653" lon="3.53254">
        <ele>471.8</ele>
        <time>2016-01-24T13:52:52Z</time>
      </trkpt>
      <trkpt lat="43.74653" lon="3.53267">
        <ele>472.6</ele>
        <time>2016-01-24T13:53:02Z</time>
      </trkpt>
      <trkpt lat="43.74653" lon="3.5328">
        <ele>473.5</ele>
        <time>2016-01-24T13:53:13Z</time>
      </trkpt>
      <trkpt lat="43.74656" lon="3.53292">
        <ele>478</ele>
        <time>2016-01-24T13:55:00Z</time>
      </trkpt>
      <trkpt lat="43.74652" lon="3.53305">
        <ele>478.7</ele>
        <time>2016-01-24T13:55:27Z</time>
      </trkpt>
      <trkpt lat="43.74644" lon="3.533">
        <ele>478.8</ele>
        <time>2016-01-24T13:55:39Z</time>
      </trkpt>
      <trkpt lat="43.74652" lon="3.53304">
        <ele>479.3</ele>
        <time>2016-01-24T13:58:07Z</time>
      </trkpt>
      <trkpt lat="43.74661" lon="3.53309">
        <ele>479.4</ele>
        <time>2016-01-24T13:58:15Z</time>
      </trkpt>
      <trkpt lat="43.7467" lon="3.53307">
        <ele>479.5</ele>
        <time>2016-01-24T13:58:23Z</time>
      </trkpt>
      <trkpt lat="43.74679" lon="3.53302">
        <ele>479.5</ele>
        <time>2016-01-24T13:58:33Z</time>
      </trkpt>
      <trkpt lat="43.74688" lon="3.53299">
        <ele>479.2</ele>
        <time>2016-01-24T13:58:40Z</time>
      </trkpt>
      <trkpt lat="43.74696" lon="3.53292">
        <ele>478.7</ele>
        <time>2016-01-24T13:58:49Z</time>
      </trkpt>
      <trkpt lat="43.74704" lon="3.53284">
        <ele>478.3</ele>
        <time>2016-01-24T13:58:56Z</time>
      </trkpt>
      <trkpt lat="43.74712" lon="3.53277">
        <ele>477.8</ele>
        <time>2016-01-24T13:59:05Z</time>
      </trkpt>
      <trkpt lat="43.74721" lon="3.53278">
        <ele>477.6</ele>
        <time>2016-01-24T13:59:11Z</time>
      </trkpt>
      <trkpt lat="43.7473" lon="3.53281">
        <ele>477.5</ele>
        <time>2016-01-24T13:59:19Z</time>
      </trkpt>
      <trkpt lat="43.7474" lon="3.53284">
        <ele>477.7</ele>
        <time>2016-01-24T13:59:26Z</time>
      </trkpt>
      <trkpt lat="43.74749" lon="3.53283">
        <ele>477.9</ele>
        <time>2016-01-24T13:59:33Z</time>
      </trkpt>
      <trkpt lat="43.74759" lon="3.53285">
        <ele>478.1</ele>
        <time>2016-01-24T13:59:41Z</time>
      </trkpt>
      <trkpt lat="43.74768" lon="3.53289">
        <ele>478.3</ele>
        <time>2016-01-24T13:59:47Z</time>
      </trkpt>
      <trkpt lat="43.74775" lon="3.53297">
        <ele>478.8</ele>
        <time>2016-01-24T14:00:01Z</time>
      </trkpt>
      <trkpt lat="43.74784" lon="3.53302">
        <ele>478.9</ele>
        <time>2016-01-24T14:00:08Z</time>
      </trkpt>
      <trkpt lat="43.74792" lon="3.53307">
        <ele>479</ele>
        <time>2016-01-24T14:00:15Z</time>
      </trkpt>
      <trkpt lat="43.74801" lon="3.53313">
        <ele>479.1</ele>
        <time>2016-01-24T14:00:23Z</time>
      </trkpt>
      <trkpt lat="43.74809" lon="3.53318">
        <ele>479.4</ele>
        <time>2016-01-24T14:00:31Z</time>
      </trkpt>
      <trkpt lat="43.74818" lon="3.5332">
        <ele>479.8</ele>
        <time>2016-01-24T14:00:39Z</time>
      </trkpt>
      <trkpt lat="43.74827" lon="3.53315">
        <ele>480.3</ele>
        <time>2016-01-24T14:00:49Z</time>
      </trkpt>
      <trkpt lat="43.74835" lon="3.53307">
        <ele>480.3</ele>
        <time>2016-01-24T14:00:58Z</time>
      </trkpt>
      <trkpt lat="43.74843" lon="3.53302">
        <ele>480.1</ele>
        <time>2016-01-24T14:01:06Z</time>
      </trkpt>
      <trkpt lat="43.74852" lon="3.53299">
        <ele>479.9</ele>
        <time>2016-01-24T14:01:15Z</time>
      </trkpt>
      <trkpt lat="43.74862" lon="3.53294">
        <ele>479.7</ele>
        <time>2016-01-24T14:01:25Z</time>
      </trkpt>
      <trkpt lat="43.7487" lon="3.53287">
        <ele>479.3</ele>
        <time>2016-01-24T14:01:33Z</time>
      </trkpt>
      <trkpt lat="43.74878" lon="3.53278">
        <ele>479</ele>
        <time>2016-01-24T14:01:41Z</time>
      </trkpt>
      <trkpt lat="43.74884" lon="3.53269">
        <ele>478.8</ele>
        <time>2016-01-24T14:01:49Z</time>
      </trkpt>
      <trkpt lat="43.74889" lon="3.53258">
        <ele>478.7</ele>
        <time>2016-01-24T14:01:56Z</time>
      </trkpt>
      <trkpt lat="43.74896" lon="3.53248">
        <ele>478.7</ele>
        <time>2016-01-24T14:02:04Z</time>
      </trkpt>
      <trkpt lat="43.74906" lon="3.53244">
        <ele>478.8</ele>
        <time>2016-01-24T14:02:12Z</time>
      </trkpt>
      <trkpt lat="43.74914" lon="3.5325">
        <ele>478.9</ele>
        <time>2016-01-24T14:02:19Z</time>
      </trkpt>
      <trkpt lat="43.74923" lon="3.53255">
        <ele>479.1</ele>
        <time>2016-01-24T14:02:27Z</time>
      </trkpt>
      <trkpt lat="43.74932" lon="3.53261">
        <ele>479.4</ele>
        <time>2016-01-24T14:02:35Z</time>
      </trkpt>
      <trkpt lat="43.74939" lon="3.53268">
        <ele>479.8</ele>
        <time>2016-01-24T14:02:43Z</time>
      </trkpt>
      <trkpt lat="43.74946" lon="3.53277">
        <ele>480.2</ele>
        <time>2016-01-24T14:02:50Z</time>
      </trkpt>
      <trkpt lat="43.74952" lon="3.53286">
        <ele>480.5</ele>
        <time>2016-01-24T14:02:58Z</time>
      </trkpt>
      <trkpt lat="43.74961" lon="3.5329">
        <ele>480.7</ele>
        <time>2016-01-24T14:03:05Z</time>
      </trkpt>
      <trkpt lat="43.74971" lon="3.53293">
        <ele>481</ele>
        <time>2016-01-24T14:03:14Z</time>
      </trkpt>
      <trkpt lat="43.74981" lon="3.53292">
        <ele>481.3</ele>
        <time>2016-01-24T14:03:23Z</time>
      </trkpt>
      <trkpt lat="43.7499" lon="3.53296">
        <ele>481.8</ele>
        <time>2016-01-24T14:03:32Z</time>
      </trkpt>
      <trkpt lat="43.74997" lon="3.53305">
        <ele>482.2</ele>
        <time>2016-01-24T14:03:39Z</time>
      </trkpt>
      <trkpt lat="43.75002" lon="3.53317">
        <ele>482.5</ele>
        <time>2016-01-24T14:03:46Z</time>
      </trkpt>
      <trkpt lat="43.75007" lon="3.53329">
        <ele>482.6</ele>
        <time>2016-01-24T14:03:53Z</time>
      </trkpt>
      <trkpt lat="43.75015" lon="3.53339">
        <ele>482.7</ele>
        <time>2016-01-24T14:04:00Z</time>
      </trkpt>
      <trkpt lat="43.75023" lon="3.53346">
        <ele>482.8</ele>
        <time>2016-01-24T14:04:09Z</time>
      </trkpt>
      <trkpt lat="43.75033" lon="3.53342">
        <ele>482.9</ele>
        <time>2016-01-24T14:04:17Z</time>
      </trkpt>
      <trkpt lat="43.75039" lon="3.53333">
        <ele>483</ele>
        <time>2016-01-24T14:04:24Z</time>
      </trkpt>
      <trkpt lat="43.75049" lon="3.53327">
        <ele>483</ele>
        <time>2016-01-24T14:04:33Z</time>
      </trkpt>
      <trkpt lat="43.75058" lon="3.53327">
        <ele>483.3</ele>
        <time>2016-01-24T14:04:40Z</time>
      </trkpt>
      <trkpt lat="43.75067" lon="3.53325">
        <ele>483.7</ele>
        <time>2016-01-24T14:04:48Z</time>
      </trkpt>
      <trkpt lat="43.75077" lon="3.53329">
        <ele>484.2</ele>
        <time>2016-01-24T14:04:55Z</time>
      </trkpt>
      <trkpt lat="43.75085" lon="3.53335">
        <ele>484.6</ele>
        <time>2016-01-24T14:05:01Z</time>
      </trkpt>
      <trkpt lat="43.75095" lon="3.53341">
        <ele>484.9</ele>
        <time>2016-01-24T14:05:08Z</time>
      </trkpt>
      <trkpt lat="43.75105" lon="3.53342">
        <ele>485.1</ele>
        <time>2016-01-24T14:05:16Z</time>
      </trkpt>
      <trkpt lat="43.75114" lon="3.53338">
        <ele>485.1</ele>
        <time>2016-01-24T14:05:25Z</time>
      </trkpt>
      <trkpt lat="43.75121" lon="3.53329">
        <ele>484.8</ele>
        <time>2016-01-24T14:05:33Z</time>
      </trkpt>
      <trkpt lat="43.75126" lon="3.53318">
        <ele>484.5</ele>
        <time>2016-01-24T14:05:40Z</time>
      </trkpt>
      <trkpt lat="43.75134" lon="3.5331">
        <ele>484.3</ele>
        <time>2016-01-24T14:05:47Z</time>
      </trkpt>
      <trkpt lat="43.75144" lon="3.5331">
        <ele>484.1</ele>
        <time>2016-01-24T14:05:54Z</time>
      </trkpt>
      <trkpt lat="43.75154" lon="3.53311">
        <ele>484</ele>
        <time>2016-01-24T14:06:01Z</time>
      </trkpt>
      <trkpt lat="43.7516" lon="3.53301">
        <ele>484.1</ele>
        <time>2016-01-24T14:06:11Z</time>
      </trkpt>
      <trkpt lat="43.75163" lon="3.53289">
        <ele>484.5</ele>
        <time>2016-01-24T14:06:20Z</time>
      </trkpt>
      <trkpt lat="43.75168" lon="3.53277">
        <ele>485.1</ele>
        <time>2016-01-24T14:06:28Z</time>
      </trkpt>
      <trkpt lat="43.75177" lon="3.53277">
        <ele>485.4</ele>
        <time>2016-01-24T14:06:34Z</time>
      </trkpt>
      <trkpt lat="43.75186" lon="3.53285">
        <ele>485.7</ele>
        <time>2016-01-24T14:06:41Z</time>
      </trkpt>
      <trkpt lat="43.75189" lon="3.53297">
        <ele>486.1</ele>
        <time>2016-01-24T14:06:48Z</time>
      </trkpt>
      <trkpt lat="43.75192" lon="3.53309">
        <ele>486.3</ele>
        <time>2016-01-24T14:06:55Z</time>
      </trkpt>
      <trkpt lat="43.75191" lon="3.53322">
        <ele>486.5</ele>
        <time>2016-01-24T14:07:03Z</time>
      </trkpt>
      <trkpt lat="43.75191" lon="3.53335">
        <ele>485.9</ele>
        <time>2016-01-24T14:07:10Z</time>
      </trkpt>
      <trkpt lat="43.7519" lon="3.53349">
        <ele>485.3</ele>
        <time>2016-01-24T14:07:18Z</time>
      </trkpt>
      <trkpt lat="43.75191" lon="3.53362">
        <ele>485</ele>
        <time>2016-01-24T14:07:25Z</time>
      </trkpt>
      <trkpt lat="43.75189" lon="3.53375">
        <ele>484.6</ele>
        <time>2016-01-24T14:07:32Z</time>
      </trkpt>
      <trkpt lat="43.75185" lon="3.53386">
        <ele>484.2</ele>
        <time>2016-01-24T14:07:39Z</time>
      </trkpt>
      <trkpt lat="43.75188" lon="3.534">
        <ele>483.8</ele>
        <time>2016-01-24T14:07:48Z</time>
      </trkpt>
      <trkpt lat="43.7519" lon="3.53414">
        <ele>483.6</ele>
        <time>2016-01-24T14:07:56Z</time>
      </trkpt>
      <trkpt lat="43.75195" lon="3.53424">
        <ele>483.5</ele>
        <time>2016-01-24T14:08:02Z</time>
      </trkpt>
      <trkpt lat="43.75201" lon="3.53435">
        <ele>483.4</ele>
        <time>2016-01-24T14:08:10Z</time>
      </trkpt>
      <trkpt lat="43.75209" lon="3.53441">
        <ele>483.4</ele>
        <time>2016-01-24T14:08:16Z</time>
      </trkpt>
      <trkpt lat="43.75218" lon="3.53443">
        <ele>483.2</ele>
        <time>2016-01-24T14:08:22Z</time>
      </trkpt>
      <trkpt lat="43.75226" lon="3.53437">
        <ele>483.1</ele>
        <time>2016-01-24T14:08:38Z</time>
      </trkpt>
      <trkpt lat="43.75232" lon="3.53426">
        <ele>483.4</ele>
        <time>2016-01-24T14:08:45Z</time>
      </trkpt>
      <trkpt lat="43.75237" lon="3.53415">
        <ele>483.6</ele>
        <time>2016-01-24T14:08:52Z</time>
      </trkpt>
      <trkpt lat="43.75244" lon="3.53406">
        <ele>483.9</ele>
        <time>2016-01-24T14:08:58Z</time>
      </trkpt>
      <trkpt lat="43.75252" lon="3.53398">
        <ele>484.1</ele>
        <time>2016-01-24T14:09:04Z</time>
      </trkpt>
      <trkpt lat="43.7526" lon="3.53393">
        <ele>484.2</ele>
        <time>2016-01-24T14:09:10Z</time>
      </trkpt>
      <trkpt lat="43.75269" lon="3.53388">
        <ele>484.3</ele>
        <time>2016-01-24T14:09:16Z</time>
      </trkpt>
      <trkpt lat="43.75283" lon="3.53384">
        <ele>484.3</ele>
        <time>2016-01-24T14:09:19Z</time>
      </trkpt>
      <trkpt lat="43.75293" lon="3.53382">
        <ele>484.4</ele>
        <time>2016-01-24T14:09:23Z</time>
      </trkpt>
      <trkpt lat="43.75301" lon="3.53377">
        <ele>484.1</ele>
        <time>2016-01-24T14:09:29Z</time>
      </trkpt>
      <trkpt lat="43.75311" lon="3.53373">
        <ele>483.8</ele>
        <time>2016-01-24T14:09:36Z</time>
      </trkpt>
      <trkpt lat="43.75318" lon="3.53364">
        <ele>483.6</ele>
        <time>2016-01-24T14:09:43Z</time>
      </trkpt>
      <trkpt lat="43.75324" lon="3.53354">
        <ele>483.5</ele>
        <time>2016-01-24T14:09:51Z</time>
      </trkpt>
      <trkpt lat="43.75329" lon="3.53344">
        <ele>483.8</ele>
        <time>2016-01-24T14:09:58Z</time>
      </trkpt>
      <trkpt lat="43.75334" lon="3.53332">
        <ele>484</ele>
        <time>2016-01-24T14:10:06Z</time>
      </trkpt>
      <trkpt lat="43.75339" lon="3.5332">
        <ele>484.5</ele>
        <time>2016-01-24T14:10:14Z</time>
      </trkpt>
      <trkpt lat="43.75347" lon="3.53313">
        <ele>485</ele>
        <time>2016-01-24T14:10:23Z</time>
      </trkpt>
      <trkpt lat="43.75356" lon="3.5331">
        <ele>485.3</ele>
        <time>2016-01-24T14:10:30Z</time>
      </trkpt>
      <trkpt lat="43.75366" lon="3.53314">
        <ele>485.6</ele>
        <time>2016-01-24T14:10:37Z</time>
      </trkpt>
      <trkpt lat="43.75373" lon="3.53322">
        <ele>485.8</ele>
        <time>2016-01-24T14:10:44Z</time>
      </trkpt>
      <trkpt lat="43.75382" lon="3.53327">
        <ele>485.9</ele>
        <time>2016-01-24T14:10:52Z</time>
      </trkpt>
      <trkpt lat="43.75391" lon="3.53319">
        <ele>485.9</ele>
        <time>2016-01-24T14:11:00Z</time>
      </trkpt>
      <trkpt lat="43.75396" lon="3.53309">
        <ele>485.7</ele>
        <time>2016-01-24T14:11:07Z</time>
      </trkpt>
      <trkpt lat="43.75401" lon="3.53299">
        <ele>485.6</ele>
        <time>2016-01-24T14:11:14Z</time>
      </trkpt>
      <trkpt lat="43.75405" lon="3.53286">
        <ele>485.5</ele>
        <time>2016-01-24T14:11:22Z</time>
      </trkpt>
      <trkpt lat="43.75407" lon="3.53272">
        <ele>485.4</ele>
        <time>2016-01-24T14:11:30Z</time>
      </trkpt>
      <trkpt lat="43.75412" lon="3.5326">
        <ele>485.4</ele>
        <time>2016-01-24T14:11:38Z</time>
      </trkpt>
      <trkpt lat="43.7542" lon="3.53251">
        <ele>485.4</ele>
        <time>2016-01-24T14:11:46Z</time>
      </trkpt>
      <trkpt lat="43.7543" lon="3.53252">
        <ele>485.7</ele>
        <time>2016-01-24T14:11:54Z</time>
      </trkpt>
      <trkpt lat="43.75438" lon="3.53259">
        <ele>486.1</ele>
        <time>2016-01-24T14:12:01Z</time>
      </trkpt>
      <trkpt lat="43.75443" lon="3.5327">
        <ele>486.7</ele>
        <time>2016-01-24T14:12:09Z</time>
      </trkpt>
      <trkpt lat="43.75447" lon="3.53283">
        <ele>487.8</ele>
        <time>2016-01-24T14:12:19Z</time>
      </trkpt>
      <trkpt lat="43.75451" lon="3.53294">
        <ele>488.7</ele>
        <time>2016-01-24T14:12:28Z</time>
      </trkpt>
      <trkpt lat="43.75455" lon="3.53306">
        <ele>490</ele>
        <time>2016-01-24T14:12:39Z</time>
      </trkpt>
      <trkpt lat="43.75458" lon="3.53319">
        <ele>491.3</ele>
        <time>2016-01-24T14:12:50Z</time>
      </trkpt>
      <trkpt lat="43.75465" lon="3.53328">
        <ele>492.6</ele>
        <time>2016-01-24T14:13:00Z</time>
      </trkpt>
      <trkpt lat="43.75471" lon="3.5334">
        <ele>493.5</ele>
        <time>2016-01-24T14:13:13Z</time>
      </trkpt>
      <trkpt lat="43.75477" lon="3.53348">
        <ele>493.8</ele>
        <time>2016-01-24T14:13:20Z</time>
      </trkpt>
      <trkpt lat="43.75482" lon="3.53359">
        <ele>494.1</ele>
        <time>2016-01-24T14:13:28Z</time>
      </trkpt>
      <trkpt lat="43.75488" lon="3.5337">
        <ele>494.6</ele>
        <time>2016-01-24T14:13:36Z</time>
      </trkpt>
      <trkpt lat="43.75493" lon="3.53382">
        <ele>495</ele>
        <time>2016-01-24T14:13:43Z</time>
      </trkpt>
      <trkpt lat="43.75498" lon="3.53392">
        <ele>495.2</ele>
        <time>2016-01-24T14:13:49Z</time>
      </trkpt>
      <trkpt lat="43.75501" lon="3.53404">
        <ele>495.4</ele>
        <time>2016-01-24T14:13:56Z</time>
      </trkpt>
      <trkpt lat="43.75503" lon="3.53418">
        <ele>495.5</ele>
        <time>2016-01-24T14:14:04Z</time>
      </trkpt>
      <trkpt lat="43.75507" lon="3.5343">
        <ele>495.5</ele>
        <time>2016-01-24T14:14:11Z</time>
      </trkpt>
      <trkpt lat="43.75513" lon="3.5344">
        <ele>495.2</ele>
        <time>2016-01-24T14:14:18Z</time>
      </trkpt>
      <trkpt lat="43.7552" lon="3.53449">
        <ele>494.7</ele>
        <time>2016-01-24T14:14:25Z</time>
      </trkpt>
      <trkpt lat="43.75528" lon="3.53457">
        <ele>493.9</ele>
        <time>2016-01-24T14:14:32Z</time>
      </trkpt>
      <trkpt lat="43.75536" lon="3.53465">
        <ele>493.3</ele>
        <time>2016-01-24T14:14:38Z</time>
      </trkpt>
      <trkpt lat="43.75539" lon="3.53477">
        <ele>492.8</ele>
        <time>2016-01-24T14:14:48Z</time>
      </trkpt>
      <trkpt lat="43.75548" lon="3.53474">
        <ele>493.3</ele>
        <time>2016-01-24T14:15:06Z</time>
      </trkpt>
      <trkpt lat="43.75554" lon="3.53463">
        <ele>494.2</ele>
        <time>2016-01-24T14:15:17Z</time>
      </trkpt>
      <trkpt lat="43.75555" lon="3.53451">
        <ele>494.9</ele>
        <time>2016-01-24T14:15:25Z</time>
      </trkpt>
      <trkpt lat="43.75554" lon="3.53438">
        <ele>495.6</ele>
        <time>2016-01-24T14:15:33Z</time>
      </trkpt>
      <trkpt lat="43.75552" lon="3.53424">
        <ele>496.3</ele>
        <time>2016-01-24T14:15:41Z</time>
      </trkpt>
      <trkpt lat="43.75554" lon="3.53412">
        <ele>497</ele>
        <time>2016-01-24T14:15:50Z</time>
      </trkpt>
      <trkpt lat="43.75558" lon="3.534">
        <ele>497.7</ele>
        <time>2016-01-24T14:15:59Z</time>
      </trkpt>
      <trkpt lat="43.75561" lon="3.53388">
        <ele>498</ele>
        <time>2016-01-24T14:16:06Z</time>
      </trkpt>
      <trkpt lat="43.75564" lon="3.53375">
        <ele>498.3</ele>
        <time>2016-01-24T14:16:14Z</time>
      </trkpt>
      <trkpt lat="43.7557" lon="3.53364">
        <ele>498.4</ele>
        <time>2016-01-24T14:16:22Z</time>
      </trkpt>
      <trkpt lat="43.75576" lon="3.53355">
        <ele>498.6</ele>
        <time>2016-01-24T14:16:30Z</time>
      </trkpt>
      <trkpt lat="43.75584" lon="3.53348">
        <ele>498.9</ele>
        <time>2016-01-24T14:16:38Z</time>
      </trkpt>
      <trkpt lat="43.75592" lon="3.53343">
        <ele>499.7</ele>
        <time>2016-01-24T14:16:47Z</time>
      </trkpt>
      <trkpt lat="43.75602" lon="3.53338">
        <ele>500.4</ele>
        <time>2016-01-24T14:16:55Z</time>
      </trkpt>
      <trkpt lat="43.75611" lon="3.53333">
        <ele>501.1</ele>
        <time>2016-01-24T14:17:04Z</time>
      </trkpt>
      <trkpt lat="43.7562" lon="3.53327">
        <ele>501.6</ele>
        <time>2016-01-24T14:17:12Z</time>
      </trkpt>
      <trkpt lat="43.75628" lon="3.53319">
        <ele>502.2</ele>
        <time>2016-01-24T14:17:21Z</time>
      </trkpt>
      <trkpt lat="43.75636" lon="3.53313">
        <ele>502.6</ele>
        <time>2016-01-24T14:17:29Z</time>
      </trkpt>
      <trkpt lat="43.75645" lon="3.53308">
        <ele>503.2</ele>
        <time>2016-01-24T14:17:37Z</time>
      </trkpt>
      <trkpt lat="43.75655" lon="3.53308">
        <ele>503.6</ele>
        <time>2016-01-24T14:17:45Z</time>
      </trkpt>
      <trkpt lat="43.75663" lon="3.53317">
        <ele>503.9</ele>
        <time>2016-01-24T14:17:52Z</time>
      </trkpt>
      <trkpt lat="43.75666" lon="3.53329">
        <ele>504</ele>
        <time>2016-01-24T14:17:59Z</time>
      </trkpt>
      <trkpt lat="43.75664" lon="3.53342">
        <ele>504.1</ele>
        <time>2016-01-24T14:18:08Z</time>
      </trkpt>
      <trkpt lat="43.75661" lon="3.53356">
        <ele>504.1</ele>
        <time>2016-01-24T14:18:17Z</time>
      </trkpt>
      <trkpt lat="43.75657" lon="3.53368">
        <ele>503.9</ele>
        <time>2016-01-24T14:18:26Z</time>
      </trkpt>
      <trkpt lat="43.75654" lon="3.53381">
        <ele>503.5</ele>
        <time>2016-01-24T14:18:34Z</time>
      </trkpt>
      <trkpt lat="43.75656" lon="3.53394">
        <ele>503.2</ele>
        <time>2016-01-24T14:18:41Z</time>
      </trkpt>
      <trkpt lat="43.7566" lon="3.53406">
        <ele>503</ele>
        <time>2016-01-24T14:18:49Z</time>
      </trkpt>
      <trkpt lat="43.75669" lon="3.5341">
        <ele>502.7</ele>
        <time>2016-01-24T14:18:57Z</time>
      </trkpt>
      <trkpt lat="43.75666" lon="3.53422">
        <ele>501.9</ele>
        <time>2016-01-24T14:19:11Z</time>
      </trkpt>
      <trkpt lat="43.7567" lon="3.53434">
        <ele>501.1</ele>
        <time>2016-01-24T14:19:24Z</time>
      </trkpt>
      <trkpt lat="43.75681" lon="3.53437">
        <ele>500.8</ele>
        <time>2016-01-24T14:19:31Z</time>
      </trkpt>
      <trkpt lat="43.7569" lon="3.53431">
        <ele>500.6</ele>
        <time>2016-01-24T14:19:38Z</time>
      </trkpt>
      <trkpt lat="43.757" lon="3.53426">
        <ele>500.5</ele>
        <time>2016-01-24T14:19:44Z</time>
      </trkpt>
      <trkpt lat="43.75705" lon="3.53415">
        <ele>500.6</ele>
        <time>2016-01-24T14:19:52Z</time>
      </trkpt>
      <trkpt lat="43.75709" lon="3.53403">
        <ele>500.8</ele>
        <time>2016-01-24T14:19:58Z</time>
      </trkpt>
      <trkpt lat="43.75716" lon="3.53394">
        <ele>501</ele>
        <time>2016-01-24T14:20:02Z</time>
      </trkpt>
      <trkpt lat="43.75725" lon="3.53388">
        <ele>501.2</ele>
        <time>2016-01-24T14:20:07Z</time>
      </trkpt>
      <trkpt lat="43.75731" lon="3.53377">
        <ele>501.5</ele>
        <time>2016-01-24T14:20:13Z</time>
      </trkpt>
      <trkpt lat="43.75735" lon="3.53366">
        <ele>502.1</ele>
        <time>2016-01-24T14:20:22Z</time>
      </trkpt>
      <trkpt lat="43.7574" lon="3.53355">
        <ele>502.5</ele>
        <time>2016-01-24T14:20:31Z</time>
      </trkpt>
      <trkpt lat="43.75746" lon="3.53344">
        <ele>502.9</ele>
        <time>2016-01-24T14:20:39Z</time>
      </trkpt>
      <trkpt lat="43.75753" lon="3.53336">
        <ele>503.4</ele>
        <time>2016-01-24T14:20:47Z</time>
      </trkpt>
      <trkpt lat="43.75762" lon="3.5333">
        <ele>504</ele>
        <time>2016-01-24T14:20:55Z</time>
      </trkpt>
      <trkpt lat="43.75772" lon="3.53328">
        <ele>504.6</ele>
        <time>2016-01-24T14:21:03Z</time>
      </trkpt>
      <trkpt lat="43.7578" lon="3.53332">
        <ele>505.3</ele>
        <time>2016-01-24T14:21:11Z</time>
      </trkpt>
      <trkpt lat="43.75786" lon="3.53341">
        <ele>505.9</ele>
        <time>2016-01-24T14:21:18Z</time>
      </trkpt>
      <trkpt lat="43.7579" lon="3.53353">
        <ele>506.4</ele>
        <time>2016-01-24T14:21:25Z</time>
      </trkpt>
      <trkpt lat="43.75792" lon="3.53366">
        <ele>506.9</ele>
        <time>2016-01-24T14:21:33Z</time>
      </trkpt>
      <trkpt lat="43.75798" lon="3.53377">
        <ele>507.4</ele>
        <time>2016-01-24T14:21:41Z</time>
      </trkpt>
      <trkpt lat="43.75802" lon="3.5339">
        <ele>507.8</ele>
        <time>2016-01-24T14:21:49Z</time>
      </trkpt>
      <trkpt lat="43.75805" lon="3.53402">
        <ele>508.2</ele>
        <time>2016-01-24T14:21:57Z</time>
      </trkpt>
      <trkpt lat="43.75812" lon="3.53411">
        <ele>508.6</ele>
        <time>2016-01-24T14:22:04Z</time>
      </trkpt>
      <trkpt lat="43.75819" lon="3.53421">
        <ele>508.9</ele>
        <time>2016-01-24T14:22:13Z</time>
      </trkpt>
      <trkpt lat="43.75826" lon="3.53429">
        <ele>509.5</ele>
        <time>2016-01-24T14:22:22Z</time>
      </trkpt>
      <trkpt lat="43.75831" lon="3.53439">
        <ele>509.9</ele>
        <time>2016-01-24T14:22:30Z</time>
      </trkpt>
      <trkpt lat="43.75837" lon="3.5345">
        <ele>510.3</ele>
        <time>2016-01-24T14:22:38Z</time>
      </trkpt>
      <trkpt lat="43.75843" lon="3.53461">
        <ele>510.4</ele>
        <time>2016-01-24T14:22:46Z</time>
      </trkpt>
      <trkpt lat="43.75844" lon="3.53475">
        <ele>510.6</ele>
        <time>2016-01-24T14:22:54Z</time>
      </trkpt>
      <trkpt lat="43.75847" lon="3.53487">
        <ele>510.7</ele>
        <time>2016-01-24T14:23:02Z</time>
      </trkpt>
      <trkpt lat="43.75851" lon="3.53499">
        <ele>510.7</ele>
        <time>2016-01-24T14:23:09Z</time>
      </trkpt>
      <trkpt lat="43.75858" lon="3.53507">
        <ele>510.8</ele>
        <time>2016-01-24T14:23:17Z</time>
      </trkpt>
      <trkpt lat="43.75868" lon="3.53505">
        <ele>510.9</ele>
        <time>2016-01-24T14:23:31Z</time>
      </trkpt>
      <trkpt lat="43.75877" lon="3.53507">
        <ele>511.6</ele>
        <time>2016-01-24T14:23:40Z</time>
      </trkpt>
      <trkpt lat="43.75887" lon="3.53507">
        <ele>512.1</ele>
        <time>2016-01-24T14:23:49Z</time>
      </trkpt>
      <trkpt lat="43.75896" lon="3.5351">
        <ele>512.6</ele>
        <time>2016-01-24T14:23:57Z</time>
      </trkpt>
      <trkpt lat="43.75905" lon="3.53516">
        <ele>512.7</ele>
        <time>2016-01-24T14:24:03Z</time>
      </trkpt>
      <trkpt lat="43.75909" lon="3.53528">
        <ele>512.5</ele>
        <time>2016-01-24T14:24:11Z</time>
      </trkpt>
      <trkpt lat="43.75904" lon="3.53541">
        <ele>512.2</ele>
        <time>2016-01-24T14:24:20Z</time>
      </trkpt>
      <trkpt lat="43.75899" lon="3.53551">
        <ele>512</ele>
        <time>2016-01-24T14:24:27Z</time>
      </trkpt>
      <trkpt lat="43.75893" lon="3.53561">
        <ele>511.4</ele>
        <time>2016-01-24T14:24:34Z</time>
      </trkpt>
      <trkpt lat="43.75887" lon="3.53571">
        <ele>510.5</ele>
        <time>2016-01-24T14:24:42Z</time>
      </trkpt>
      <trkpt lat="43.7588" lon="3.53581">
        <ele>509.6</ele>
        <time>2016-01-24T14:24:50Z</time>
      </trkpt>
      <trkpt lat="43.75874" lon="3.53591">
        <ele>508.6</ele>
        <time>2016-01-24T14:24:59Z</time>
      </trkpt>
      <trkpt lat="43.75869" lon="3.53603">
        <ele>507.9</ele>
        <time>2016-01-24T14:25:08Z</time>
      </trkpt>
      <trkpt lat="43.75867" lon="3.53616">
        <ele>507.3</ele>
        <time>2016-01-24T14:25:15Z</time>
      </trkpt>
      <trkpt lat="43.75866" lon="3.53628">
        <ele>506.8</ele>
        <time>2016-01-24T14:25:22Z</time>
      </trkpt>
      <trkpt lat="43.75861" lon="3.53641">
        <ele>506.1</ele>
        <time>2016-01-24T14:25:30Z</time>
      </trkpt>
      <trkpt lat="43.75858" lon="3.53654">
        <ele>505.5</ele>
        <time>2016-01-24T14:25:38Z</time>
      </trkpt>
      <trkpt lat="43.75861" lon="3.53666">
        <ele>505</ele>
        <time>2016-01-24T14:25:44Z</time>
      </trkpt>
      <trkpt lat="43.75868" lon="3.53674">
        <ele>504.5</ele>
        <time>2016-01-24T14:25:50Z</time>
      </trkpt>
      <trkpt lat="43.75876" lon="3.53683">
        <ele>504</ele>
        <time>2016-01-24T14:25:57Z</time>
      </trkpt>
      <trkpt lat="43.75882" lon="3.53692">
        <ele>503.6</ele>
        <time>2016-01-24T14:26:06Z</time>
      </trkpt>
      <trkpt lat="43.75876" lon="3.53703">
        <ele>503.4</ele>
        <time>2016-01-24T14:26:15Z</time>
      </trkpt>
      <trkpt lat="43.75883" lon="3.53711">
        <ele>503.4</ele>
        <time>2016-01-24T14:27:08Z</time>
      </trkpt>
      <trkpt lat="43.75884" lon="3.53723">
        <ele>503.8</ele>
        <time>2016-01-24T14:30:24Z</time>
      </trkpt>
      <trkpt lat="43.75878" lon="3.53712">
        <ele>504.7</ele>
        <time>2016-01-24T14:31:14Z</time>
      </trkpt>
      <trkpt lat="43.75868" lon="3.5371">
        <ele>504.3</ele>
        <time>2016-01-24T14:33:00Z</time>
      </trkpt>
      <trkpt lat="43.75858" lon="3.53707">
        <ele>504.3</ele>
        <time>2016-01-24T14:33:07Z</time>
      </trkpt>
      <trkpt lat="43.7585" lon="3.53702">
        <ele>504.7</ele>
        <time>2016-01-24T14:33:15Z</time>
      </trkpt>
      <trkpt lat="43.75841" lon="3.53699">
        <ele>505.5</ele>
        <time>2016-01-24T14:33:27Z</time>
      </trkpt>
      <trkpt lat="43.75834" lon="3.53708">
        <ele>506.6</ele>
        <time>2016-01-24T14:33:40Z</time>
      </trkpt>
      <trkpt lat="43.75831" lon="3.5372">
        <ele>507.9</ele>
        <time>2016-01-24T14:33:54Z</time>
      </trkpt>
      <trkpt lat="43.75823" lon="3.53726">
        <ele>509</ele>
        <time>2016-01-24T14:34:06Z</time>
      </trkpt>
      <trkpt lat="43.75815" lon="3.53735">
        <ele>510.8</ele>
        <time>2016-01-24T14:34:23Z</time>
      </trkpt>
      <trkpt lat="43.75806" lon="3.53737">
        <ele>512.5</ele>
        <time>2016-01-24T14:34:36Z</time>
      </trkpt>
      <trkpt lat="43.758" lon="3.53727">
        <ele>514.6</ele>
        <time>2016-01-24T14:34:52Z</time>
      </trkpt>
      <trkpt lat="43.75796" lon="3.53715">
        <ele>515.6</ele>
        <time>2016-01-24T14:35:02Z</time>
      </trkpt>
      <trkpt lat="43.75795" lon="3.53701">
        <ele>516.6</ele>
        <time>2016-01-24T14:35:13Z</time>
      </trkpt>
      <trkpt lat="43.75795" lon="3.53687">
        <ele>517.4</ele>
        <time>2016-01-24T14:35:25Z</time>
      </trkpt>
      <trkpt lat="43.75793" lon="3.53674">
        <ele>518.2</ele>
        <time>2016-01-24T14:35:38Z</time>
      </trkpt>
      <trkpt lat="43.75787" lon="3.53664">
        <ele>519</ele>
        <time>2016-01-24T14:35:46Z</time>
      </trkpt>
      <trkpt lat="43.75779" lon="3.53655">
        <ele>520.6</ele>
        <time>2016-01-24T14:35:59Z</time>
      </trkpt>
      <trkpt lat="43.75775" lon="3.53666">
        <ele>522.2</ele>
        <time>2016-01-24T14:36:13Z</time>
      </trkpt>
      <trkpt lat="43.75775" lon="3.53679">
        <ele>523.6</ele>
        <time>2016-01-24T14:36:26Z</time>
      </trkpt>
      <trkpt lat="43.75774" lon="3.53692">
        <ele>524.9</ele>
        <time>2016-01-24T14:36:38Z</time>
      </trkpt>
      <trkpt lat="43.75765" lon="3.5369">
        <ele>528.5</ele>
        <time>2016-01-24T14:37:05Z</time>
      </trkpt>
      <trkpt lat="43.75764" lon="3.53702">
        <ele>529.9</ele>
        <time>2016-01-24T14:37:18Z</time>
      </trkpt>
      <trkpt lat="43.75767" lon="3.53714">
        <ele>531.6</ele>
        <time>2016-01-24T14:37:29Z</time>
      </trkpt>
      <trkpt lat="43.75764" lon="3.53727">
        <ele>532.9</ele>
        <time>2016-01-24T14:37:40Z</time>
      </trkpt>
      <trkpt lat="43.75769" lon="3.53738">
        <ele>534.5</ele>
        <time>2016-01-24T14:37:50Z</time>
      </trkpt>
      <trkpt lat="43.75767" lon="3.53751">
        <ele>536.1</ele>
        <time>2016-01-24T14:38:05Z</time>
      </trkpt>
      <trkpt lat="43.75759" lon="3.53743">
        <ele>536.3</ele>
        <time>2016-01-24T14:38:32Z</time>
      </trkpt>
      <trkpt lat="43.75751" lon="3.53747">
        <ele>535.3</ele>
        <time>2016-01-24T14:38:44Z</time>
      </trkpt>
      <trkpt lat="43.75748" lon="3.5376">
        <ele>534.1</ele>
        <time>2016-01-24T14:38:57Z</time>
      </trkpt>
      <trkpt lat="43.75752" lon="3.53772">
        <ele>532.6</ele>
        <time>2016-01-24T14:39:07Z</time>
      </trkpt>
      <trkpt lat="43.75746" lon="3.53762">
        <ele>529.4</ele>
        <time>2016-01-24T14:39:28Z</time>
      </trkpt>
      <trkpt lat="43.7574" lon="3.53751">
        <ele>528.2</ele>
        <time>2016-01-24T14:39:36Z</time>
      </trkpt>
      <trkpt lat="43.75734" lon="3.53743">
        <ele>526.7</ele>
        <time>2016-01-24T14:39:46Z</time>
      </trkpt>
      <trkpt lat="43.75728" lon="3.53733">
        <ele>524.9</ele>
        <time>2016-01-24T14:39:57Z</time>
      </trkpt>
      <trkpt lat="43.7572" lon="3.53728">
        <ele>523.1</ele>
        <time>2016-01-24T14:40:07Z</time>
      </trkpt>
      <trkpt lat="43.75712" lon="3.53736">
        <ele>521.2</ele>
        <time>2016-01-24T14:40:17Z</time>
      </trkpt>
      <trkpt lat="43.7572" lon="3.53745">
        <ele>519.2</ele>
        <time>2016-01-24T14:40:30Z</time>
      </trkpt>
      <trkpt lat="43.75724" lon="3.53758">
        <ele>517.6</ele>
        <time>2016-01-24T14:40:40Z</time>
      </trkpt>
      <trkpt lat="43.75715" lon="3.53753">
        <ele>514.8</ele>
        <time>2016-01-24T14:41:00Z</time>
      </trkpt>
      <trkpt lat="43.75712" lon="3.53765">
        <ele>513.3</ele>
        <time>2016-01-24T14:41:12Z</time>
      </trkpt>
      <trkpt lat="43.75711" lon="3.53779">
        <ele>509.3</ele>
        <time>2016-01-24T14:41:37Z</time>
      </trkpt>
      <trkpt lat="43.75709" lon="3.53791">
        <ele>507.7</ele>
        <time>2016-01-24T14:41:48Z</time>
      </trkpt>
      <trkpt lat="43.75718" lon="3.53788">
        <ele>506.1</ele>
        <time>2016-01-24T14:42:00Z</time>
      </trkpt>
      <trkpt lat="43.75712" lon="3.53798">
        <ele>500.1</ele>
        <time>2016-01-24T14:42:34Z</time>
      </trkpt>
      <trkpt lat="43.75717" lon="3.53809">
        <ele>497.8</ele>
        <time>2016-01-24T14:42:47Z</time>
      </trkpt>
      <trkpt lat="43.7571" lon="3.53815">
        <ele>494</ele>
        <time>2016-01-24T14:43:11Z</time>
      </trkpt>
      <trkpt lat="43.75716" lon="3.53825">
        <ele>492.3</ele>
        <time>2016-01-24T14:43:24Z</time>
      </trkpt>
      <trkpt lat="43.75706" lon="3.53828">
        <ele>488.7</ele>
        <time>2016-01-24T14:43:48Z</time>
      </trkpt>
      <trkpt lat="43.7571" lon="3.5384">
        <ele>486.8</ele>
        <time>2016-01-24T14:44:04Z</time>
      </trkpt>
      <trkpt lat="43.75701" lon="3.53843">
        <ele>484.6</ele>
        <time>2016-01-24T14:44:22Z</time>
      </trkpt>
      <trkpt lat="43.75692" lon="3.53847">
        <ele>483.3</ele>
        <time>2016-01-24T14:44:33Z</time>
      </trkpt>
      <trkpt lat="43.75683" lon="3.5385">
        <ele>481.8</ele>
        <time>2016-01-24T14:44:46Z</time>
      </trkpt>
      <trkpt lat="43.75674" lon="3.53853">
        <ele>480.6</ele>
        <time>2016-01-24T14:44:55Z</time>
      </trkpt>
      <trkpt lat="43.75665" lon="3.53854">
        <ele>479.9</ele>
        <time>2016-01-24T14:45:02Z</time>
      </trkpt>
      <trkpt lat="43.75657" lon="3.53861">
        <ele>479.3</ele>
        <time>2016-01-24T14:45:13Z</time>
      </trkpt>
      <trkpt lat="43.75649" lon="3.53866">
        <ele>479.2</ele>
        <time>2016-01-24T14:45:22Z</time>
      </trkpt>
      <trkpt lat="43.75645" lon="3.53878">
        <ele>479.2</ele>
        <time>2016-01-24T14:45:33Z</time>
      </trkpt>
      <trkpt lat="43.75636" lon="3.53886">
        <ele>478.9</ele>
        <time>2016-01-24T14:45:44Z</time>
      </trkpt>
      <trkpt lat="43.75628" lon="3.53894">
        <ele>478.5</ele>
        <time>2016-01-24T14:45:51Z</time>
      </trkpt>
      <trkpt lat="43.75619" lon="3.53898">
        <ele>478.2</ele>
        <time>2016-01-24T14:45:59Z</time>
      </trkpt>
      <trkpt lat="43.75609" lon="3.53901">
        <ele>477.9</ele>
        <time>2016-01-24T14:46:11Z</time>
      </trkpt>
      <trkpt lat="43.75602" lon="3.5391">
        <ele>477.3</ele>
        <time>2016-01-24T14:46:21Z</time>
      </trkpt>
      <trkpt lat="43.75599" lon="3.53922">
        <ele>476.3</ele>
        <time>2016-01-24T14:46:30Z</time>
      </trkpt>
      <trkpt lat="43.75594" lon="3.53933">
        <ele>475.4</ele>
        <time>2016-01-24T14:46:39Z</time>
      </trkpt>
      <trkpt lat="43.75586" lon="3.5394">
        <ele>474.2</ele>
        <time>2016-01-24T14:46:50Z</time>
      </trkpt>
      <trkpt lat="43.75577" lon="3.53941">
        <ele>472.8</ele>
        <time>2016-01-24T14:47:03Z</time>
      </trkpt>
      <trkpt lat="43.75571" lon="3.53952">
        <ele>467.7</ele>
        <time>2016-01-24T14:47:38Z</time>
      </trkpt>
      <trkpt lat="43.75567" lon="3.53963">
        <ele>465.9</ele>
        <time>2016-01-24T14:47:49Z</time>
      </trkpt>
      <trkpt lat="43.75563" lon="3.53975">
        <ele>464.1</ele>
        <time>2016-01-24T14:48:00Z</time>
      </trkpt>
      <trkpt lat="43.75558" lon="3.53985">
        <ele>461.9</ele>
        <time>2016-01-24T14:48:12Z</time>
      </trkpt>
      <trkpt lat="43.75552" lon="3.53997">
        <ele>459.9</ele>
        <time>2016-01-24T14:48:23Z</time>
      </trkpt>
      <trkpt lat="43.75547" lon="3.54007">
        <ele>457.9</ele>
        <time>2016-01-24T14:48:34Z</time>
      </trkpt>
      <trkpt lat="43.75541" lon="3.54017">
        <ele>456.2</ele>
        <time>2016-01-24T14:48:45Z</time>
      </trkpt>
      <trkpt lat="43.75536" lon="3.54028">
        <ele>454.5</ele>
        <time>2016-01-24T14:48:55Z</time>
      </trkpt>
      <trkpt lat="43.75531" lon="3.5404">
        <ele>452.5</ele>
        <time>2016-01-24T14:49:07Z</time>
      </trkpt>
      <trkpt lat="43.75525" lon="3.54049">
        <ele>450.3</ele>
        <time>2016-01-24T14:49:19Z</time>
      </trkpt>
      <trkpt lat="43.75516" lon="3.54042">
        <ele>448.6</ele>
        <time>2016-01-24T14:49:30Z</time>
      </trkpt>
      <trkpt lat="43.75508" lon="3.54048">
        <ele>447.3</ele>
        <time>2016-01-24T14:49:39Z</time>
      </trkpt>
      <trkpt lat="43.755" lon="3.54057">
        <ele>446.3</ele>
        <time>2016-01-24T14:49:49Z</time>
      </trkpt>
      <trkpt lat="43.75494" lon="3.54067">
        <ele>445.9</ele>
        <time>2016-01-24T14:49:57Z</time>
      </trkpt>
      <trkpt lat="43.75489" lon="3.54077">
        <ele>445.6</ele>
        <time>2016-01-24T14:50:06Z</time>
      </trkpt>
      <trkpt lat="43.75486" lon="3.54089">
        <ele>445</ele>
        <time>2016-01-24T14:50:14Z</time>
      </trkpt>
      <trkpt lat="43.75482" lon="3.54102">
        <ele>444.2</ele>
        <time>2016-01-24T14:50:24Z</time>
      </trkpt>
      <trkpt lat="43.75482" lon="3.54116">
        <ele>443.5</ele>
        <time>2016-01-24T14:50:32Z</time>
      </trkpt>
      <trkpt lat="43.75481" lon="3.54129">
        <ele>442.4</ele>
        <time>2016-01-24T14:50:41Z</time>
      </trkpt>
      <trkpt lat="43.75481" lon="3.54143">
        <ele>441.4</ele>
        <time>2016-01-24T14:50:49Z</time>
      </trkpt>
      <trkpt lat="43.75482" lon="3.54156">
        <ele>440.7</ele>
        <time>2016-01-24T14:50:57Z</time>
      </trkpt>
      <trkpt lat="43.75488" lon="3.54147">
        <ele>438.3</ele>
        <time>2016-01-24T14:52:08Z</time>
      </trkpt>
      <trkpt lat="43.7549" lon="3.54134">
        <ele>438</ele>
        <time>2016-01-24T14:52:16Z</time>
      </trkpt>
      <trkpt lat="43.75493" lon="3.54122">
        <ele>437.5</ele>
        <time>2016-01-24T14:52:26Z</time>
      </trkpt>
      <trkpt lat="43.755" lon="3.54112">
        <ele>436.7</ele>
        <time>2016-01-24T14:52:36Z</time>
      </trkpt>
      <trkpt lat="43.75506" lon="3.54101">
        <ele>435.8</ele>
        <time>2016-01-24T14:52:47Z</time>
      </trkpt>
      <trkpt lat="43.75513" lon="3.54091">
        <ele>434.9</ele>
        <time>2016-01-24T14:52:56Z</time>
      </trkpt>
      <trkpt lat="43.75523" lon="3.54089">
        <ele>434</ele>
        <time>2016-01-24T14:53:06Z</time>
      </trkpt>
      <trkpt lat="43.75532" lon="3.5409">
        <ele>432.9</ele>
        <time>2016-01-24T14:53:16Z</time>
      </trkpt>
      <trkpt lat="43.75541" lon="3.54086">
        <ele>432</ele>
        <time>2016-01-24T14:53:25Z</time>
      </trkpt>
      <trkpt lat="43.75549" lon="3.54077">
        <ele>430.9</ele>
        <time>2016-01-24T14:53:35Z</time>
      </trkpt>
      <trkpt lat="43.75557" lon="3.54072">
        <ele>430.2</ele>
        <time>2016-01-24T14:53:44Z</time>
      </trkpt>
      <trkpt lat="43.75565" lon="3.54066">
        <ele>429.4</ele>
        <time>2016-01-24T14:53:56Z</time>
      </trkpt>
      <trkpt lat="43.75573" lon="3.5406">
        <ele>428.6</ele>
        <time>2016-01-24T14:54:06Z</time>
      </trkpt>
      <trkpt lat="43.75583" lon="3.54058">
        <ele>427.8</ele>
        <time>2016-01-24T14:54:15Z</time>
      </trkpt>
      <trkpt lat="43.7559" lon="3.54049">
        <ele>426.8</ele>
        <time>2016-01-24T14:54:24Z</time>
      </trkpt>
      <trkpt lat="43.756" lon="3.54048">
        <ele>425.8</ele>
        <time>2016-01-24T14:54:31Z</time>
      </trkpt>
      <trkpt lat="43.75609" lon="3.54047">
        <ele>425</ele>
        <time>2016-01-24T14:54:40Z</time>
      </trkpt>
      <trkpt lat="43.75619" lon="3.54046">
        <ele>424.1</ele>
        <time>2016-01-24T14:54:50Z</time>
      </trkpt>
      <trkpt lat="43.7562" lon="3.54059">
        <ele>422.4</ele>
        <time>2016-01-24T14:55:08Z</time>
      </trkpt>
      <trkpt lat="43.75617" lon="3.54071">
        <ele>421.6</ele>
        <time>2016-01-24T14:55:18Z</time>
      </trkpt>
      <trkpt lat="43.75614" lon="3.54083">
        <ele>420.9</ele>
        <time>2016-01-24T14:55:26Z</time>
      </trkpt>
      <trkpt lat="43.75608" lon="3.54093">
        <ele>419.8</ele>
        <time>2016-01-24T14:55:37Z</time>
      </trkpt>
      <trkpt lat="43.75605" lon="3.54105">
        <ele>418.8</ele>
        <time>2016-01-24T14:55:48Z</time>
      </trkpt>
      <trkpt lat="43.756" lon="3.54116">
        <ele>417.3</ele>
        <time>2016-01-24T14:56:00Z</time>
      </trkpt>
      <trkpt lat="43.75595" lon="3.54127">
        <ele>416.2</ele>
        <time>2016-01-24T14:56:09Z</time>
      </trkpt>
      <trkpt lat="43.75589" lon="3.54138">
        <ele>414.5</ele>
        <time>2016-01-24T14:56:23Z</time>
      </trkpt>
      <trkpt lat="43.75586" lon="3.5415">
        <ele>414</ele>
        <time>2016-01-24T14:56:31Z</time>
      </trkpt>
      <trkpt lat="43.75582" lon="3.54162">
        <ele>412.9</ele>
        <time>2016-01-24T14:56:41Z</time>
      </trkpt>
      <trkpt lat="43.75582" lon="3.54175">
        <ele>412.2</ele>
        <time>2016-01-24T14:56:48Z</time>
      </trkpt>
      <trkpt lat="43.75578" lon="3.54186">
        <ele>411</ele>
        <time>2016-01-24T14:56:58Z</time>
      </trkpt>
      <trkpt lat="43.75573" lon="3.54198">
        <ele>410</ele>
        <time>2016-01-24T14:57:08Z</time>
      </trkpt>
      <trkpt lat="43.75569" lon="3.54209">
        <ele>409.3</ele>
        <time>2016-01-24T14:57:16Z</time>
      </trkpt>
      <trkpt lat="43.75569" lon="3.54223">
        <ele>408.3</ele>
        <time>2016-01-24T14:57:26Z</time>
      </trkpt>
      <trkpt lat="43.75568" lon="3.54235">
        <ele>407</ele>
        <time>2016-01-24T14:57:36Z</time>
      </trkpt>
      <trkpt lat="43.75566" lon="3.54247">
        <ele>406.2</ele>
        <time>2016-01-24T14:57:43Z</time>
      </trkpt>
      <trkpt lat="43.75563" lon="3.54259">
        <ele>405.6</ele>
        <time>2016-01-24T14:57:50Z</time>
      </trkpt>
      <trkpt lat="43.75561" lon="3.54272">
        <ele>404.5</ele>
        <time>2016-01-24T14:58:01Z</time>
      </trkpt>
      <trkpt lat="43.75555" lon="3.54281">
        <ele>403.4</ele>
        <time>2016-01-24T14:58:10Z</time>
      </trkpt>
      <trkpt lat="43.75551" lon="3.54294">
        <ele>402.6</ele>
        <time>2016-01-24T14:58:18Z</time>
      </trkpt>
      <trkpt lat="43.75551" lon="3.54308">
        <ele>401.6</ele>
        <time>2016-01-24T14:58:27Z</time>
      </trkpt>
      <trkpt lat="43.75543" lon="3.54316">
        <ele>399.6</ele>
        <time>2016-01-24T14:58:41Z</time>
      </trkpt>
      <trkpt lat="43.75535" lon="3.54321">
        <ele>397.7</ele>
        <time>2016-01-24T14:58:54Z</time>
      </trkpt>
      <trkpt lat="43.75526" lon="3.54325">
        <ele>396.2</ele>
        <time>2016-01-24T14:59:04Z</time>
      </trkpt>
      <trkpt lat="43.75522" lon="3.54313">
        <ele>394.7</ele>
        <time>2016-01-24T14:59:15Z</time>
      </trkpt>
      <trkpt lat="43.75513" lon="3.5431">
        <ele>394.1</ele>
        <time>2016-01-24T14:59:22Z</time>
      </trkpt>
      <trkpt lat="43.75503" lon="3.54314">
        <ele>393.4</ele>
        <time>2016-01-24T14:59:31Z</time>
      </trkpt>
      <trkpt lat="43.75493" lon="3.54317">
        <ele>393</ele>
        <time>2016-01-24T14:59:40Z</time>
      </trkpt>
      <trkpt lat="43.75484" lon="3.54318">
        <ele>393.2</ele>
        <time>2016-01-24T14:59:50Z</time>
      </trkpt>
      <trkpt lat="43.75474" lon="3.54317">
        <ele>393.3</ele>
        <time>2016-01-24T14:59:59Z</time>
      </trkpt>
      <trkpt lat="43.75466" lon="3.5432">
        <ele>393.4</ele>
        <time>2016-01-24T15:00:10Z</time>
      </trkpt>
      <trkpt lat="43.75457" lon="3.54314">
        <ele>393.5</ele>
        <time>2016-01-24T15:00:18Z</time>
      </trkpt>
      <trkpt lat="43.75448" lon="3.54308">
        <ele>393.2</ele>
        <time>2016-01-24T15:00:26Z</time>
      </trkpt>
      <trkpt lat="43.7544" lon="3.54304">
        <ele>392.9</ele>
        <time>2016-01-24T15:00:35Z</time>
      </trkpt>
      <trkpt lat="43.75431" lon="3.54308">
        <ele>392.4</ele>
        <time>2016-01-24T15:00:44Z</time>
      </trkpt>
      <trkpt lat="43.75421" lon="3.54308">
        <ele>391.7</ele>
        <time>2016-01-24T15:00:56Z</time>
      </trkpt>
      <trkpt lat="43.75412" lon="3.54307">
        <ele>391.4</ele>
        <time>2016-01-24T15:01:04Z</time>
      </trkpt>
      <trkpt lat="43.75403" lon="3.54302">
        <ele>391.2</ele>
        <time>2016-01-24T15:01:19Z</time>
      </trkpt>
      <trkpt lat="43.75394" lon="3.54296">
        <ele>391.3</ele>
        <time>2016-01-24T15:01:30Z</time>
      </trkpt>
      <trkpt lat="43.75386" lon="3.5429">
        <ele>391.3</ele>
        <time>2016-01-24T15:01:39Z</time>
      </trkpt>
      <trkpt lat="43.75376" lon="3.54291">
        <ele>391.7</ele>
        <time>2016-01-24T15:03:16Z</time>
      </trkpt>
      <trkpt lat="43.75366" lon="3.54289">
        <ele>391.7</ele>
        <time>2016-01-24T15:03:22Z</time>
      </trkpt>
      <trkpt lat="43.75375" lon="3.54289">
        <ele>391.8</ele>
        <time>2016-01-24T15:03:25Z</time>
      </trkpt>
      <trkpt lat="43.75381" lon="3.54279">
        <ele>391.4</ele>
        <time>2016-01-24T15:04:53Z</time>
      </trkpt>
      <trkpt lat="43.75387" lon="3.5429">
        <ele>391.9</ele>
        <time>2016-01-24T15:07:10Z</time>
      </trkpt>
      <trkpt lat="43.75395" lon="3.54297">
        <ele>392</ele>
        <time>2016-01-24T15:07:23Z</time>
      </trkpt>
      <trkpt lat="43.75402" lon="3.54306">
        <ele>392.1</ele>
        <time>2016-01-24T15:07:36Z</time>
      </trkpt>
      <trkpt lat="43.75411" lon="3.5431">
        <ele>392.1</ele>
        <time>2016-01-24T15:07:49Z</time>
      </trkpt>
      <trkpt lat="43.7542" lon="3.54311">
        <ele>391.9</ele>
        <time>2016-01-24T15:08:06Z</time>
      </trkpt>
      <trkpt lat="43.75412" lon="3.54316">
        <ele>390.8</ele>
        <time>2016-01-24T15:08:28Z</time>
      </trkpt>
      <trkpt lat="43.75403" lon="3.5432">
        <ele>389.6</ele>
        <time>2016-01-24T15:08:40Z</time>
      </trkpt>
      <trkpt lat="43.75393" lon="3.54319">
        <ele>388.6</ele>
        <time>2016-01-24T15:08:49Z</time>
      </trkpt>
      <trkpt lat="43.75384" lon="3.54316">
        <ele>387.8</ele>
        <time>2016-01-24T15:08:56Z</time>
      </trkpt>
      <trkpt lat="43.75375" lon="3.54317">
        <ele>387.1</ele>
        <time>2016-01-24T15:09:04Z</time>
      </trkpt>
      <trkpt lat="43.75365" lon="3.54321">
        <ele>386.4</ele>
        <time>2016-01-24T15:09:14Z</time>
      </trkpt>
      <trkpt lat="43.75359" lon="3.5433">
        <ele>386</ele>
        <time>2016-01-24T15:09:25Z</time>
      </trkpt>
      <trkpt lat="43.7535" lon="3.54335">
        <ele>385.6</ele>
        <time>2016-01-24T15:09:34Z</time>
      </trkpt>
      <trkpt lat="43.75341" lon="3.54337">
        <ele>385.6</ele>
        <time>2016-01-24T15:09:41Z</time>
      </trkpt>
      <trkpt lat="43.75334" lon="3.54348">
        <ele>385.8</ele>
        <time>2016-01-24T15:09:55Z</time>
      </trkpt>
      <trkpt lat="43.75324" lon="3.5435">
        <ele>386</ele>
        <time>2016-01-24T15:10:08Z</time>
      </trkpt>
      <trkpt lat="43.75316" lon="3.54355">
        <ele>386.1</ele>
        <time>2016-01-24T15:10:13Z</time>
      </trkpt>
      <trkpt lat="43.75306" lon="3.54353">
        <ele>386.4</ele>
        <time>2016-01-24T15:10:26Z</time>
      </trkpt>
      <trkpt lat="43.75296" lon="3.54352">
        <ele>386.7</ele>
        <time>2016-01-24T15:10:36Z</time>
      </trkpt>
      <trkpt lat="43.75286" lon="3.54359">
        <ele>387.2</ele>
        <time>2016-01-24T15:10:43Z</time>
      </trkpt>
      <trkpt lat="43.75276" lon="3.5436">
        <ele>387.4</ele>
        <time>2016-01-24T15:10:51Z</time>
      </trkpt>
      <trkpt lat="43.75266" lon="3.54366">
        <ele>387.6</ele>
        <time>2016-01-24T15:10:58Z</time>
      </trkpt>
      <trkpt lat="43.75259" lon="3.54373">
        <ele>387.7</ele>
        <time>2016-01-24T15:11:04Z</time>
      </trkpt>
      <trkpt lat="43.75251" lon="3.5438">
        <ele>387.8</ele>
        <time>2016-01-24T15:11:11Z</time>
      </trkpt>
      <trkpt lat="43.75241" lon="3.54383">
        <ele>387.9</ele>
        <time>2016-01-24T15:11:20Z</time>
      </trkpt>
      <trkpt lat="43.75234" lon="3.54391">
        <ele>388.1</ele>
        <time>2016-01-24T15:11:27Z</time>
      </trkpt>
      <trkpt lat="43.75226" lon="3.54399">
        <ele>388.3</ele>
        <time>2016-01-24T15:11:35Z</time>
      </trkpt>
      <trkpt lat="43.7522" lon="3.5441">
        <ele>388.3</ele>
        <time>2016-01-24T15:11:43Z</time>
      </trkpt>
      <trkpt lat="43.75213" lon="3.54419">
        <ele>388.3</ele>
        <time>2016-01-24T15:11:50Z</time>
      </trkpt>
      <trkpt lat="43.75207" lon="3.54429">
        <ele>388.4</ele>
        <time>2016-01-24T15:11:57Z</time>
      </trkpt>
      <trkpt lat="43.75201" lon="3.54441">
        <ele>388.5</ele>
        <time>2016-01-24T15:12:04Z</time>
      </trkpt>
      <trkpt lat="43.75197" lon="3.54453">
        <ele>388.6</ele>
        <time>2016-01-24T15:12:11Z</time>
      </trkpt>
      <trkpt lat="43.7519" lon="3.54463">
        <ele>388.5</ele>
        <time>2016-01-24T15:12:19Z</time>
      </trkpt>
      <trkpt lat="43.7518" lon="3.54467">
        <ele>388.5</ele>
        <time>2016-01-24T15:12:29Z</time>
      </trkpt>
      <trkpt lat="43.75172" lon="3.54462">
        <ele>388.4</ele>
        <time>2016-01-24T15:12:39Z</time>
      </trkpt>
      <trkpt lat="43.75163" lon="3.54455">
        <ele>387.5</ele>
        <time>2016-01-24T15:12:52Z</time>
      </trkpt>
      <trkpt lat="43.75155" lon="3.5445">
        <ele>385.7</ele>
        <time>2016-01-24T15:13:05Z</time>
      </trkpt>
      <trkpt lat="43.75146" lon="3.54446">
        <ele>385</ele>
        <time>2016-01-24T15:13:15Z</time>
      </trkpt>
      <trkpt lat="43.75138" lon="3.54439">
        <ele>383.9</ele>
        <time>2016-01-24T15:13:24Z</time>
      </trkpt>
      <trkpt lat="43.7513" lon="3.54432">
        <ele>382.7</ele>
        <time>2016-01-24T15:13:35Z</time>
      </trkpt>
      <trkpt lat="43.75121" lon="3.54426">
        <ele>381.9</ele>
        <time>2016-01-24T15:13:45Z</time>
      </trkpt>
      <trkpt lat="43.75112" lon="3.54429">
        <ele>381</ele>
        <time>2016-01-24T15:13:55Z</time>
      </trkpt>
      <trkpt lat="43.75103" lon="3.54432">
        <ele>380</ele>
        <time>2016-01-24T15:14:05Z</time>
      </trkpt>
      <trkpt lat="43.75094" lon="3.54429">
        <ele>378.4</ele>
        <time>2016-01-24T15:14:16Z</time>
      </trkpt>
      <trkpt lat="43.75085" lon="3.54434">
        <ele>376.7</ele>
        <time>2016-01-24T15:14:27Z</time>
      </trkpt>
      <trkpt lat="43.75076" lon="3.54437">
        <ele>375.3</ele>
        <time>2016-01-24T15:14:38Z</time>
      </trkpt>
      <trkpt lat="43.75069" lon="3.54447">
        <ele>374.3</ele>
        <time>2016-01-24T15:14:46Z</time>
      </trkpt>
      <trkpt lat="43.75063" lon="3.54458">
        <ele>373.5</ele>
        <time>2016-01-24T15:14:55Z</time>
      </trkpt>
      <trkpt lat="43.75058" lon="3.54468">
        <ele>373.1</ele>
        <time>2016-01-24T15:15:01Z</time>
      </trkpt>
      <trkpt lat="43.75049" lon="3.54475">
        <ele>372.6</ele>
        <time>2016-01-24T15:15:09Z</time>
      </trkpt>
      <trkpt lat="43.75041" lon="3.54483">
        <ele>372.2</ele>
        <time>2016-01-24T15:15:17Z</time>
      </trkpt>
      <trkpt lat="43.75034" lon="3.54493">
        <ele>371.9</ele>
        <time>2016-01-24T15:15:27Z</time>
      </trkpt>
      <trkpt lat="43.75029" lon="3.54505">
        <ele>371.7</ele>
        <time>2016-01-24T15:15:34Z</time>
      </trkpt>
      <trkpt lat="43.75025" lon="3.54517">
        <ele>371.5</ele>
        <time>2016-01-24T15:15:42Z</time>
      </trkpt>
      <trkpt lat="43.75023" lon="3.5453">
        <ele>371.4</ele>
        <time>2016-01-24T15:15:50Z</time>
      </trkpt>
      <trkpt lat="43.7502" lon="3.54544">
        <ele>371.2</ele>
        <time>2016-01-24T15:15:59Z</time>
      </trkpt>
      <trkpt lat="43.75016" lon="3.54555">
        <ele>371.1</ele>
        <time>2016-01-24T15:16:07Z</time>
      </trkpt>
      <trkpt lat="43.75009" lon="3.54566">
        <ele>370.9</ele>
        <time>2016-01-24T15:16:15Z</time>
      </trkpt>
      <trkpt lat="43.75004" lon="3.54577">
        <ele>370.7</ele>
        <time>2016-01-24T15:16:22Z</time>
      </trkpt>
      <trkpt lat="43.74999" lon="3.54589">
        <ele>370.5</ele>
        <time>2016-01-24T15:16:31Z</time>
      </trkpt>
      <trkpt lat="43.74993" lon="3.54601">
        <ele>370.2</ele>
        <time>2016-01-24T15:16:40Z</time>
      </trkpt>
      <trkpt lat="43.74988" lon="3.54611">
        <ele>369.9</ele>
        <time>2016-01-24T15:16:48Z</time>
      </trkpt>
      <trkpt lat="43.74982" lon="3.54621">
        <ele>369.4</ele>
        <time>2016-01-24T15:16:58Z</time>
      </trkpt>
      <trkpt lat="43.74976" lon="3.54632">
        <ele>368.8</ele>
        <time>2016-01-24T15:17:06Z</time>
      </trkpt>
      <trkpt lat="43.74971" lon="3.54642">
        <ele>367.9</ele>
        <time>2016-01-24T15:17:16Z</time>
      </trkpt>
      <trkpt lat="43.74964" lon="3.54652">
        <ele>367</ele>
        <time>2016-01-24T15:17:25Z</time>
      </trkpt>
      <trkpt lat="43.74959" lon="3.54663">
        <ele>365.6</ele>
        <time>2016-01-24T15:17:38Z</time>
      </trkpt>
      <trkpt lat="43.74951" lon="3.5466">
        <ele>364.7</ele>
        <time>2016-01-24T15:17:50Z</time>
      </trkpt>
      <trkpt lat="43.74944" lon="3.5465">
        <ele>363.4</ele>
        <time>2016-01-24T15:18:03Z</time>
      </trkpt>
      <trkpt lat="43.74937" lon="3.54641">
        <ele>361.8</ele>
        <time>2016-01-24T15:18:14Z</time>
      </trkpt>
      <trkpt lat="43.7493" lon="3.54632">
        <ele>360.2</ele>
        <time>2016-01-24T15:18:24Z</time>
      </trkpt>
      <trkpt lat="43.74923" lon="3.54625">
        <ele>359.2</ele>
        <time>2016-01-24T15:18:32Z</time>
      </trkpt>
      <trkpt lat="43.74918" lon="3.54614">
        <ele>357.9</ele>
        <time>2016-01-24T15:18:42Z</time>
      </trkpt>
      <trkpt lat="43.74914" lon="3.54603">
        <ele>355.4</ele>
        <time>2016-01-24T15:18:56Z</time>
      </trkpt>
      <trkpt lat="43.74907" lon="3.54595">
        <ele>353.7</ele>
        <time>2016-01-24T15:19:05Z</time>
      </trkpt>
      <trkpt lat="43.74899" lon="3.54588">
        <ele>353</ele>
        <time>2016-01-24T15:19:10Z</time>
      </trkpt>
      <trkpt lat="43.74891" lon="3.5458">
        <ele>351.3</ele>
        <time>2016-01-24T15:19:18Z</time>
      </trkpt>
      <trkpt lat="43.74888" lon="3.54567">
        <ele>349.9</ele>
        <time>2016-01-24T15:19:28Z</time>
      </trkpt>
      <trkpt lat="43.74882" lon="3.54556">
        <ele>348.5</ele>
        <time>2016-01-24T15:19:38Z</time>
      </trkpt>
      <trkpt lat="43.74874" lon="3.54548">
        <ele>347.4</ele>
        <time>2016-01-24T15:19:47Z</time>
      </trkpt>
      <trkpt lat="43.74864" lon="3.54546">
        <ele>346.7</ele>
        <time>2016-01-24T15:19:54Z</time>
      </trkpt>
      <trkpt lat="43.74854" lon="3.54546">
        <ele>346</ele>
        <time>2016-01-24T15:20:00Z</time>
      </trkpt>
      <trkpt lat="43.74844" lon="3.54548">
        <ele>345.4</ele>
        <time>2016-01-24T15:20:07Z</time>
      </trkpt>
      <trkpt lat="43.74834" lon="3.5455">
        <ele>344.9</ele>
        <time>2016-01-24T15:20:18Z</time>
      </trkpt>
      <trkpt lat="43.74824" lon="3.54553">
        <ele>344.7</ele>
        <time>2016-01-24T15:20:28Z</time>
      </trkpt>
      <trkpt lat="43.74814" lon="3.54555">
        <ele>344.5</ele>
        <time>2016-01-24T15:20:36Z</time>
      </trkpt>
      <trkpt lat="43.74804" lon="3.54556">
        <ele>344.2</ele>
        <time>2016-01-24T15:20:42Z</time>
      </trkpt>
      <trkpt lat="43.74795" lon="3.54555">
        <ele>343.8</ele>
        <time>2016-01-24T15:20:49Z</time>
      </trkpt>
      <trkpt lat="43.74786" lon="3.54561">
        <ele>343.1</ele>
        <time>2016-01-24T15:20:59Z</time>
      </trkpt>
      <trkpt lat="43.74777" lon="3.54565">
        <ele>342.1</ele>
        <time>2016-01-24T15:21:08Z</time>
      </trkpt>
      <trkpt lat="43.74768" lon="3.54567">
        <ele>340.5</ele>
        <time>2016-01-24T15:21:20Z</time>
      </trkpt>
      <trkpt lat="43.74758" lon="3.54568">
        <ele>339</ele>
        <time>2016-01-24T15:21:32Z</time>
      </trkpt>
      <trkpt lat="43.74749" lon="3.54572">
        <ele>337.9</ele>
        <time>2016-01-24T15:21:41Z</time>
      </trkpt>
      <trkpt lat="43.7474" lon="3.54577">
        <ele>336.5</ele>
        <time>2016-01-24T15:21:51Z</time>
      </trkpt>
      <trkpt lat="43.74731" lon="3.54576">
        <ele>334.8</ele>
        <time>2016-01-24T15:22:02Z</time>
      </trkpt>
      <trkpt lat="43.74722" lon="3.5457">
        <ele>333.4</ele>
        <time>2016-01-24T15:22:12Z</time>
      </trkpt>
      <trkpt lat="43.74714" lon="3.54564">
        <ele>332.3</ele>
        <time>2016-01-24T15:22:19Z</time>
      </trkpt>
      <trkpt lat="43.74707" lon="3.54555">
        <ele>330.9</ele>
        <time>2016-01-24T15:22:28Z</time>
      </trkpt>
      <trkpt lat="43.74708" lon="3.54542">
        <ele>329.4</ele>
        <time>2016-01-24T15:22:39Z</time>
      </trkpt>
      <trkpt lat="43.7471" lon="3.54529">
        <ele>327.5</ele>
        <time>2016-01-24T15:22:51Z</time>
      </trkpt>
      <trkpt lat="43.74714" lon="3.54516">
        <ele>325.8</ele>
        <time>2016-01-24T15:23:01Z</time>
      </trkpt>
      <trkpt lat="43.74718" lon="3.54505">
        <ele>324.4</ele>
        <time>2016-01-24T15:23:09Z</time>
      </trkpt>
      <trkpt lat="43.74723" lon="3.54493">
        <ele>323.1</ele>
        <time>2016-01-24T15:23:18Z</time>
      </trkpt>
      <trkpt lat="43.7473" lon="3.54484">
        <ele>321.6</ele>
        <time>2016-01-24T15:23:27Z</time>
      </trkpt>
      <trkpt lat="43.74736" lon="3.54474">
        <ele>320.4</ele>
        <time>2016-01-24T15:23:35Z</time>
      </trkpt>
      <trkpt lat="43.74743" lon="3.54464">
        <ele>319.6</ele>
        <time>2016-01-24T15:23:42Z</time>
      </trkpt>
      <trkpt lat="43.74748" lon="3.54454">
        <ele>319.1</ele>
        <time>2016-01-24T15:23:48Z</time>
      </trkpt>
      <trkpt lat="43.7475" lon="3.5444">
        <ele>318.6</ele>
        <time>2016-01-24T15:23:55Z</time>
      </trkpt>
      <trkpt lat="43.74751" lon="3.54426">
        <ele>318.1</ele>
        <time>2016-01-24T15:24:03Z</time>
      </trkpt>
      <trkpt lat="43.74753" lon="3.54413">
        <ele>317.7</ele>
        <time>2016-01-24T15:24:11Z</time>
      </trkpt>
      <trkpt lat="43.74754" lon="3.54401">
        <ele>317.5</ele>
        <time>2016-01-24T15:24:18Z</time>
      </trkpt>
      <trkpt lat="43.74752" lon="3.54387">
        <ele>317.3</ele>
        <time>2016-01-24T15:24:26Z</time>
      </trkpt>
      <trkpt lat="43.74752" lon="3.54375">
        <ele>317.2</ele>
        <time>2016-01-24T15:24:34Z</time>
      </trkpt>
      <trkpt lat="43.74753" lon="3.54362">
        <ele>317.2</ele>
        <time>2016-01-24T15:24:43Z</time>
      </trkpt>
      <trkpt lat="43.74754" lon="3.54349">
        <ele>316.6</ele>
        <time>2016-01-24T15:24:53Z</time>
      </trkpt>
      <trkpt lat="43.74754" lon="3.54337">
        <ele>316</ele>
        <time>2016-01-24T15:25:02Z</time>
      </trkpt>
      <trkpt lat="43.74756" lon="3.54323">
        <ele>315.2</ele>
        <time>2016-01-24T15:25:11Z</time>
      </trkpt>
      <trkpt lat="43.74756" lon="3.5431">
        <ele>314.3</ele>
        <time>2016-01-24T15:25:19Z</time>
      </trkpt>
      <trkpt lat="43.74757" lon="3.54297">
        <ele>313.3</ele>
        <time>2016-01-24T15:25:28Z</time>
      </trkpt>
      <trkpt lat="43.7476" lon="3.54284">
        <ele>312.3</ele>
        <time>2016-01-24T15:25:37Z</time>
      </trkpt>
      <trkpt lat="43.7476" lon="3.5427">
        <ele>310.8</ele>
        <time>2016-01-24T15:25:46Z</time>
      </trkpt>
      <trkpt lat="43.74765" lon="3.54259">
        <ele>309.8</ele>
        <time>2016-01-24T15:25:54Z</time>
      </trkpt>
      <trkpt lat="43.7476" lon="3.54246">
        <ele>308.7</ele>
        <time>2016-01-24T15:26:03Z</time>
      </trkpt>
      <trkpt lat="43.74754" lon="3.54235">
        <ele>307.8</ele>
        <time>2016-01-24T15:26:11Z</time>
      </trkpt>
      <trkpt lat="43.74754" lon="3.54221">
        <ele>306.9</ele>
        <time>2016-01-24T15:26:20Z</time>
      </trkpt>
      <trkpt lat="43.74754" lon="3.54208">
        <ele>306.4</ele>
        <time>2016-01-24T15:26:27Z</time>
      </trkpt>
      <trkpt lat="43.74757" lon="3.54195">
        <ele>305.7</ele>
        <time>2016-01-24T15:26:35Z</time>
      </trkpt>
      <trkpt lat="43.74759" lon="3.54182">
        <ele>305.4</ele>
        <time>2016-01-24T15:26:42Z</time>
      </trkpt>
      <trkpt lat="43.74763" lon="3.5417">
        <ele>305.1</ele>
        <time>2016-01-24T15:26:50Z</time>
      </trkpt>
      <trkpt lat="43.74767" lon="3.54159">
        <ele>304.7</ele>
        <time>2016-01-24T15:26:57Z</time>
      </trkpt>
      <trkpt lat="43.74769" lon="3.54145">
        <ele>304.4</ele>
        <time>2016-01-24T15:27:04Z</time>
      </trkpt>
      <trkpt lat="43.74762" lon="3.54138">
        <ele>304.2</ele>
        <time>2016-01-24T15:27:12Z</time>
      </trkpt>
      <trkpt lat="43.74753" lon="3.54133">
        <ele>304</ele>
        <time>2016-01-24T15:27:20Z</time>
      </trkpt>
      <trkpt lat="43.74744" lon="3.54133">
        <ele>304.2</ele>
        <time>2016-01-24T15:27:28Z</time>
      </trkpt>
      <trkpt lat="43.74735" lon="3.54128">
        <ele>304.6</ele>
        <time>2016-01-24T15:27:35Z</time>
      </trkpt>
      <trkpt lat="43.74726" lon="3.54123">
        <ele>305.4</ele>
        <time>2016-01-24T15:27:47Z</time>
      </trkpt>
      <trkpt lat="43.74717" lon="3.5412">
        <ele>306</ele>
        <time>2016-01-24T15:27:58Z</time>
      </trkpt>
      <trkpt lat="43.74707" lon="3.54121">
        <ele>307.1</ele>
        <time>2016-01-24T15:28:10Z</time>
      </trkpt>
      <trkpt lat="43.74697" lon="3.54122">
        <ele>308</ele>
        <time>2016-01-24T15:28:21Z</time>
      </trkpt>
      <trkpt lat="43.74687" lon="3.5412">
        <ele>309.6</ele>
        <time>2016-01-24T15:28:41Z</time>
      </trkpt>
      <trkpt lat="43.74677" lon="3.54119">
        <ele>310.4</ele>
        <time>2016-01-24T15:28:52Z</time>
      </trkpt>
      <trkpt lat="43.74668" lon="3.5412">
        <ele>311.1</ele>
        <time>2016-01-24T15:29:03Z</time>
      </trkpt>
      <trkpt lat="43.74659" lon="3.54118">
        <ele>311.5</ele>
        <time>2016-01-24T15:29:10Z</time>
      </trkpt>
      <trkpt lat="43.7465" lon="3.54112">
        <ele>311.8</ele>
        <time>2016-01-24T15:29:18Z</time>
      </trkpt>
      <trkpt lat="43.74641" lon="3.54107">
        <ele>311.9</ele>
        <time>2016-01-24T15:29:25Z</time>
      </trkpt>
      <trkpt lat="43.74631" lon="3.54109">
        <ele>312.3</ele>
        <time>2016-01-24T15:29:33Z</time>
      </trkpt>
      <trkpt lat="43.74621" lon="3.54115">
        <ele>312.8</ele>
        <time>2016-01-24T15:29:43Z</time>
      </trkpt>
      <trkpt lat="43.74613" lon="3.54121">
        <ele>313.3</ele>
        <time>2016-01-24T15:29:51Z</time>
      </trkpt>
      <trkpt lat="43.74603" lon="3.54127">
        <ele>313.9</ele>
        <time>2016-01-24T15:29:59Z</time>
      </trkpt>
      <trkpt lat="43.74593" lon="3.5413">
        <ele>314.2</ele>
        <time>2016-01-24T15:30:08Z</time>
      </trkpt>
      <trkpt lat="43.74584" lon="3.54135">
        <ele>313.8</ele>
        <time>2016-01-24T15:30:17Z</time>
      </trkpt>
      <trkpt lat="43.74575" lon="3.54137">
        <ele>313.3</ele>
        <time>2016-01-24T15:30:25Z</time>
      </trkpt>
      <trkpt lat="43.74566" lon="3.54142">
        <ele>311.6</ele>
        <time>2016-01-24T15:30:38Z</time>
      </trkpt>
      <trkpt lat="43.74556" lon="3.54144">
        <ele>310.7</ele>
        <time>2016-01-24T15:30:45Z</time>
      </trkpt>
      <trkpt lat="43.74547" lon="3.5414">
        <ele>309.4</ele>
        <time>2016-01-24T15:30:54Z</time>
      </trkpt>
      <trkpt lat="43.74537" lon="3.54138">
        <ele>308.3</ele>
        <time>2016-01-24T15:31:05Z</time>
      </trkpt>
      <trkpt lat="43.74527" lon="3.54141">
        <ele>307.8</ele>
        <time>2016-01-24T15:31:14Z</time>
      </trkpt>
      <trkpt lat="43.74517" lon="3.54142">
        <ele>307.6</ele>
        <time>2016-01-24T15:31:25Z</time>
      </trkpt>
      <trkpt lat="43.74508" lon="3.54147">
        <ele>307.6</ele>
        <time>2016-01-24T15:31:30Z</time>
      </trkpt>
      <trkpt lat="43.74499" lon="3.54148">
        <ele>307.6</ele>
        <time>2016-01-24T15:31:36Z</time>
      </trkpt>
      <trkpt lat="43.74489" lon="3.5415">
        <ele>307.7</ele>
        <time>2016-01-24T15:31:44Z</time>
      </trkpt>
      <trkpt lat="43.74479" lon="3.54151">
        <ele>307.9</ele>
        <time>2016-01-24T15:31:53Z</time>
      </trkpt>
      <trkpt lat="43.74471" lon="3.54158">
        <ele>308.4</ele>
        <time>2016-01-24T15:32:02Z</time>
      </trkpt>
      <trkpt lat="43.74461" lon="3.54165">
        <ele>308.7</ele>
        <time>2016-01-24T15:32:10Z</time>
      </trkpt>
      <trkpt lat="43.74454" lon="3.54173">
        <ele>309.1</ele>
        <time>2016-01-24T15:32:20Z</time>
      </trkpt>
      <trkpt lat="43.74445" lon="3.54174">
        <ele>309.4</ele>
        <time>2016-01-24T15:32:30Z</time>
      </trkpt>
      <trkpt lat="43.74436" lon="3.54168">
        <ele>309.6</ele>
        <time>2016-01-24T15:32:39Z</time>
      </trkpt>
      <trkpt lat="43.74427" lon="3.54173">
        <ele>309.7</ele>
        <time>2016-01-24T15:32:47Z</time>
      </trkpt>
      <trkpt lat="43.74418" lon="3.54176">
        <ele>309.7</ele>
        <time>2016-01-24T15:32:56Z</time>
      </trkpt>
      <trkpt lat="43.74409" lon="3.54179">
        <ele>309.6</ele>
        <time>2016-01-24T15:33:06Z</time>
      </trkpt>
      <trkpt lat="43.744" lon="3.54184">
        <ele>309.2</ele>
        <time>2016-01-24T15:33:17Z</time>
      </trkpt>
      <trkpt lat="43.74393" lon="3.54192">
        <ele>307.7</ele>
        <time>2016-01-24T15:33:42Z</time>
      </trkpt>
      <trkpt lat="43.74383" lon="3.54195">
        <ele>306.8</ele>
        <time>2016-01-24T15:34:11Z</time>
      </trkpt>
      <trkpt lat="43.74374" lon="3.54193">
        <ele>306.3</ele>
        <time>2016-01-24T15:34:19Z</time>
      </trkpt>
      <trkpt lat="43.74365" lon="3.54189">
        <ele>305.6</ele>
        <time>2016-01-24T15:34:28Z</time>
      </trkpt>
      <trkpt lat="43.74355" lon="3.54185">
        <ele>304</ele>
        <time>2016-01-24T15:34:38Z</time>
      </trkpt>
      <trkpt lat="43.74344" lon="3.54189">
        <ele>302.6</ele>
        <time>2016-01-24T15:34:47Z</time>
      </trkpt>
      <trkpt lat="43.74335" lon="3.54195">
        <ele>301.9</ele>
        <time>2016-01-24T15:34:55Z</time>
      </trkpt>
      <trkpt lat="43.74327" lon="3.54207">
        <ele>301.5</ele>
        <time>2016-01-24T15:35:02Z</time>
      </trkpt>
      <trkpt lat="43.74323" lon="3.54219">
        <ele>300.8</ele>
        <time>2016-01-24T15:35:09Z</time>
      </trkpt>
      <trkpt lat="43.74315" lon="3.54227">
        <ele>300.1</ele>
        <time>2016-01-24T15:35:22Z</time>
      </trkpt>
      <trkpt lat="43.74306" lon="3.54232">
        <ele>299.7</ele>
        <time>2016-01-24T15:35:28Z</time>
      </trkpt>
      <trkpt lat="43.74298" lon="3.5424">
        <ele>299.2</ele>
        <time>2016-01-24T15:35:33Z</time>
      </trkpt>
      <trkpt lat="43.74291" lon="3.54249">
        <ele>297.1</ele>
        <time>2016-01-24T15:35:56Z</time>
      </trkpt>
      <trkpt lat="43.74285" lon="3.54258">
        <ele>295.3</ele>
        <time>2016-01-24T15:36:09Z</time>
      </trkpt>
      <trkpt lat="43.74278" lon="3.54265">
        <ele>293.4</ele>
        <time>2016-01-24T15:36:27Z</time>
      </trkpt>
      <trkpt lat="43.74272" lon="3.54275">
        <ele>291.6</ele>
        <time>2016-01-24T15:36:47Z</time>
      </trkpt>
      <trkpt lat="43.74265" lon="3.54285">
        <ele>291</ele>
        <time>2016-01-24T15:36:55Z</time>
      </trkpt>
      <trkpt lat="43.74259" lon="3.54296">
        <ele>289.4</ele>
        <time>2016-01-24T15:37:07Z</time>
      </trkpt>
      <trkpt lat="43.74254" lon="3.54306">
        <ele>288.3</ele>
        <time>2016-01-24T15:37:15Z</time>
      </trkpt>
      <trkpt lat="43.74251" lon="3.54318">
        <ele>287.1</ele>
        <time>2016-01-24T15:37:23Z</time>
      </trkpt>
      <trkpt lat="43.74246" lon="3.5433">
        <ele>285.5</ele>
        <time>2016-01-24T15:37:34Z</time>
      </trkpt>
      <trkpt lat="43.74241" lon="3.54341">
        <ele>284</ele>
        <time>2016-01-24T15:37:44Z</time>
      </trkpt>
      <trkpt lat="43.74237" lon="3.54353">
        <ele>281.5</ele>
        <time>2016-01-24T15:37:58Z</time>
      </trkpt>
      <trkpt lat="43.74235" lon="3.54366">
        <ele>280.2</ele>
        <time>2016-01-24T15:38:08Z</time>
      </trkpt>
      <trkpt lat="43.74233" lon="3.54378">
        <ele>278.8</ele>
        <time>2016-01-24T15:38:18Z</time>
      </trkpt>
      <trkpt lat="43.74225" lon="3.54386">
        <ele>277.5</ele>
        <time>2016-01-24T15:38:28Z</time>
      </trkpt>
      <trkpt lat="43.74219" lon="3.54397">
        <ele>276.1</ele>
        <time>2016-01-24T15:38:37Z</time>
      </trkpt>
      <trkpt lat="43.74213" lon="3.54407">
        <ele>274.2</ele>
        <time>2016-01-24T15:38:47Z</time>
      </trkpt>
      <trkpt lat="43.74206" lon="3.54415">
        <ele>272.4</ele>
        <time>2016-01-24T15:38:59Z</time>
      </trkpt>
      <trkpt lat="43.74201" lon="3.54427">
        <ele>271.4</ele>
        <time>2016-01-24T15:39:06Z</time>
      </trkpt>
      <trkpt lat="43.74198" lon="3.54414">
        <ele>268.2</ele>
        <time>2016-01-24T15:39:36Z</time>
      </trkpt>
      <trkpt lat="43.74203" lon="3.54402">
        <ele>267.3</ele>
        <time>2016-01-24T15:39:46Z</time>
      </trkpt>
      <trkpt lat="43.742" lon="3.54389">
        <ele>266.3</ele>
        <time>2016-01-24T15:39:53Z</time>
      </trkpt>
      <trkpt lat="43.74198" lon="3.54377">
        <ele>265.5</ele>
        <time>2016-01-24T15:40:01Z</time>
      </trkpt>
      <trkpt lat="43.74195" lon="3.54364">
        <ele>264.3</ele>
        <time>2016-01-24T15:40:10Z</time>
      </trkpt>
      <trkpt lat="43.74191" lon="3.54352">
        <ele>262.8</ele>
        <time>2016-01-24T15:40:20Z</time>
      </trkpt>
      <trkpt lat="43.74193" lon="3.54339">
        <ele>262</ele>
        <time>2016-01-24T15:40:28Z</time>
      </trkpt>
      <trkpt lat="43.74192" lon="3.54325">
        <ele>261.4</ele>
        <time>2016-01-24T15:40:37Z</time>
      </trkpt>
      <trkpt lat="43.74191" lon="3.54313">
        <ele>260.7</ele>
        <time>2016-01-24T15:40:45Z</time>
      </trkpt>
      <trkpt lat="43.7419" lon="3.543">
        <ele>260</ele>
        <time>2016-01-24T15:40:59Z</time>
      </trkpt>
      <trkpt lat="43.74181" lon="3.543">
        <ele>258.5</ele>
        <time>2016-01-24T15:41:13Z</time>
      </trkpt>
      <trkpt lat="43.74174" lon="3.5431">
        <ele>257.4</ele>
        <time>2016-01-24T15:41:20Z</time>
      </trkpt>
      <trkpt lat="43.74168" lon="3.54321">
        <ele>256.1</ele>
        <time>2016-01-24T15:41:29Z</time>
      </trkpt>
      <trkpt lat="43.74162" lon="3.5433">
        <ele>254.7</ele>
        <time>2016-01-24T15:41:38Z</time>
      </trkpt>
      <trkpt lat="43.74157" lon="3.54341">
        <ele>253</ele>
        <time>2016-01-24T15:41:50Z</time>
      </trkpt>
      <trkpt lat="43.74152" lon="3.54331">
        <ele>250.5</ele>
        <time>2016-01-24T15:42:13Z</time>
      </trkpt>
      <trkpt lat="43.74149" lon="3.54318">
        <ele>249.3</ele>
        <time>2016-01-24T15:42:23Z</time>
      </trkpt>
      <trkpt lat="43.7414" lon="3.54322">
        <ele>247.4</ele>
        <time>2016-01-24T15:42:37Z</time>
      </trkpt>
      <trkpt lat="43.74134" lon="3.54333">
        <ele>245.8</ele>
        <time>2016-01-24T15:42:48Z</time>
      </trkpt>
      <trkpt lat="43.74132" lon="3.5432">
        <ele>243</ele>
        <time>2016-01-24T15:43:05Z</time>
      </trkpt>
      <trkpt lat="43.74127" lon="3.5431">
        <ele>242</ele>
        <time>2016-01-24T15:43:14Z</time>
      </trkpt>
      <trkpt lat="43.74121" lon="3.54321">
        <ele>240.2</ele>
        <time>2016-01-24T15:43:37Z</time>
      </trkpt>
      <trkpt lat="43.74119" lon="3.54333">
        <ele>239.2</ele>
        <time>2016-01-24T15:43:46Z</time>
      </trkpt>
      <trkpt lat="43.74114" lon="3.54345">
        <ele>238.5</ele>
        <time>2016-01-24T15:43:54Z</time>
      </trkpt>
      <trkpt lat="43.74108" lon="3.54356">
        <ele>237</ele>
        <time>2016-01-24T15:44:04Z</time>
      </trkpt>
      <trkpt lat="43.74102" lon="3.54365">
        <ele>235.5</ele>
        <time>2016-01-24T15:44:13Z</time>
      </trkpt>
      <trkpt lat="43.74096" lon="3.54375">
        <ele>233.7</ele>
        <time>2016-01-24T15:44:24Z</time>
      </trkpt>
      <trkpt lat="43.74089" lon="3.54385">
        <ele>232.1</ele>
        <time>2016-01-24T15:44:33Z</time>
      </trkpt>
      <trkpt lat="43.74085" lon="3.54398">
        <ele>230.6</ele>
        <time>2016-01-24T15:44:41Z</time>
      </trkpt>
      <trkpt lat="43.74081" lon="3.54409">
        <ele>229.5</ele>
        <time>2016-01-24T15:44:48Z</time>
      </trkpt>
      <trkpt lat="43.74082" lon="3.54423">
        <ele>228.7</ele>
        <time>2016-01-24T15:44:55Z</time>
      </trkpt>
      <trkpt lat="43.7408" lon="3.54436">
        <ele>228</ele>
        <time>2016-01-24T15:45:02Z</time>
      </trkpt>
      <trkpt lat="43.74072" lon="3.54442">
        <ele>227.5</ele>
        <time>2016-01-24T15:45:10Z</time>
      </trkpt>
      <trkpt lat="43.74062" lon="3.54443">
        <ele>227.1</ele>
        <time>2016-01-24T15:45:17Z</time>
      </trkpt>
      <trkpt lat="43.74052" lon="3.54446">
        <ele>226.6</ele>
        <time>2016-01-24T15:45:25Z</time>
      </trkpt>
      <trkpt lat="43.74043" lon="3.54452">
        <ele>226.3</ele>
        <time>2016-01-24T15:45:34Z</time>
      </trkpt>
      <trkpt lat="43.74036" lon="3.54461">
        <ele>226.1</ele>
        <time>2016-01-24T15:45:41Z</time>
      </trkpt>
      <trkpt lat="43.74029" lon="3.5447">
        <ele>225.8</ele>
        <time>2016-01-24T15:45:49Z</time>
      </trkpt>
      <trkpt lat="43.74025" lon="3.54483">
        <ele>225.4</ele>
        <time>2016-01-24T15:45:58Z</time>
      </trkpt>
      <trkpt lat="43.74022" lon="3.54496">
        <ele>225.1</ele>
        <time>2016-01-24T15:46:05Z</time>
      </trkpt>
      <trkpt lat="43.74023" lon="3.54509">
        <ele>224.9</ele>
        <time>2016-01-24T15:46:13Z</time>
      </trkpt>
      <trkpt lat="43.7402" lon="3.54521">
        <ele>224.6</ele>
        <time>2016-01-24T15:46:20Z</time>
      </trkpt>
      <trkpt lat="43.7402" lon="3.54533">
        <ele>224.2</ele>
        <time>2016-01-24T15:46:28Z</time>
      </trkpt>
      <trkpt lat="43.74021" lon="3.54547">
        <ele>223.8</ele>
        <time>2016-01-24T15:46:37Z</time>
      </trkpt>
      <trkpt lat="43.7402" lon="3.5456">
        <ele>223.1</ele>
        <time>2016-01-24T15:46:45Z</time>
      </trkpt>
      <trkpt lat="43.74017" lon="3.54573">
        <ele>222.5</ele>
        <time>2016-01-24T15:46:53Z</time>
      </trkpt>
      <trkpt lat="43.74018" lon="3.54585">
        <ele>221.6</ele>
        <time>2016-01-24T15:47:06Z</time>
      </trkpt>
      <trkpt lat="43.74009" lon="3.54591">
        <ele>220.4</ele>
        <time>2016-01-24T15:47:18Z</time>
      </trkpt>
      <trkpt lat="43.74002" lon="3.54602">
        <ele>219.8</ele>
        <time>2016-01-24T15:47:24Z</time>
      </trkpt>
      <trkpt lat="43.73996" lon="3.54612">
        <ele>218.9</ele>
        <time>2016-01-24T15:47:31Z</time>
      </trkpt>
      <trkpt lat="43.7399" lon="3.54622">
        <ele>218.2</ele>
        <time>2016-01-24T15:47:38Z</time>
      </trkpt>
      <trkpt lat="43.73983" lon="3.54632">
        <ele>217.3</ele>
        <time>2016-01-24T15:47:48Z</time>
      </trkpt>
      <trkpt lat="43.73977" lon="3.54642">
        <ele>216.7</ele>
        <time>2016-01-24T15:47:56Z</time>
      </trkpt>
      <trkpt lat="43.73969" lon="3.54649">
        <ele>216</ele>
        <time>2016-01-24T15:48:04Z</time>
      </trkpt>
      <trkpt lat="43.73961" lon="3.54656">
        <ele>215.3</ele>
        <time>2016-01-24T15:48:12Z</time>
      </trkpt>
      <trkpt lat="43.73955" lon="3.54666">
        <ele>214.3</ele>
        <time>2016-01-24T15:48:21Z</time>
      </trkpt>
      <trkpt lat="43.73947" lon="3.54673">
        <ele>213.7</ele>
        <time>2016-01-24T15:48:28Z</time>
      </trkpt>
      <trkpt lat="43.73939" lon="3.54682">
        <ele>213</ele>
        <time>2016-01-24T15:48:39Z</time>
      </trkpt>
      <trkpt lat="43.73933" lon="3.54692">
        <ele>211.5</ele>
        <time>2016-01-24T15:50:47Z</time>
      </trkpt>
      <trkpt lat="43.73925" lon="3.54701">
        <ele>211.5</ele>
        <time>2016-01-24T15:50:55Z</time>
      </trkpt>
      <trkpt lat="43.73917" lon="3.54708">
        <ele>211.5</ele>
        <time>2016-01-24T15:51:01Z</time>
      </trkpt>
      <trkpt lat="43.73911" lon="3.54718">
        <ele>211.5</ele>
        <time>2016-01-24T15:51:12Z</time>
      </trkpt>
      <trkpt lat="43.73906" lon="3.54729">
        <ele>211.9</ele>
        <time>2016-01-24T15:51:21Z</time>
      </trkpt>
      <trkpt lat="43.73905" lon="3.54742">
        <ele>212.2</ele>
        <time>2016-01-24T15:51:29Z</time>
      </trkpt>
      <trkpt lat="43.73899" lon="3.54752">
        <ele>211.9</ele>
        <time>2016-01-24T15:51:40Z</time>
      </trkpt>
      <trkpt lat="43.73892" lon="3.5476">
        <ele>211.1</ele>
        <time>2016-01-24T15:51:48Z</time>
      </trkpt>
      <trkpt lat="43.73884" lon="3.54767">
        <ele>210</ele>
        <time>2016-01-24T15:51:56Z</time>
      </trkpt>
      <trkpt lat="43.73878" lon="3.54776">
        <ele>208.3</ele>
        <time>2016-01-24T15:52:07Z</time>
      </trkpt>
      <trkpt lat="43.73872" lon="3.54785">
        <ele>206.9</ele>
        <time>2016-01-24T15:52:18Z</time>
      </trkpt>
      <trkpt lat="43.73864" lon="3.54795">
        <ele>205.8</ele>
        <time>2016-01-24T15:52:26Z</time>
      </trkpt>
      <trkpt lat="43.73859" lon="3.54807">
        <ele>204.7</ele>
        <time>2016-01-24T15:52:34Z</time>
      </trkpt>
      <trkpt lat="43.73853" lon="3.54817">
        <ele>203.4</ele>
        <time>2016-01-24T15:52:47Z</time>
      </trkpt>
      <trkpt lat="43.73847" lon="3.54827">
        <ele>202.1</ele>
        <time>2016-01-24T15:52:58Z</time>
      </trkpt>
      <trkpt lat="43.73841" lon="3.54837">
        <ele>200.7</ele>
        <time>2016-01-24T15:53:09Z</time>
      </trkpt>
      <trkpt lat="43.73834" lon="3.54847">
        <ele>199.6</ele>
        <time>2016-01-24T15:53:20Z</time>
      </trkpt>
      <trkpt lat="43.73829" lon="3.54858">
        <ele>198.6</ele>
        <time>2016-01-24T15:53:30Z</time>
      </trkpt>
      <trkpt lat="43.73824" lon="3.54869">
        <ele>196.6</ele>
        <time>2016-01-24T15:53:44Z</time>
      </trkpt>
      <trkpt lat="43.73817" lon="3.54876">
        <ele>195.3</ele>
        <time>2016-01-24T15:53:54Z</time>
      </trkpt>
      <trkpt lat="43.73808" lon="3.54877">
        <ele>194</ele>
        <time>2016-01-24T15:54:07Z</time>
      </trkpt>
      <trkpt lat="43.73807" lon="3.5489">
        <ele>193.2</ele>
        <time>2016-01-24T15:55:16Z</time>
      </trkpt>
      <trkpt lat="43.73801" lon="3.549">
        <ele>192.5</ele>
        <time>2016-01-24T15:55:26Z</time>
      </trkpt>
      <trkpt lat="43.73794" lon="3.54907">
        <ele>191.7</ele>
        <time>2016-01-24T15:55:38Z</time>
      </trkpt>
      <trkpt lat="43.73787" lon="3.54899">
        <ele>190.5</ele>
        <time>2016-01-24T15:55:58Z</time>
      </trkpt>
      <trkpt lat="43.73789" lon="3.54886">
        <ele>189.2</ele>
        <time>2016-01-24T15:56:14Z</time>
      </trkpt>
      <trkpt lat="43.73779" lon="3.54887">
        <ele>186</ele>
        <time>2016-01-24T15:56:46Z</time>
      </trkpt>
      <trkpt lat="43.73773" lon="3.54899">
        <ele>184.7</ele>
        <time>2016-01-24T15:56:59Z</time>
      </trkpt>
      <trkpt lat="43.73766" lon="3.54907">
        <ele>183.5</ele>
        <time>2016-01-24T15:57:09Z</time>
      </trkpt>
      <trkpt lat="43.7377" lon="3.54895">
        <ele>181.4</ele>
        <time>2016-01-24T15:57:25Z</time>
      </trkpt>
      <trkpt lat="43.73772" lon="3.54883">
        <ele>179.5</ele>
        <time>2016-01-24T15:57:38Z</time>
      </trkpt>
      <trkpt lat="43.73777" lon="3.54871">
        <ele>178.7</ele>
        <time>2016-01-24T15:57:51Z</time>
      </trkpt>
      <trkpt lat="43.73784" lon="3.54861">
        <ele>177.9</ele>
        <time>2016-01-24T15:58:02Z</time>
      </trkpt>
      <trkpt lat="43.73789" lon="3.5485">
        <ele>176.8</ele>
        <time>2016-01-24T15:58:13Z</time>
      </trkpt>
      <trkpt lat="43.73792" lon="3.54837">
        <ele>175.8</ele>
        <time>2016-01-24T15:58:24Z</time>
      </trkpt>
      <trkpt lat="43.73795" lon="3.54825">
        <ele>174.7</ele>
        <time>2016-01-24T15:58:35Z</time>
      </trkpt>
      <trkpt lat="43.73794" lon="3.54811">
        <ele>173.3</ele>
        <time>2016-01-24T15:58:46Z</time>
      </trkpt>
      <trkpt lat="43.73794" lon="3.54799">
        <ele>171.6</ele>
        <time>2016-01-24T15:58:56Z</time>
      </trkpt>
      <trkpt lat="43.7379" lon="3.54787">
        <ele>170.4</ele>
        <time>2016-01-24T15:59:05Z</time>
      </trkpt>
      <trkpt lat="43.73786" lon="3.54775">
        <ele>169.2</ele>
        <time>2016-01-24T15:59:16Z</time>
      </trkpt>
      <trkpt lat="43.73781" lon="3.54763">
        <ele>167.8</ele>
        <time>2016-01-24T15:59:26Z</time>
      </trkpt>
      <trkpt lat="43.73777" lon="3.54751">
        <ele>166.5</ele>
        <time>2016-01-24T15:59:36Z</time>
      </trkpt>
      <trkpt lat="43.73774" lon="3.54764">
        <ele>164.1</ele>
        <time>2016-01-24T15:59:56Z</time>
      </trkpt>
      <trkpt lat="43.73775" lon="3.54778">
        <ele>162.9</ele>
        <time>2016-01-24T16:00:07Z</time>
      </trkpt>
      <trkpt lat="43.73776" lon="3.54791">
        <ele>162.1</ele>
        <time>2016-01-24T16:00:16Z</time>
      </trkpt>
      <trkpt lat="43.73775" lon="3.54804">
        <ele>160.8</ele>
        <time>2016-01-24T16:00:28Z</time>
      </trkpt>
      <trkpt lat="43.73767" lon="3.54813">
        <ele>159.8</ele>
        <time>2016-01-24T16:00:39Z</time>
      </trkpt>
      <trkpt lat="43.7376" lon="3.54822">
        <ele>158.7</ele>
        <time>2016-01-24T16:00:50Z</time>
      </trkpt>
      <trkpt lat="43.73751" lon="3.54828">
        <ele>157.4</ele>
        <time>2016-01-24T16:01:00Z</time>
      </trkpt>
      <trkpt lat="43.73743" lon="3.54832">
        <ele>156.3</ele>
        <time>2016-01-24T16:01:08Z</time>
      </trkpt>
      <trkpt lat="43.73734" lon="3.54839">
        <ele>154.5</ele>
        <time>2016-01-24T16:01:19Z</time>
      </trkpt>
      <trkpt lat="43.73728" lon="3.54849">
        <ele>152.6</ele>
        <time>2016-01-24T16:01:31Z</time>
      </trkpt>
      <trkpt lat="43.73719" lon="3.54853">
        <ele>147.9</ele>
        <time>2016-01-24T16:02:08Z</time>
      </trkpt>
      <trkpt lat="43.73715" lon="3.54865">
        <ele>146.3</ele>
        <time>2016-01-24T16:02:19Z</time>
      </trkpt>
      <trkpt lat="43.73708" lon="3.54872">
        <ele>144.9</ele>
        <time>2016-01-24T16:02:30Z</time>
      </trkpt>
      <trkpt lat="43.73699" lon="3.54878">
        <ele>143.5</ele>
        <time>2016-01-24T16:02:40Z</time>
      </trkpt>
      <trkpt lat="43.7369" lon="3.54883">
        <ele>141.6</ele>
        <time>2016-01-24T16:02:51Z</time>
      </trkpt>
      <trkpt lat="43.7368" lon="3.54885">
        <ele>140.2</ele>
        <time>2016-01-24T16:03:00Z</time>
      </trkpt>
      <trkpt lat="43.73671" lon="3.54889">
        <ele>139.1</ele>
        <time>2016-01-24T16:03:07Z</time>
      </trkpt>
      <trkpt lat="43.73662" lon="3.54891">
        <ele>137.3</ele>
        <time>2016-01-24T16:03:18Z</time>
      </trkpt>
      <trkpt lat="43.73653" lon="3.54893">
        <ele>135.2</ele>
        <time>2016-01-24T16:03:31Z</time>
      </trkpt>
      <trkpt lat="43.73644" lon="3.54899">
        <ele>134</ele>
        <time>2016-01-24T16:03:40Z</time>
      </trkpt>
      <trkpt lat="43.73635" lon="3.54905">
        <ele>133</ele>
        <time>2016-01-24T16:03:49Z</time>
      </trkpt>
      <trkpt lat="43.73626" lon="3.54902">
        <ele>131.6</ele>
        <time>2016-01-24T16:04:00Z</time>
      </trkpt>
      <trkpt lat="43.73618" lon="3.54894">
        <ele>130.5</ele>
        <time>2016-01-24T16:04:11Z</time>
      </trkpt>
      <trkpt lat="43.73612" lon="3.54885">
        <ele>129.4</ele>
        <time>2016-01-24T16:04:22Z</time>
      </trkpt>
      <trkpt lat="43.73605" lon="3.54875">
        <ele>127.9</ele>
        <time>2016-01-24T16:04:34Z</time>
      </trkpt>
      <trkpt lat="43.73598" lon="3.54867">
        <ele>127</ele>
        <time>2016-01-24T16:04:44Z</time>
      </trkpt>
      <trkpt lat="43.73589" lon="3.54869">
        <ele>126.4</ele>
        <time>2016-01-24T16:04:51Z</time>
      </trkpt>
      <trkpt lat="43.73579" lon="3.5487">
        <ele>125.2</ele>
        <time>2016-01-24T16:05:01Z</time>
      </trkpt>
      <trkpt lat="43.7357" lon="3.54874">
        <ele>124</ele>
        <time>2016-01-24T16:05:11Z</time>
      </trkpt>
      <trkpt lat="43.73561" lon="3.54879">
        <ele>123</ele>
        <time>2016-01-24T16:05:20Z</time>
      </trkpt>
      <trkpt lat="43.73568" lon="3.5487">
        <ele>121.3</ele>
        <time>2016-01-24T16:05:37Z</time>
      </trkpt>
      <trkpt lat="43.73574" lon="3.54861">
        <ele>120</ele>
        <time>2016-01-24T16:05:47Z</time>
      </trkpt>
      <trkpt lat="43.73581" lon="3.54853">
        <ele>118.5</ele>
        <time>2016-01-24T16:05:57Z</time>
      </trkpt>
      <trkpt lat="43.73587" lon="3.54843">
        <ele>117.1</ele>
        <time>2016-01-24T16:06:06Z</time>
      </trkpt>
      <trkpt lat="43.7358" lon="3.54833">
        <ele>115.2</ele>
        <time>2016-01-24T16:06:21Z</time>
      </trkpt>
      <trkpt lat="43.73572" lon="3.5484">
        <ele>113.7</ele>
        <time>2016-01-24T16:06:30Z</time>
      </trkpt>
      <trkpt lat="43.73565" lon="3.54848">
        <ele>112.2</ele>
        <time>2016-01-24T16:06:39Z</time>
      </trkpt>
      <trkpt lat="43.73555" lon="3.54848">
        <ele>110.4</ele>
        <time>2016-01-24T16:06:50Z</time>
      </trkpt>
      <trkpt lat="43.73548" lon="3.5484">
        <ele>108.2</ele>
        <time>2016-01-24T16:07:01Z</time>
      </trkpt>
      <trkpt lat="43.73539" lon="3.54836">
        <ele>106.5</ele>
        <time>2016-01-24T16:07:11Z</time>
      </trkpt>
      <trkpt lat="43.7353" lon="3.54833">
        <ele>104.5</ele>
        <time>2016-01-24T16:07:22Z</time>
      </trkpt>
      <trkpt lat="43.73522" lon="3.54826">
        <ele>102.2</ele>
        <time>2016-01-24T16:07:37Z</time>
      </trkpt>
      <trkpt lat="43.73517" lon="3.54816">
        <ele>101</ele>
        <time>2016-01-24T16:07:46Z</time>
      </trkpt>
      <trkpt lat="43.73511" lon="3.54806">
        <ele>99.7</ele>
        <time>2016-01-24T16:07:56Z</time>
      </trkpt>
      <trkpt lat="43.73502" lon="3.54801">
        <ele>99</ele>
        <time>2016-01-24T16:08:05Z</time>
      </trkpt>
      <trkpt lat="43.73493" lon="3.548">
        <ele>98.4</ele>
        <time>2016-01-24T16:08:15Z</time>
      </trkpt>
      <trkpt lat="43.73484" lon="3.54796">
        <ele>98.1</ele>
        <time>2016-01-24T16:08:26Z</time>
      </trkpt>
      <trkpt lat="43.73475" lon="3.54797">
        <ele>97.7</ele>
        <time>2016-01-24T16:08:40Z</time>
      </trkpt>
      <trkpt lat="43.73467" lon="3.54805">
        <ele>97.4</ele>
        <time>2016-01-24T16:08:47Z</time>
      </trkpt>
      <trkpt lat="43.73462" lon="3.54817">
        <ele>97.2</ele>
        <time>2016-01-24T16:08:54Z</time>
      </trkpt>
      <trkpt lat="43.73452" lon="3.54822">
        <ele>97.1</ele>
        <time>2016-01-24T16:09:06Z</time>
      </trkpt>
      <trkpt lat="43.73444" lon="3.5483">
        <ele>97.3</ele>
        <time>2016-01-24T16:09:16Z</time>
      </trkpt>
      <trkpt lat="43.73438" lon="3.5484">
        <ele>97.5</ele>
        <time>2016-01-24T16:09:24Z</time>
      </trkpt>
      <trkpt lat="43.73432" lon="3.5485">
        <ele>97.5</ele>
        <time>2016-01-24T16:09:32Z</time>
      </trkpt>
      <trkpt lat="43.73426" lon="3.54859">
        <ele>97.5</ele>
        <time>2016-01-24T16:09:45Z</time>
      </trkpt>
      <trkpt lat="43.73416" lon="3.54861">
        <ele>97.4</ele>
        <time>2016-01-24T16:09:48Z</time>
      </trkpt>
      <trkpt lat="43.73409" lon="3.54868">
        <ele>97.3</ele>
        <time>2016-01-24T16:09:53Z</time>
      </trkpt>
      <trkpt lat="43.734" lon="3.54887">
        <ele>98.3</ele>
        <time>2016-01-24T16:11:07Z</time>
      </trkpt>
      <trkpt lat="43.73402" lon="3.54874">
        <ele>98.7</ele>
        <time>2016-01-24T16:11:33Z</time>
      </trkpt>
      <trkpt lat="43.73412" lon="3.54866">
        <ele>99.2</ele>
        <time>2016-01-24T16:12:01Z</time>
      </trkpt>
      <trkpt lat="43.73412" lon="3.54879">
        <ele>99.4</ele>
        <time>2016-01-24T16:12:17Z</time>
      </trkpt>
      <trkpt lat="43.73408" lon="3.54891">
        <ele>105.8</ele>
        <time>2016-01-24T16:19:16Z</time>
      </trkpt>
      <trkpt lat="43.73399" lon="3.54888">
        <ele>107.6</ele>
        <time>2016-01-24T16:22:46Z</time>
      </trkpt>
      <trkpt lat="43.73399" lon="3.54904">
        <ele>107</ele>
        <time>2016-01-24T16:26:45Z</time>
      </trkpt>
      <trkpt lat="43.73391" lon="3.5489">
        <ele>108.4</ele>
        <time>2016-01-24T16:30:52Z</time>
      </trkpt>
      <trkpt lat="43.73393" lon="3.54917">
        <ele>110</ele>
        <time>2016-01-24T16:33:16Z</time>
      </trkpt>
      <trkpt lat="43.73399" lon="3.54929">
        <ele>111</ele>
        <time>2016-01-24T16:33:22Z</time>
      </trkpt>
      <trkpt lat="43.73398" lon="3.54942">
        <ele>111.7</ele>
        <time>2016-01-24T16:33:31Z</time>
      </trkpt>
      <trkpt lat="43.73392" lon="3.54953">
        <ele>112</ele>
        <time>2016-01-24T16:33:40Z</time>
      </trkpt>
      <trkpt lat="43.73388" lon="3.54964">
        <ele>111.5</ele>
        <time>2016-01-24T16:33:52Z</time>
      </trkpt>
      <trkpt lat="43.73384" lon="3.54976">
        <ele>110.5</ele>
        <time>2016-01-24T16:34:03Z</time>
      </trkpt>
      <trkpt lat="43.73378" lon="3.54986">
        <ele>109.9</ele>
        <time>2016-01-24T16:34:09Z</time>
      </trkpt>
      <trkpt lat="43.73377" lon="3.54999">
        <ele>108.7</ele>
        <time>2016-01-24T16:34:18Z</time>
      </trkpt>
      <trkpt lat="43.7337" lon="3.55007">
        <ele>107.5</ele>
        <time>2016-01-24T16:34:31Z</time>
      </trkpt>
      <trkpt lat="43.73374" lon="3.55019">
        <ele>106.6</ele>
        <time>2016-01-24T16:34:40Z</time>
      </trkpt>
      <trkpt lat="43.7338" lon="3.55028">
        <ele>105.9</ele>
        <time>2016-01-24T16:34:48Z</time>
      </trkpt>
      <trkpt lat="43.73378" lon="3.55042">
        <ele>105</ele>
        <time>2016-01-24T16:34:58Z</time>
      </trkpt>
      <trkpt lat="43.73378" lon="3.55055">
        <ele>104.4</ele>
        <time>2016-01-24T16:35:06Z</time>
      </trkpt>
      <trkpt lat="43.73376" lon="3.55067">
        <ele>103.6</ele>
        <time>2016-01-24T16:35:16Z</time>
      </trkpt>
      <trkpt lat="43.73374" lon="3.5508">
        <ele>103.1</ele>
        <time>2016-01-24T16:35:23Z</time>
      </trkpt>
      <trkpt lat="43.73374" lon="3.55093">
        <ele>102.3</ele>
        <time>2016-01-24T16:35:33Z</time>
      </trkpt>
      <trkpt lat="43.73376" lon="3.55106">
        <ele>101.6</ele>
        <time>2016-01-24T16:35:42Z</time>
      </trkpt>
      <trkpt lat="43.73374" lon="3.55119">
        <ele>100.6</ele>
        <time>2016-01-24T16:35:51Z</time>
      </trkpt>
      <trkpt lat="43.73375" lon="3.55131">
        <ele>99.5</ele>
        <time>2016-01-24T16:36:00Z</time>
      </trkpt>
      <trkpt lat="43.73377" lon="3.55145">
        <ele>98.4</ele>
        <time>2016-01-24T16:36:09Z</time>
      </trkpt>
      <trkpt lat="43.73376" lon="3.55157">
        <ele>97.4</ele>
        <time>2016-01-24T16:36:17Z</time>
      </trkpt>
      <trkpt lat="43.73375" lon="3.5517">
        <ele>96.5</ele>
        <time>2016-01-24T16:36:24Z</time>
      </trkpt>
      <trkpt lat="43.73371" lon="3.55183">
        <ele>95.5</ele>
        <time>2016-01-24T16:36:34Z</time>
      </trkpt>
      <trkpt lat="43.73365" lon="3.55193">
        <ele>94.8</ele>
        <time>2016-01-24T16:36:42Z</time>
      </trkpt>
      <trkpt lat="43.73361" lon="3.55205">
        <ele>93.8</ele>
        <time>2016-01-24T16:36:52Z</time>
      </trkpt>
      <trkpt lat="43.73358" lon="3.55217">
        <ele>93</ele>
        <time>2016-01-24T16:37:00Z</time>
      </trkpt>
      <trkpt lat="43.73354" lon="3.55229">
        <ele>92.1</ele>
        <time>2016-01-24T16:37:11Z</time>
      </trkpt>
      <trkpt lat="43.73364" lon="3.55234">
        <ele>92</ele>
        <time>2016-01-24T16:37:13Z</time>
      </trkpt>
      <trkpt lat="43.73368" lon="3.55246">
        <ele>91.6</ele>
        <time>2016-01-24T16:37:20Z</time>
      </trkpt>
      <trkpt lat="43.73363" lon="3.55258">
        <ele>91.2</ele>
        <time>2016-01-24T16:37:28Z</time>
      </trkpt>
      <trkpt lat="43.73362" lon="3.55271">
        <ele>90.8</ele>
        <time>2016-01-24T16:37:40Z</time>
      </trkpt>
      <trkpt lat="43.73356" lon="3.55281">
        <ele>90.2</ele>
        <time>2016-01-24T16:37:51Z</time>
      </trkpt>
      <trkpt lat="43.73348" lon="3.55289">
        <ele>90</ele>
        <time>2016-01-24T16:37:56Z</time>
      </trkpt>
      <trkpt lat="43.7334" lon="3.55298">
        <ele>89.9</ele>
        <time>2016-01-24T16:38:01Z</time>
      </trkpt>
      <trkpt lat="43.73337" lon="3.55311">
        <ele>89.5</ele>
        <time>2016-01-24T16:38:11Z</time>
      </trkpt>
      <trkpt lat="43.73338" lon="3.55324">
        <ele>89.2</ele>
        <time>2016-01-24T16:38:22Z</time>
      </trkpt>
      <trkpt lat="43.73333" lon="3.55335">
        <ele>88.8</ele>
        <time>2016-01-24T16:38:31Z</time>
      </trkpt>
      <trkpt lat="43.73327" lon="3.55345">
        <ele>88.6</ele>
        <time>2016-01-24T16:38:41Z</time>
      </trkpt>
      <trkpt lat="43.73327" lon="3.55358">
        <ele>88.4</ele>
        <time>2016-01-24T16:38:50Z</time>
      </trkpt>
      <trkpt lat="43.7332" lon="3.55367">
        <ele>88.1</ele>
        <time>2016-01-24T16:38:57Z</time>
      </trkpt>
      <trkpt lat="43.73309" lon="3.55372">
        <ele>87.9</ele>
        <time>2016-01-24T16:39:03Z</time>
      </trkpt>
      <trkpt lat="43.733" lon="3.55375">
        <ele>87.8</ele>
        <time>2016-01-24T16:39:07Z</time>
      </trkpt>
      <trkpt lat="43.7329" lon="3.55374">
        <ele>87.5</ele>
        <time>2016-01-24T16:39:15Z</time>
      </trkpt>
      <trkpt lat="43.73281" lon="3.55377">
        <ele>87.3</ele>
        <time>2016-01-24T16:39:24Z</time>
      </trkpt>
      <trkpt lat="43.73273" lon="3.5537">
        <ele>87.3</ele>
        <time>2016-01-24T16:39:36Z</time>
      </trkpt>
      <trkpt lat="43.73264" lon="3.55374">
        <ele>87</ele>
        <time>2016-01-24T16:39:44Z</time>
      </trkpt>
      <trkpt lat="43.73254" lon="3.5537">
        <ele>86.6</ele>
        <time>2016-01-24T16:39:51Z</time>
      </trkpt>
      <trkpt lat="43.73245" lon="3.55373">
        <ele>85.4</ele>
        <time>2016-01-24T16:40:14Z</time>
      </trkpt>
      <trkpt lat="43.73235" lon="3.5537">
        <ele>85.2</ele>
        <time>2016-01-24T16:40:22Z</time>
      </trkpt>
      <trkpt lat="43.73225" lon="3.55369">
        <ele>85.1</ele>
        <time>2016-01-24T16:40:30Z</time>
      </trkpt>
      <trkpt lat="43.73217" lon="3.55363">
        <ele>84.7</ele>
        <time>2016-01-24T16:40:39Z</time>
      </trkpt>
      <trkpt lat="43.73207" lon="3.55357">
        <ele>84.2</ele>
        <time>2016-01-24T16:40:51Z</time>
      </trkpt>
      <trkpt lat="43.732" lon="3.5535">
        <ele>83.7</ele>
        <time>2016-01-24T16:40:58Z</time>
      </trkpt>
      <trkpt lat="43.73191" lon="3.55348">
        <ele>83.4</ele>
        <time>2016-01-24T16:41:04Z</time>
      </trkpt>
      <trkpt lat="43.73182" lon="3.55344">
        <ele>83.1</ele>
        <time>2016-01-24T16:41:12Z</time>
      </trkpt>
      <trkpt lat="43.73173" lon="3.55338">
        <ele>82.8</ele>
        <time>2016-01-24T16:41:19Z</time>
      </trkpt>
      <trkpt lat="43.73164" lon="3.55335">
        <ele>82.5</ele>
        <time>2016-01-24T16:41:27Z</time>
      </trkpt>
      <trkpt lat="43.73154" lon="3.55336">
        <ele>81.9</ele>
        <time>2016-01-24T16:41:36Z</time>
      </trkpt>
      <trkpt lat="43.73145" lon="3.55336">
        <ele>81.6</ele>
        <time>2016-01-24T16:41:44Z</time>
      </trkpt>
      <trkpt lat="43.73135" lon="3.55335">
        <ele>81.5</ele>
        <time>2016-01-24T16:41:51Z</time>
      </trkpt>
      <trkpt lat="43.73126" lon="3.5533">
        <ele>81.4</ele>
        <time>2016-01-24T16:41:59Z</time>
      </trkpt>
      <trkpt lat="43.73118" lon="3.55326">
        <ele>81.3</ele>
        <time>2016-01-24T16:42:06Z</time>
      </trkpt>
      <trkpt lat="43.73109" lon="3.55321">
        <ele>81</ele>
        <time>2016-01-24T16:42:15Z</time>
      </trkpt>
      <trkpt lat="43.731" lon="3.55319">
        <ele>80.9</ele>
        <time>2016-01-24T16:42:22Z</time>
      </trkpt>
      <trkpt lat="43.73091" lon="3.55316">
        <ele>80.9</ele>
        <time>2016-01-24T16:42:29Z</time>
      </trkpt>
      <trkpt lat="43.73082" lon="3.55312">
        <ele>80.8</ele>
        <time>2016-01-24T16:42:41Z</time>
      </trkpt>
      <trkpt lat="43.73073" lon="3.55307">
        <ele>80.7</ele>
        <time>2016-01-24T16:42:50Z</time>
      </trkpt>
      <trkpt lat="43.73064" lon="3.55303">
        <ele>80.7</ele>
        <time>2016-01-24T16:42:58Z</time>
      </trkpt>
      <trkpt lat="43.73055" lon="3.55298">
        <ele>80.5</ele>
        <time>2016-01-24T16:43:07Z</time>
      </trkpt>
      <trkpt lat="43.73046" lon="3.55293">
        <ele>80.4</ele>
        <time>2016-01-24T16:43:15Z</time>
      </trkpt>
      <trkpt lat="43.73037" lon="3.55289">
        <ele>80.4</ele>
        <time>2016-01-24T16:43:24Z</time>
      </trkpt>
      <trkpt lat="43.73028" lon="3.55285">
        <ele>80.4</ele>
        <time>2016-01-24T16:43:32Z</time>
      </trkpt>
      <trkpt lat="43.73019" lon="3.5528">
        <ele>80.4</ele>
        <time>2016-01-24T16:43:40Z</time>
      </trkpt>
      <trkpt lat="43.7301" lon="3.55274">
        <ele>80.5</ele>
        <time>2016-01-24T16:43:48Z</time>
      </trkpt>
      <trkpt lat="43.73001" lon="3.55273">
        <ele>80.2</ele>
        <time>2016-01-24T16:43:58Z</time>
      </trkpt>
      <trkpt lat="43.72991" lon="3.55272">
        <ele>79.7</ele>
        <time>2016-01-24T16:44:05Z</time>
      </trkpt>
      <trkpt lat="43.72982" lon="3.55266">
        <ele>79.1</ele>
        <time>2016-01-24T16:44:14Z</time>
      </trkpt>
      <trkpt lat="43.72973" lon="3.55262">
        <ele>78.6</ele>
        <time>2016-01-24T16:44:22Z</time>
      </trkpt>
      <trkpt lat="43.72965" lon="3.55256">
        <ele>78.7</ele>
        <time>2016-01-24T16:44:39Z</time>
      </trkpt>
      <trkpt lat="43.72957" lon="3.55248">
        <ele>79.4</ele>
        <time>2016-01-24T16:44:51Z</time>
      </trkpt>
      <trkpt lat="43.72947" lon="3.55245">
        <ele>79.6</ele>
        <time>2016-01-24T16:44:58Z</time>
      </trkpt>
      <trkpt lat="43.72938" lon="3.55241">
        <ele>79.8</ele>
        <time>2016-01-24T16:45:04Z</time>
      </trkpt>
      <trkpt lat="43.72931" lon="3.55232">
        <ele>79.6</ele>
        <time>2016-01-24T16:45:10Z</time>
      </trkpt>
      <trkpt lat="43.72926" lon="3.55221">
        <ele>79.4</ele>
        <time>2016-01-24T16:45:19Z</time>
      </trkpt>
      <trkpt lat="43.72918" lon="3.55215">
        <ele>79.3</ele>
        <time>2016-01-24T16:45:28Z</time>
      </trkpt>
      <trkpt lat="43.7291" lon="3.55209">
        <ele>79.3</ele>
        <time>2016-01-24T16:45:37Z</time>
      </trkpt>
      <trkpt lat="43.72903" lon="3.552">
        <ele>79.6</ele>
        <time>2016-01-24T16:45:46Z</time>
      </trkpt>
      <trkpt lat="43.72894" lon="3.55195">
        <ele>79.8</ele>
        <time>2016-01-24T16:45:56Z</time>
      </trkpt>
      <trkpt lat="43.72886" lon="3.55188">
        <ele>79.9</ele>
        <time>2016-01-24T16:46:03Z</time>
      </trkpt>
      <trkpt lat="43.72877" lon="3.55182">
        <ele>80</ele>
        <time>2016-01-24T16:46:15Z</time>
      </trkpt>
      <trkpt lat="43.7287" lon="3.55173">
        <ele>80.1</ele>
        <time>2016-01-24T16:46:22Z</time>
      </trkpt>
      <trkpt lat="43.72864" lon="3.55164">
        <ele>80.1</ele>
        <time>2016-01-24T16:46:29Z</time>
      </trkpt>
      <trkpt lat="43.72857" lon="3.55154">
        <ele>80.3</ele>
        <time>2016-01-24T16:46:37Z</time>
      </trkpt>
      <trkpt lat="43.72849" lon="3.55145">
        <ele>80.3</ele>
        <time>2016-01-24T16:46:45Z</time>
      </trkpt>
      <trkpt lat="43.72841" lon="3.55139">
        <ele>80.3</ele>
        <time>2016-01-24T16:46:53Z</time>
      </trkpt>
      <trkpt lat="43.72835" lon="3.55129">
        <ele>80.1</ele>
        <time>2016-01-24T16:47:03Z</time>
      </trkpt>
      <trkpt lat="43.72828" lon="3.5512">
        <ele>80.5</ele>
        <time>2016-01-24T16:47:12Z</time>
      </trkpt>
      <trkpt lat="43.72819" lon="3.55114">
        <ele>80.9</ele>
        <time>2016-01-24T16:47:20Z</time>
      </trkpt>
      <trkpt lat="43.72811" lon="3.55107">
        <ele>81</ele>
        <time>2016-01-24T16:47:28Z</time>
      </trkpt>
      <trkpt lat="43.72802" lon="3.55104">
        <ele>81</ele>
        <time>2016-01-24T16:47:36Z</time>
      </trkpt>
      <trkpt lat="43.72793" lon="3.551">
        <ele>81</ele>
        <time>2016-01-24T16:47:44Z</time>
      </trkpt>
      <trkpt lat="43.72784" lon="3.55095">
        <ele>81</ele>
        <time>2016-01-24T16:47:52Z</time>
      </trkpt>
      <trkpt lat="43.72775" lon="3.55089">
        <ele>81</ele>
        <time>2016-01-24T16:48:01Z</time>
      </trkpt>
      <trkpt lat="43.72766" lon="3.55082">
        <ele>80.9</ele>
        <time>2016-01-24T16:48:09Z</time>
      </trkpt>
      <trkpt lat="43.72758" lon="3.55074">
        <ele>80.9</ele>
        <time>2016-01-24T16:48:17Z</time>
      </trkpt>
      <trkpt lat="43.7275" lon="3.55067">
        <ele>80.8</ele>
        <time>2016-01-24T16:48:24Z</time>
      </trkpt>
      <trkpt lat="43.72741" lon="3.5506">
        <ele>80.6</ele>
        <time>2016-01-24T16:48:32Z</time>
      </trkpt>
      <trkpt lat="43.72734" lon="3.55053">
        <ele>80.4</ele>
        <time>2016-01-24T16:48:40Z</time>
      </trkpt>
      <trkpt lat="43.72726" lon="3.55047">
        <ele>80.2</ele>
        <time>2016-01-24T16:48:47Z</time>
      </trkpt>
      <trkpt lat="43.72717" lon="3.55045">
        <ele>80.1</ele>
        <time>2016-01-24T16:48:55Z</time>
      </trkpt>
      <trkpt lat="43.72707" lon="3.55046">
        <ele>79.9</ele>
        <time>2016-01-24T16:49:04Z</time>
      </trkpt>
      <trkpt lat="43.72698" lon="3.55046">
        <ele>79.7</ele>
        <time>2016-01-24T16:49:10Z</time>
      </trkpt>
      <trkpt lat="43.72688" lon="3.55046">
        <ele>79.6</ele>
        <time>2016-01-24T16:49:17Z</time>
      </trkpt>
      <trkpt lat="43.72678" lon="3.55045">
        <ele>79.3</ele>
        <time>2016-01-24T16:49:24Z</time>
      </trkpt>
      <trkpt lat="43.7267" lon="3.55041">
        <ele>78.8</ele>
        <time>2016-01-24T16:49:32Z</time>
      </trkpt>
      <trkpt lat="43.7266" lon="3.55038">
        <ele>77.9</ele>
        <time>2016-01-24T16:49:42Z</time>
      </trkpt>
      <trkpt lat="43.72655" lon="3.55027">
        <ele>77.2</ele>
        <time>2016-01-24T16:49:54Z</time>
      </trkpt>
      <trkpt lat="43.72646" lon="3.55026">
        <ele>77.3</ele>
        <time>2016-01-24T16:50:05Z</time>
      </trkpt>
      <trkpt lat="43.72637" lon="3.55025">
        <ele>77.4</ele>
        <time>2016-01-24T16:50:13Z</time>
      </trkpt>
      <trkpt lat="43.72627" lon="3.55022">
        <ele>77.5</ele>
        <time>2016-01-24T16:50:25Z</time>
      </trkpt>
      <trkpt lat="43.72618" lon="3.55018">
        <ele>78.5</ele>
        <time>2016-01-24T16:50:44Z</time>
      </trkpt>
      <trkpt lat="43.72608" lon="3.55019">
        <ele>79</ele>
        <time>2016-01-24T16:50:51Z</time>
      </trkpt>
      <trkpt lat="43.72599" lon="3.55015">
        <ele>80.1</ele>
        <time>2016-01-24T16:51:10Z</time>
      </trkpt>
      <trkpt lat="43.72589" lon="3.55016">
        <ele>80.6</ele>
        <time>2016-01-24T16:51:20Z</time>
      </trkpt>
      <trkpt lat="43.72581" lon="3.55022">
        <ele>78.6</ele>
        <time>2016-01-24T16:52:15Z</time>
      </trkpt>
      <trkpt lat="43.72571" lon="3.55025">
        <ele>78.2</ele>
        <time>2016-01-24T16:52:23Z</time>
      </trkpt>
      <trkpt lat="43.72562" lon="3.55029">
        <ele>77.9</ele>
        <time>2016-01-24T16:52:30Z</time>
      </trkpt>
      <trkpt lat="43.72554" lon="3.55035">
        <ele>77.4</ele>
        <time>2016-01-24T16:52:38Z</time>
      </trkpt>
      <trkpt lat="43.72545" lon="3.55035">
        <ele>76.8</ele>
        <time>2016-01-24T16:52:45Z</time>
      </trkpt>
      <trkpt lat="43.72536" lon="3.55038">
        <ele>76.4</ele>
        <time>2016-01-24T16:52:52Z</time>
      </trkpt>
      <trkpt lat="43.72527" lon="3.55041">
        <ele>76.1</ele>
        <time>2016-01-24T16:52:59Z</time>
      </trkpt>
      <trkpt lat="43.72518" lon="3.55042">
        <ele>75.9</ele>
        <time>2016-01-24T16:53:08Z</time>
      </trkpt>
      <trkpt lat="43.72508" lon="3.55044">
        <ele>75.8</ele>
        <time>2016-01-24T16:53:15Z</time>
      </trkpt>
      <trkpt lat="43.72499" lon="3.55048">
        <ele>76.2</ele>
        <time>2016-01-24T16:53:22Z</time>
      </trkpt>
      <trkpt lat="43.7249" lon="3.55048">
        <ele>76.6</ele>
        <time>2016-01-24T16:53:30Z</time>
      </trkpt>
      <trkpt lat="43.72481" lon="3.55051">
        <ele>76.9</ele>
        <time>2016-01-24T16:53:37Z</time>
      </trkpt>
      <trkpt lat="43.72472" lon="3.55049">
        <ele>77.1</ele>
        <time>2016-01-24T16:53:43Z</time>
      </trkpt>
      <trkpt lat="43.72462" lon="3.5505">
        <ele>78.1</ele>
        <time>2016-01-24T16:53:53Z</time>
      </trkpt>
      <trkpt lat="43.72453" lon="3.55049">
        <ele>79.4</ele>
        <time>2016-01-24T16:54:07Z</time>
      </trkpt>
      <trkpt lat="43.72443" lon="3.55051">
        <ele>79.9</ele>
        <time>2016-01-24T16:54:15Z</time>
      </trkpt>
      <trkpt lat="43.72434" lon="3.55058">
        <ele>80.1</ele>
        <time>2016-01-24T16:54:23Z</time>
      </trkpt>
      <trkpt lat="43.72427" lon="3.55065">
        <ele>80.3</ele>
        <time>2016-01-24T16:54:31Z</time>
      </trkpt>
      <trkpt lat="43.72417" lon="3.55064">
        <ele>80.4</ele>
        <time>2016-01-24T16:54:38Z</time>
      </trkpt>
      <trkpt lat="43.72412" lon="3.55053">
        <ele>80.5</ele>
        <time>2016-01-24T16:54:46Z</time>
      </trkpt>
      <trkpt lat="43.72407" lon="3.55042">
        <ele>80.7</ele>
        <time>2016-01-24T16:54:59Z</time>
      </trkpt>
      <trkpt lat="43.72415" lon="3.55037">
        <ele>82.1</ele>
        <time>2016-01-24T16:56:35Z</time>
      </trkpt>
      <trkpt lat="43.72415" lon="3.55037">
        <ele>82.1</ele>
        <time>2016-01-24T16:56:35Z</time>
      </trkpt>
      <trkpt lat="43.72415" lon="3.55036">
        <ele>82</ele>
        <time>2016-01-24T16:56:36Z</time>
      </trkpt>
    </trkseg>
  </trk>
</gpx>